GFSSW_2pvu_pres_000.txt.gz
Presure
255 287 280 248 243 246 251 237 271 274 217 198 187 193 161 173 195 185 154 182 197 208 118 203 126 122 197 194 93 92 96 84 87 132 105 89 104 180 170 168 160 110 121 109 117
267 317 358 375 355 257 251 264 237 288 253 216 202 192 192 172 162 172 177 174 178 201 199 181 116 89 110 167 152 151 101 154 112 80 88 104 120 157 163 159 169 145 100 128 157
271 302 380 406 404 374 266 247 272 245 290 232 216 204 189 199 192 163 163 178 144 192 199 198 199 180 95 96 101 157 174 149 189 191 98 215 248 224 186 184 191 191 117 100 83
258 282 399 422 409 392 410 285 251 284 242 283 227 213 204 179 179 161 172 185 151 175 191 198 195 150 196 96 86 82 98 86 129 95 212 139 231 242 207 174 162 178 87 115 93
286 307 373 385 408 452 445 358 302 258 258 248 250 240 220 198 135 126 187 126 184 188 188 185 188 191 207 147 115 138 139 180 154 207 141 176 237 194 136 165 192 152 145 172 158
254 287 311 370 403 403 426 452 458 264 254 228 292 301 144 161 195 193 82 185 181 167 188 178 179 185 124 189 194 91 92 124 136 197 167 153 124 154 155 150 159 159 161 175 149
262 285 293 314 364 399 425 436 460 454 238 256 227 190 274 148 157 187 194 195 175 180 174 168 185 185 186 183 198 212 145 106 186 126 207 167 128 221 193 144 183 159 165 167 116
252 276 280 301 320 376 400 435 449 369 262 217 258 227 85 205 200 174 201 189 186 108 174 174 171 172 195 184 184 177 110 146 121 101 142 127 135 147 150 186 167 160 162 169 164
252 247 267 287 310 354 383 394 424 470 396 243 247 220 201 72 176 174 176 178 182 186 185 168 191 161 88 124 194 186 145 90 177 198 159 133 116 144 152 131 173 160 175 171 148
241 248 267 277 288 322 372 401 376 412 456 258 93 258 132 119 228 204 151 164 178 183 189 150 173 105 175 169 137 169 207 192 184 129 138 215 145 138 82 84 154 166 177 169 145
235 229 254 266 272 296 379 391 394 386 439 259 211 246 272 224 214 205 203 177 186 187 180 152 169 172 184 156 93 171 173 177 146 199 110 134 149 125 155 169 169 161 179 170 157
240 236 241 243 269 288 317 395 415 388 396 237 213 246 264 215 303 215 213 194 201 184 182 170 188 167 110 80 188 166 168 175 114 194 188 208 136 162 146 166 175 160 179 143 166
226 239 232 242 251 281 300 323 375 429 463 227 215 242 257 239 274 232 205 207 199 191 169 108 160 169 180 116 185 103 187 166 145 188 196 178 124 191 122 120 125 153 127 133 139
230 227 224 232 242 249 280 311 345 416 468 214 209 222 248 258 211 284 212 202 202 196 174 166 91 181 171 192 177 179 193 173 193 184 182 196 208 104 104 102 134 150 145 164 168
231 221 238 229 242 245 262 277 324 355 357 213 206 198 236 261 214 252 219 204 197 200 201 177 68 173 170 188 174 194 187 202 180 179 189 206 198 194 140 102 106 148 165 164 174
233 216 221 216 229 232 242 264 305 348 224 211 195 208 218 258 221 252 270 216 180 199 206 194 144 105 180 180 169 156 101 202 170 190 173 202 137 123 166 175 168 144 172 172 175
230 223 229 220 220 222 234 84 286 336 206 212 198 199 199 216 258 262 243 227 213 207 201 202 185 126 182 129 165 178 166 149 160 192 183 183 198 130 136 135 162 159 154 127 99
157 218 225 224 223 216 232 95 257 293 226 216 203 192 188 196 236 258 208 192 197 202 200 178 190 182 188 189 100 90 158 193 90 194 160 120 194 191 176 162 159 167 165 116 95
231 218 221 220 218 221 223 224 141 252 281 210 202 202 189 189 201 238 255 187 195 192 193 194 183 184 184 183 175 172 176 178 171 187 133 168 193 200 155 174 138 152 156 176 171
233 213 220 173 216 220 228 234 236 243 250 197 197 200 197 185 194 208 193 195 189 191 183 189 158 184 189 178 187 175 182 169 174 170 154 193 144 204 177 166 157 114 174 163 143
217 207 174 217 216 214 219 236 236 234 234 246 197 195 197 189 193 187 188 188 188 189 186 169 174 179 188 192 192 159 158 165 194 183 194 172 190 209 147 148 113 92 93 178 175
222 221 204 216 205 225 216 220 229 228 234 230 231 198 198 197 195 190 187 186 187 195 199 200 182 202 154 146 187 195 195 153 189 176 194 169 181 203 182 157 157 141 130 136 182
219 228 212 222 206 218 153 87 228 229 222 221 246 248 199 198 196 195 189 191 191 188 186 185 185 182 186 184 172 171 180 181 239 164 169 185 176 203 193 183 169 168 164 165 175
227 222 213 221 223 213 226 203 207 232 223 231 225 226 230 239 223 197 195 195 195 199 199 196 181 198 150 204 194 195 190 196 177 158 190 185 179 203 182 164 162 170 179 156 166
223 224 204 229 225 214 208 218 226 207 217 225 223 219 216 225 233 235 230 239 248 235 196 197 196 190 197 191 197 211 193 175 172 156 179 171 149 184 191 182 179 152 163 164 171
161 231 200 239 230 207 214 207 125 225 229 225 212 224 211 226 218 229 221 230 226 232 229 222 188 141 237 154 195 148 219 157 155 195 149 134 140 197 201 179 163 158 133 133 142
174 239 235 219 228 223 217 205 214 217 214 226 217 207 224 222 226 216 222 220 210 218 222 229 233 235 227 204 204 218 192 129 157 199 200 160 158 202 200 160 178 179 167 176 179

GFSSW_2pvu_pres_003.txt.gz
Presure
267 238 259 266 297 268 311 275 257 271 275 235 228 188 189 181 174 184 187 181 182 174 156 181 189 90 89 140 88 107 95 159 91 89 79 84 89 102 94 89 174 186 108 159 161
253 241 276 266 312 282 398 305 308 256 272 272 284 228 204 173 182 178 189 96 191 202 204 158 83 173 91 94 155 103 86 92 88 94 91 89 93 188 149 169 188 151 183 156 174
235 255 258 293 278 320 419 456 423 328 246 288 257 262 204 200 187 163 191 184 98 177 195 191 202 187 85 100 95 90 82 91 93 92 88 81 208 112 102 171 136 156 216 175 159
242 251 251 244 289 312 370 450 425 389 374 263 242 273 235 200 186 173 178 195 182 90 141 198 193 119 83 161 197 197 200 88 93 87 204 213 222 93 139 226 157 228 166 176 142
242 249 245 258 283 303 350 397 453 411 396 249 276 251 272 218 188 159 180 192 181 188 100 122 188 182 189 164 88 83 186 203 152 167 148 100 126 97 91 154 260 246 227 177 161
252 243 246 266 270 288 348 370 442 424 387 376 253 264 236 237 179 198 180 180 130 197 182 98 174 189 191 171 189 88 158 133 115 152 85 212 215 155 128 201 171 136 222 190 192
240 240 256 255 282 289 342 369 444 435 420 375 261 286 265 112 208 190 199 178 180 176 188 172 100 191 200 197 184 188 96 194 185 89 195 105 108 205 181 139 137 243 173 175 195
230 242 239 255 276 283 312 376 391 460 423 385 338 259 230 88 138 203 202 186 168 175 169 182 185 122 198 198 191 190 199 119 157 126 160 190 95 201 182 210 233 176 163 200 176
238 242 236 253 265 288 308 382 390 433 469 437 340 242 129 118 234 205 205 198 194 183 173 187 187 181 191 182 188 172 137 210 181 107 193 130 209 133 168 212 149 195 179 161 177
239 237 253 253 258 276 292 333 392 383 419 412 390 240 286 318 233 154 207 195 191 197 194 172 189 110 176 176 181 128 218 188 182 203 180 97 205 111 115 124 128 83 89 116 172
231 228 241 242 254 268 285 315 379 371 395 434 206 204 70 90 159 224 143 202 196 203 204 181 176 176 171 98 119 207 179 195 176 96 163 138 191 196 133 125 76 90 190 169 175
225 241 234 238 255 263 280 306 361 372 388 453 112 85 277 222 318 218 197 154 203 200 204 193 177 169 170 163 166 90 190 131 169 128 162 183 105 104 80 144 151 135 144 160 168
228 218 230 239 249 255 273 300 336 377 391 406 444 236 256 222 206 271 221 209 166 186 206 180 169 168 167 115 84 183 162 192 161 179 161 178 175 187 164 166 152 148 163 168 166
227 242 231 221 238 253 264 293 329 408 414 403 454 220 252 280 207 311 242 215 146 161 199 172 176 176 174 185 153 183 180 97 172 202 203 174 120 170 193 201 128 159 124 127 165
235 226 215 230 237 242 263 287 323 382 461 454 259 218 237 272 227 208 295 215 211 148 162 178 174 70 178 178 175 175 185 183 192 172 183 130 183 191 200 195 132 135 157 103 157
226 219 218 228 230 239 258 269 309 356 397 388 249 224 223 268 219 231 212 226 213 203 173 175 167 179 186 199 171 179 194 164 85 155 94 176 144 187 200 203 148 159 132 113 109
226 228 222 227 224 232 241 273 305 355 403 229 234 210 237 244 269 258 211 295 225 216 196 179 182 133 131 136 174 174 187 186 175 183 169 179 171 186 178 193 90 195 110 149 153
149 223 217 227 218 231 229 266 305 352 218 222 208 207 240 250 268 272 214 292 264 203 200 184 184 173 170 81 123 172 180 173 177 92 191 81 141 190 200 185 196 190 192 176 148
227 220 220 225 219 227 235 90 305 208 207 206 191 207 225 250 266 280 214 216 254 209 197 197 195 190 182 184 139 90 178 176 162 171 178 174 84 173 197 173 184 184 127 136 135
227 223 197 218 230 224 234 150 190 153 204 195 123 202 192 189 266 272 238 209 277 228 199 195 194 191 190 186 163 175 168 168 115 176 172 165 176 191 137 177 151 144 214 203 160
222 217 217 219 228 221 228 235 243 199 200 202 195 191 201 186 227 256 262 234 211 227 203 195 190 189 185 179 194 190 184 140 190 141 152 171 174 188 183 141 187 177 181 198 201
215 205 225 213 216 221 227 230 239 200 196 197 201 198 187 181 191 211 226 254 254 199 183 201 195 195 197 187 190 196 185 173 185 160 185 174 165 162 175 174 190 102 182 179 207
219 215 224 227 211 216 237 241 230 239 198 194 198 199 200 185 186 189 225 243 250 249 216 181 195 191 194 197 194 187 181 161 189 194 155 155 183 189 170 196 168 171 177 206 202
233 214 214 214 232 220 230 227 228 239 242 199 164 202 200 200 194 184 189 223 229 222 203 194 186 190 188 193 166 197 186 173 181 196 173 160 169 171 167 186 201 140 183 175 203
168 220 216 219 138 230 225 222 228 232 246 222 195 198 198 197 202 191 185 190 191 190 206 191 198 195 177 190 182 182 178 162 196 195 156 185 162 159 117 168 174 185 183 183 186
167 229 212 220 218 216 210 220 225 223 226 226 247 199 198 195 198 197 199 194 189 189 191 188 186 185 199 188 179 187 184 181 192 188 188 190 114 183 182 133 179 180 147 161 158
248 207 231 203 219 172 208 182 215 218 232 220 226 230 242 208 198 197 197 198 202 200 196 193 192 191 193 192 180 189 189 177 195 183 198 189 197 194 137 151 166 147 156 155 184

GFSSW_2pvu_pres_006.txt.gz
Presure
228 223 211 273 270 262 256 268 269 279 263 213 231 273 234 195 183 181 151 106 175 204 208 100 214 104 95 93 124 82 181 109 160 182 144 87 72 88 83 91 88 184 103 180 174
157 206 270 256 252 259 255 275 267 279 292 287 244 198 290 227 194 192 187 149 76 203 196 198 77 212 140 89 85 84 83 109 138 161 95 87 82 85 134 130 87 94 133 179 182
213 260 254 239 254 249 245 246 279 286 324 211 330 263 248 311 221 177 169 183 192 194 203 190 170 92 221 198 96 176 96 121 97 183 85 98 93 77 94 92 81 229 84 107 164
211 250 246 250 252 243 253 255 273 299 325 369 412 461 251 281 267 200 185 185 186 174 202 201 189 168 79 149 87 209 139 101 89 86 167 93 89 94 94 137 225 78 78 226 195
254 241 238 241 241 245 248 255 270 296 389 374 426 427 357 232 309 210 202 186 188 185 194 166 199 161 178 99 141 90 117 83 91 84 85 92 91 90 216 214 215 166 92 179 144
252 241 219 235 249 245 244 251 281 300 384 382 417 419 387 346 293 220 205 194 176 185 189 181 125 190 194 184 84 81 156 84 94 95 83 84 86 199 104 103 152 92 201 229 154
252 233 247 242 229 223 261 266 280 306 388 419 393 427 397 113 266 250 212 202 180 173 185 195 188 88 187 196 199 202 200 197 83 100 107 98 171 103 145 153 123 104 107 221 252
248 235 241 234 238 248 259 269 277 308 379 448 396 397 182 130 288 295 218 205 191 183 171 196 191 130 90 150 180 189 205 193 89 110 195 185 119 98 119 138 174 170 223 173 223
246 238 233 259 241 253 260 266 280 306 372 447 394 388 441 97 129 277 217 213 195 189 178 181 194 184 196 98 188 187 184 192 183 91 188 110 155 90 152 194 98 175 224 244 230
244 238 233 212 244 253 256 268 280 308 369 393 406 404 418 359 103 263 234 197 197 193 190 175 194 157 190 183 122 187 182 163 174 183 163 157 194 151 192 82 117 157 109 154 82
239 240 230 245 241 255 260 264 284 311 375 360 416 408 387 338 272 144 251 220 198 201 193 180 179 183 185 193 187 191 116 192 180 185 181 184 160 195 135 196 202 113 114 78 83
219 246 232 244 238 247 255 258 278 310 367 368 408 413 383 321 94 174 264 222 207 199 194 185 197 154 177 182 193 191 197 191 194 203 177 178 189 120 185 164 191 189 130 184 213
238 233 232 235 244 243 249 264 284 318 357 389 400 439 376 263 269 223 275 222 210 205 201 142 166 162 174 148 130 145 182 191 206 170 173 196 178 180 178 171 169 145 219 224 214
230 248 237 231 231 233 251 269 284 324 362 369 394 144 99 139 98 228 310 225 210 198 199 124 87 180 109 184 187 184 179 197 135 172 183 182 184 184 94 116 113 112 203 118 216
229 237 230 231 227 236 239 257 290 334 344 363 443 422 404 256 241 232 304 226 206 206 198 184 144 186 172 177 187 181 170 95 178 168 203 165 95 99 166 159 185 197 193 210 117
190 230 227 222 227 238 243 256 290 356 342 363 461 459 235 253 247 224 300 136 213 207 139 184 189 195 181 175 179 178 130 174 104 185 116 173 192 201 174 186 166 191 199 206 177
198 235 227 221 225 230 241 261 289 356 360 391 503 456 229 242 262 220 304 247 218 213 148 192 188 195 190 110 184 181 143 190 174 180 170 189 172 166 181 191 178 190 196 198 137
230 233 229 218 226 233 241 254 290 366 386 459 526 319 230 257 258 213 305 281 227 214 196 155 184 200 90 178 93 165 182 178 168 92 164 170 179 184 153 180 192 193 185 189 195
228 233 228 218 225 237 245 255 301 379 387 458 401 239 246 251 226 215 246 308 227 218 150 180 147 173 194 192 185 169 179 173 189 192 177 155 163 182 178 188 174 192 193 182 123
224 223 207 226 224 233 241 257 294 292 241 252 238 207 221 247 283 215 205 208 313 226 208 193 156 159 183 178 174 177 183 114 83 178 166 160 184 178 178 169 165 128 196 154 181
225 217 200 224 223 233 243 255 236 203 223 232 217 238 197 217 232 241 205 219 197 343 226 200 188 177 166 172 160 168 177 180 172 183 137 114 164 172 188 175 166 178 181 181 113
233 227 228 220 217 231 240 216 206 203 204 202 197 195 236 235 243 255 261 259 199 197 289 203 201 192 185 177 180 172 176 171 163 174 184 175 163 190 178 191 174 165 184 172 189
240 219 231 217 215 222 236 210 204 197 196 195 187 192 217 232 245 259 267 327 225 198 273 270 199 194 193 191 186 186 192 194 169 194 184 177 161 105 158 174 167 187 183 170 171
247 210 191 224 220 218 235 238 206 201 195 192 190 188 194 186 230 247 255 258 248 205 211 264 246 196 191 185 159 194 178 184 181 189 177 163 181 177 179 159 168 166 197 185 181
181 229 214 221 224 219 219 230 231 204 200 198 197 151 191 191 188 214 237 255 259 246 207 236 246 217 200 192 195 195 184 184 189 188 181 184 177 172 177 183 185 170 159 110 171
173 240 218 218 212 84 232 219 222 214 213 203 195 201 199 195 189 185 196 226 246 249 253 257 200 217 215 203 199 194 197 194 193 199 171 185 160 176 180 181 192 160 159 159 168
216 249 224 213 220 218 222 219 218 223 230 199 205 198 186 198 200 201 191 180 211 239 238 246 250 247 189 187 193 192 194 190 179 154 185 177 181 163 185 191 192 172 197 187 190

GFSSW_2pvu_pres_009.txt.gz
Presure
232 231 219 225 238 230 214 273 262 260 270 272 282 253 215 226 243 207 187 178 191 195 180 139 89 106 184 172 194 174 176 186 179 184 180 92 103 76 77 87 120 131 90 92 103
224 208 228 168 135 205 269 253 269 258 252 252 267 277 292 211 229 246 192 194 179 188 179 179 155 105 184 210 117 187 178 153 189 141 193 125 107 129 83 119 94 92 90 111 79
216 216 210 225 221 260 248 248 250 252 242 244 254 260 272 297 270 220 281 187 188 189 189 193 127 79 109 83 212 111 97 98 126 103 110 110 114 88 90 136 95 76 84 81 175
206 219 215 208 225 254 238 248 240 240 238 252 246 246 271 323 333 257 236 265 192 179 169 190 185 195 107 152 208 178 118 77 176 178 183 191 183 191 116 94 176 91 96 187 201
204 222 212 208 233 250 225 242 246 231 227 232 249 260 282 320 351 393 231 280 205 193 189 80 189 182 125 159 216 142 205 71 175 85 84 125 156 93 103 97 107 86 177 166 153
206 207 200 215 245 237 252 238 229 242 253 231 233 290 318 409 404 404 346 264 258 201 195 180 179 184 195 182 159 173 143 136 156 97 186 98 132 83 93 100 94 86 195 101 220
211 200 205 208 244 227 242 219 214 251 253 257 285 303 383 386 401 417 415 246 290 214 198 189 179 183 188 194 184 92 226 85 89 225 92 106 104 85 164 94 90 93 164 169 195
213 202 206 216 243 235 233 231 240 249 250 250 298 386 374 421 407 411 424 229 286 223 200 191 191 179 192 199 203 202 105 191 93 132 141 84 90 96 101 92 173 110 163 126 182
212 209 211 216 243 243 236 231 252 257 278 291 324 393 396 426 392 379 399 240 280 225 206 197 195 185 131 166 199 208 208 153 121 89 101 95 91 90 128 125 206 82 182 124 149
195 206 216 242 229 231 240 230 251 266 280 291 344 387 414 393 390 387 380 246 280 227 214 202 194 186 167 141 108 192 196 193 197 168 194 194 197 191 190 145 114 193 111 120 106
196 204 211 244 221 240 241 245 247 263 282 287 339 367 379 396 396 392 84 249 284 227 216 202 191 190 78 193 189 98 192 199 189 189 187 192 73 90 88 188 184 193 198 194 124
197 204 214 238 242 230 239 237 252 266 278 298 334 342 386 398 393 389 346 252 286 168 217 207 193 179 169 170 191 199 123 110 186 153 191 185 183 201 188 187 198 190 103 196 208
206 206 231 244 229 235 234 238 254 266 271 296 337 335 400 402 390 377 323 242 284 231 218 91 185 180 171 168 187 193 191 186 186 137 179 180 181 185 164 178 187 187 165 112 199
216 209 244 234 231 230 235 240 255 267 284 307 346 324 420 382 385 367 315 229 283 189 216 202 190 183 179 181 182 184 194 188 80 178 123 170 181 177 189 194 189 178 188 195 192
217 212 246 231 228 228 236 242 255 259 278 348 350 341 431 376 373 275 323 229 279 226 217 199 137 180 184 178 170 185 194 189 188 89 179 190 193 182 180 178 178 171 94 182 108
206 214 249 231 227 228 242 244 253 259 296 347 355 357 74 105 304 319 298 229 277 227 172 169 194 140 155 187 179 186 198 195 191 185 164 188 178 177 173 174 182 158 173 176 188
204 217 241 231 223 228 236 250 257 268 351 358 367 438 420 370 247 302 269 257 280 229 215 178 76 188 181 186 118 183 170 171 176 196 105 174 100 171 179 182 169 177 191 187 183
212 233 239 217 225 230 240 259 264 321 372 388 443 473 384 374 118 102 101 262 186 226 213 201 193 183 163 81 178 170 168 190 177 166 179 176 191 195 185 176 116 176 162 193 179
217 257 232 216 230 231 245 264 281 348 391 423 513 408 403 354 249 276 238 270 279 225 216 100 194 178 181 180 177 177 173 88 177 166 185 170 184 167 97 157 160 171 168 193 185
216 257 234 224 232 230 248 264 294 352 391 471 381 373 393 241 263 282 226 247 281 223 208 192 198 186 186 183 180 182 181 173 167 171 184 189 186 185 178 196 182 190 171 161 182
216 255 237 226 233 230 247 272 233 240 325 357 360 202 207 220 224 218 215 279 321 223 208 196 198 178 186 171 144 186 185 145 178 150 135 175 173 187 168 187 182 171 175 163 161
218 253 237 225 221 226 246 209 223 227 225 224 205 225 227 237 255 261 199 226 307 233 208 199 197 191 158 182 188 188 190 177 175 177 177 168 182 196 170 166 96 152 186 172 179
214 253 239 231 226 227 224 202 215 217 214 201 154 203 226 251 258 255 206 206 296 301 213 201 201 199 189 178 151 193 193 193 192 168 179 183 179 167 183 173 168 161 164 187 195
198 235 240 223 230 229 236 198 203 208 212 208 209 198 195 214 233 250 205 199 224 337 302 219 207 200 194 179 149 161 176 183 176 165 176 174 177 171 182 188 192 141 191 180 175
192 240 243 224 229 229 231 206 201 201 200 201 196 194 219 234 240 249 253 206 212 226 231 342 218 211 202 191 187 179 168 160 167 177 158 179 180 164 176 172 177 188 190 187 182
212 228 247 235 228 226 220 235 198 196 197 193 190 144 198 220 247 259 261 309 301 207 204 198 251 236 217 204 197 192 187 188 184 169 171 190 183 184 183 176 171 173 170 168 163
219 228 256 229 233 229 229 222 234 206 195 196 190 190 199 196 186 220 252 256 305 288 270 204 198 204 270 268 202 196 195 192 192 192 187 185 183 189 192 182 191 189 183 179 172

GFSSW_2pvu_pres_012.txt.gz
Presure
190 176 202 216 190 230 215 227 228 215 244 275 278 279 230 271 226 204 225 252 204 195 190 186 103 151 88 205 175 104 122 131 129 98 176 145 79 106 198 113 84 171 84 84 90
213 196 198 208 184 220 224 229 206 197 193 261 260 259 263 264 267 278 211 222 261 205 195 193 149 107 106 168 190 227 208 162 183 94 179 140 115 100 110 68 86 179 85 87 86
175 199 193 204 125 205 219 208 221 259 261 241 243 224 259 257 251 261 277 212 234 268 206 170 198 199 125 77 211 193 139 220 132 174 117 113 180 97 90 86 83 71 75 114 78
185 200 209 186 146 218 220 216 224 260 239 247 243 242 232 233 186 257 263 274 217 243 259 202 200 179 198 90 110 113 84 228 224 224 192 108 122 112 158 108 88 84 93 89 81
195 198 198 182 215 213 211 229 228 246 250 238 230 232 237 240 239 255 260 271 275 227 248 208 200 191 194 188 103 114 113 215 195 163 208 160 173 182 109 105 90 94 97 95 85
201 196 203 200 222 212 208 213 250 233 233 229 237 238 233 245 246 246 256 265 278 261 241 244 199 191 183 195 112 123 166 197 102 83 88 167 99 105 187 180 79 152 103 102 93
198 197 198 205 217 212 225 208 234 228 231 236 230 227 224 262 275 253 290 316 261 290 216 243 206 90 190 188 187 75 194 78 87 81 113 209 205 176 170 97 179 87 92 96 93
192 197 198 203 209 208 231 238 245 228 224 228 226 238 263 259 301 306 419 409 285 307 330 239 268 200 177 194 187 189 181 162 216 89 104 90 89 203 129 99 141 91 94 94 90
193 190 199 211 190 206 211 240 239 226 225 233 245 260 268 278 305 355 380 388 382 233 313 234 269 209 193 190 178 191 180 162 193 86 140 82 88 88 139 93 90 96 168 145 201
170 202 195 213 203 220 209 246 233 224 236 239 250 268 268 287 323 378 369 433 430 410 390 242 272 209 195 187 181 156 179 198 204 202 202 79 115 85 123 93 92 90 110 91 183
189 200 202 216 208 231 211 238 231 236 234 247 257 268 280 298 349 365 388 389 403 405 383 239 275 217 75 179 186 184 186 197 211 217 90 206 215 144 110 93 99 90 93 194 198
192 200 204 196 210 218 231 233 233 231 244 253 258 280 290 308 346 345 395 381 262 392 370 237 279 215 195 182 188 179 179 194 195 197 199 198 169 195 187 172 192 195 190 170 88
194 195 207 197 210 213 236 234 230 236 252 259 275 277 291 349 345 408 393 108 367 379 339 241 270 212 195 189 187 176 173 116 206 203 196 197 201 195 191 189 192 142 180 148 192
201 198 207 209 227 224 235 234 233 241 251 267 275 289 335 343 348 421 401 361 362 379 280 103 274 124 194 192 186 187 176 196 162 116 190 197 194 187 150 185 188 179 183 195 178
200 207 192 207 212 240 235 230 238 246 265 271 285 334 350 347 391 408 395 359 350 332 247 230 240 211 201 189 182 182 191 185 191 192 195 98 97 101 184 185 193 176 194 186 191
198 208 201 215 153 238 231 235 244 257 262 286 315 346 346 350 396 396 194 344 335 339 143 273 209 207 196 191 185 188 166 176 190 189 186 191 194 183 105 178 137 188 177 175 186
201 189 202 216 227 237 230 236 245 272 280 305 340 352 359 414 379 383 344 332 333 248 271 257 212 192 152 194 190 115 167 172 188 184 189 190 187 184 178 178 176 176 179 177 99
207 204 201 209 240 236 235 239 253 272 286 358 358 413 427 337 323 82 330 326 289 235 266 223 216 204 197 107 186 83 102 186 182 175 184 190 182 190 178 181 187 171 167 133 172
211 204 208 213 243 233 235 246 256 259 301 370 440 471 382 352 359 339 321 307 240 249 261 219 211 95 198 191 144 166 182 83 173 180 184 191 186 180 190 178 186 114 198 163 169
211 199 212 217 243 233 238 246 233 260 337 362 372 395 368 353 348 324 307 292 238 269 263 215 188 201 190 196 189 170 88 151 173 179 170 182 186 190 119 169 152 137 173 180 163
207 204 213 240 240 232 236 217 226 237 311 357 375 358 368 365 337 326 326 238 232 272 261 205 212 194 197 193 183 178 175 181 184 174 174 196 182 176 178 188 131 185 190 170 164
204 208 216 243 236 231 208 217 212 223 211 217 220 229 230 346 345 354 241 221 237 275 252 206 202 197 199 190 187 191 192 189 171 181 176 178 190 173 186 177 190 186 155 175 89
201 210 217 247 236 229 208 215 214 213 213 199 202 222 230 255 234 257 269 225 260 269 256 201 199 195 155 196 194 190 180 185 180 177 177 176 188 175 166 176 178 181 177 178 170
185 209 217 247 234 232 205 213 208 212 202 197 199 197 221 242 250 254 213 221 256 264 250 212 203 201 195 192 154 179 150 175 176 176 184 180 183 174 168 170 173 179 181 185 181
177 192 215 247 234 232 210 97 207 163 207 220 224 232 239 254 259 232 211 210 265 292 278 216 203 197 196 195 186 185 185 179 177 181 183 187 191 177 170 164 179 170 174 171 183
172 213 219 244 239 239 233 199 205 207 203 199 195 215 217 232 255 266 205 201 255 303 314 224 205 201 199 196 195 186 161 176 177 177 182 187 186 190 189 172 164 180 180 177 183
176 202 219 245 241 233 236 224 200 202 203 201 203 197 196 236 238 248 200 205 201 250 329 292 215 205 200 196 195 194 182 168 171 165 172 180 191 182 155 170 168 174 182 178 184

GFSSW_2pvu_pres_015.txt.gz
Presure
198 182 191 205 193 204 187 181 200 210 184 218 213 232 225 227 294 244 256 218 218 241 258 174 133 182 199 174 182 150 143 126 102 90 101 105 107 150 88 83 100 110 102 107 86
219 209 202 201 216 206 176 204 203 204 221 233 227 215 269 283 275 274 276 280 250 214 241 259 175 95 179 74 163 160 89 110 110 106 94 96 101 80 82 140 115 186 81 172 117
215 220 195 226 210 204 194 202 206 190 141 223 249 215 277 260 258 260 269 269 270 236 211 242 234 197 176 185 82 180 192 138 109 105 119 101 96 103 134 85 105 71 85 89 71
197 199 218 221 214 206 202 193 143 197 150 209 226 222 259 253 257 252 252 254 262 268 279 208 240 213 202 192 101 103 195 191 139 104 113 114 178 95 102 183 159 113 84 81 81
184 212 215 187 209 198 196 203 153 198 225 228 209 263 253 246 239 243 248 238 226 253 263 263 207 243 201 194 194 133 81 197 194 219 104 120 188 96 98 192 181 94 87 79 83
215 216 215 198 203 196 195 191 198 218 207 240 214 251 241 236 237 241 231 238 242 195 256 261 263 226 250 124 198 136 152 118 195 219 195 228 124 198 139 103 180 110 156 106 87
213 216 212 203 204 193 189 199 194 191 209 235 227 251 236 230 228 227 229 232 231 240 249 256 261 231 232 235 196 187 187 109 93 190 206 193 184 226 211 97 167 167 154 109 89
211 219 209 222 170 195 187 200 211 208 210 214 236 247 225 227 225 229 231 229 230 237 254 265 235 271 223 250 200 196 206 98 112 106 107 115 115 222 226 206 180 109 122 180 128
206 205 211 221 198 194 188 195 213 204 232 215 242 235 226 226 233 233 239 250 262 262 258 274 272 307 260 234 223 204 197 180 128 172 97 139 139 214 182 171 209 106 170 133 103
220 216 223 200 186 195 186 198 205 206 219 224 238 229 227 224 239 246 264 283 286 295 307 377 370 353 314 224 255 200 194 187 188 191 157 69 80 81 124 101 160 133 91 198 163
199 230 217 198 188 196 191 206 206 221 214 240 233 224 230 243 250 261 291 293 296 361 354 359 390 422 321 226 247 202 199 190 183 190 187 137 135 89 84 83 89 95 90 208 92
216 207 198 196 204 202 197 207 208 214 235 237 225 232 238 246 266 290 285 295 354 339 371 394 394 408 332 107 246 189 197 188 184 187 178 149 205 211 182 203 119 111 87 103 94
221 218 195 194 193 201 207 202 230 220 248 228 232 242 243 271 283 285 311 346 339 371 398 389 449 464 335 233 251 196 192 190 155 175 180 175 205 155 203 208 204 207 148 153 150
207 201 194 209 200 198 204 206 216 242 245 234 239 242 262 276 288 316 68 345 352 397 374 379 401 385 131 230 255 205 190 190 189 174 180 176 201 212 204 202 207 201 196 160 146
209 204 195 189 200 205 202 214 228 245 239 244 244 253 279 286 312 346 341 345 421 344 372 401 357 392 334 227 257 204 191 185 81 177 179 186 224 208 201 204 163 197 197 185 191
218 202 193 202 201 205 200 215 248 239 235 246 254 281 290 305 335 344 354 456 364 366 374 129 87 368 323 238 234 206 188 193 177 178 175 184 205 203 210 197 198 194 189 181 187
227 193 197 195 207 202 210 237 244 233 242 241 260 287 311 333 362 361 396 363 363 312 313 339 367 363 227 251 212 155 190 191 175 175 180 125 212 148 138 134 98 98 129 153 182
217 189 200 201 207 201 217 251 242 226 235 256 283 319 334 397 371 369 424 363 310 306 316 244 346 260 223 238 215 112 190 183 180 164 183 193 211 189 188 191 188 183 180 178 176
197 197 198 201 202 213 243 246 227 233 243 266 319 341 374 420 321 288 352 323 306 308 323 324 265 224 210 218 210 202 188 163 164 167 170 189 189 195 190 190 188 181 181 178 193
181 196 202 205 197 219 252 217 224 225 236 272 337 336 372 356 369 331 339 309 309 331 342 298 224 261 236 210 207 138 150 185 164 174 173 187 197 194 185 186 186 182 179 177 135
199 199 203 202 213 232 250 217 210 221 218 220 346 343 345 371 327 312 320 317 322 294 252 214 226 191 124 86 197 190 173 137 113 168 170 184 195 192 189 187 185 180 180 184 193
191 206 202 205 217 250 242 210 212 209 210 218 236 352 357 352 318 319 341 324 296 251 232 116 225 232 209 204 195 189 191 190 179 172 174 192 165 186 184 182 180 178 178 176 162
198 183 201 207 218 250 215 209 210 200 216 224 227 333 351 359 334 323 317 294 265 238 228 213 239 218 112 193 201 186 183 153 188 177 178 190 176 185 183 176 183 172 177 161 172
208 192 208 210 221 242 228 209 205 204 203 221 234 221 322 302 303 300 275 259 240 236 233 242 168 179 213 200 158 179 187 190 190 178 175 183 175 184 179 182 181 177 170 164 178
209 208 204 215 227 241 228 210 209 205 198 211 222 237 216 280 308 278 265 210 212 193 263 257 228 204 204 184 192 195 192 175 179 189 183 183 179 98 172 171 177 165 185 167 166
205 205 204 217 227 240 231 210 205 211 201 197 179 218 238 252 220 224 216 214 215 234 240 246 209 201 192 193 192 193 191 175 177 177 176 175 181 189 187 170 170 177 180 165 175
203 205 209 210 230 239 226 205 204 207 214 217 222 232 242 248 254 252 223 216 224 264 257 246 210 201 198 199 195 181 182 181 181 182 172 177 167 189 184 179 179 183 189 192 181

GFSSW_2pvu_pres_018.txt.gz
Presure
184 205 185 193 192 201 196 199 218 214 185 206 216 185 201 231 223 232 219 243 231 226 228 235 239 180 120 153 184 101 215 197 102 97 98 90 95 110 123 121 110 77 87 90 124
207 216 213 204 200 206 203 216 194 208 215 203 198 203 212 204 211 229 223 232 233 235 271 232 229 240 230 89 186 143 101 185 174 105 110 99 93 85 106 112 164 85 81 110 168
210 198 205 219 215 201 209 209 201 234 214 202 181 200 212 204 220 233 220 228 288 279 272 274 231 224 239 190 208 189 140 152 162 182 209 104 109 111 95 111 84 84 92 97 169
200 205 199 224 220 217 214 192 208 225 217 204 199 199 201 196 221 175 225 278 269 258 266 267 276 255 218 242 235 209 204 189 135 135 133 119 112 99 94 80 95 168 151 138 168
209 209 217 198 185 203 212 229 217 224 214 206 197 196 203 215 178 244 215 267 262 263 262 262 266 258 253 225 248 210 198 78 113 153 119 133 108 109 105 109 153 94 118 183 117
209 211 224 201 208 212 217 230 217 214 209 199 192 190 197 186 215 229 217 256 250 250 251 251 259 260 267 243 231 251 144 163 194 191 110 107 104 112 105 111 172 93 94 106 149
225 228 228 208 203 220 217 221 209 223 209 196 186 171 207 211 224 212 256 254 248 246 245 244 245 256 265 275 216 239 210 104 97 87 110 196 80 109 95 104 115 198 102 95 177
219 226 222 225 211 207 199 215 213 211 202 200 189 197 212 212 228 218 254 246 231 235 234 240 246 249 255 261 270 217 248 207 132 188 165 179 183 186 116 110 195 113 178 114 112
191 220 223 221 222 206 201 212 214 206 201 199 190 199 208 206 215 236 239 233 229 232 225 230 241 248 253 255 266 241 235 236 203 148 156 158 79 80 139 224 138 81 89 192 115
229 230 228 229 195 211 205 220 227 208 195 200 195 206 202 212 226 237 232 227 225 229 232 235 242 249 256 244 182 273 214 240 205 74 155 109 159 190 108 213 204 187 163 220 212
241 229 229 230 226 215 205 208 221 209 198 203 201 202 211 222 241 231 229 231 235 235 230 240 252 261 258 272 283 281 304 236 228 205 190 110 110 190 96 77 88 79 214 213 106
286 181 195 237 160 219 209 169 197 205 203 195 203 207 218 245 235 231 236 238 239 234 244 265 285 288 298 309 316 292 306 222 247 212 198 190 187 108 111 119 92 86 148 131 109
293 276 250 238 242 220 213 155 205 211 199 199 203 211 237 241 232 235 242 241 243 268 291 291 248 332 347 356 347 316 315 248 242 221 198 191 189 189 140 176 190 207 128 164 104
280 274 262 243 222 217 227 197 207 201 210 191 206 226 244 236 232 237 247 258 283 299 299 331 344 340 348 356 362 387 391 300 236 240 204 196 180 193 173 169 127 212 135 103 202
275 274 197 232 226 229 220 205 206 202 201 211 226 249 239 234 243 257 279 296 306 312 326 338 338 363 415 423 421 460 377 332 231 242 202 195 183 194 177 184 186 207 210 207 202
152 280 262 154 216 218 214 208 202 206 206 227 255 237 235 252 266 279 294 310 318 331 347 351 382 392 387 387 284 320 286 289 229 246 204 196 183 187 171 185 183 212 209 195 200
289 280 256 246 223 208 209 201 204 205 221 253 234 237 255 265 285 312 325 345 374 369 266 378 387 357 352 413 381 278 221 236 237 236 193 194 183 196 177 178 184 208 208 205 203
297 277 241 220 221 222 201 204 203 214 239 234 229 223 249 280 320 340 399 385 386 463 333 345 322 110 367 394 298 274 276 220 240 221 194 189 186 183 172 185 198 208 200 197 198
288 274 248 228 226 203 202 202 209 226 236 224 215 227 270 318 345 389 381 329 333 315 319 319 344 361 93 315 275 264 232 225 236 203 189 174 191 178 173 181 206 198 204 195 197
275 265 163 233 215 200 207 208 217 249 219 221 219 243 307 349 369 392 320 323 319 307 315 336 366 336 270 267 259 260 168 219 100 198 184 186 180 176 168 195 200 204 201 136 189
271 232 212 227 200 207 202 210 238 221 216 214 220 251 308 396 394 261 305 304 237 256 346 309 275 288 269 260 251 225 181 225 206 194 185 193 184 90 177 199 206 203 195 190 188
270 228 178 210 204 204 211 219 242 215 211 220 228 279 365 340 322 235 309 309 336 342 304 281 269 282 268 241 231 218 117 232 210 185 186 142 163 163 183 201 181 189 191 189 185
238 238 216 208 167 197 211 241 218 215 210 218 233 291 360 333 305 318 327 319 284 243 262 251 268 259 254 211 227 180 235 213 177 180 180 187 172 102 192 192 191 196 187 188 188
240 226 208 214 206 210 216 250 215 215 209 217 237 244 361 337 322 284 287 309 269 241 264 257 253 257 241 171 212 212 216 207 102 186 184 165 167 164 166 195 179 186 189 181 178
230 208 209 205 199 210 228 238 217 213 207 217 235 235 288 347 293 254 273 273 271 274 264 208 209 204 231 201 241 228 208 141 196 195 187 182 175 175 179 187 173 183 185 171 173
227 189 216 207 209 215 243 218 216 210 202 212 225 234 271 348 303 258 272 266 141 270 153 197 201 189 220 262 233 214 198 195 167 103 186 188 181 192 172 182 177 175 176 186 179
221 190 212 201 212 217 246 210 216 213 202 207 220 234 98 257 268 254 280 253 206 181 238 237 203 194 255 228 214 203 203 187 187 188 184 176 177 179 179 177 179 177 180 182 177

GFSSW_2pvu_pres_021.txt.gz
Presure
209 207 209 201 186 203 181 203 187 183 186 203 197 208 195 223 205 209 215 192 204 184 227 226 233 246 244 245 199 200 195 102 132 171 103 95 90 76 136 118 130 177 180 149 157
215 207 209 208 202 186 184 202 224 201 195 203 214 225 209 205 217 203 220 219 207 218 235 225 231 246 246 238 252 244 195 179 80 197 200 100 198 94 100 98 195 90 136 114 92
221 216 206 204 215 207 205 204 207 202 220 217 214 221 195 212 219 210 194 204 212 210 203 234 237 227 237 242 231 249 255 170 188 99 198 149 100 99 117 98 108 118 112 112 86
226 215 211 205 193 205 204 208 210 190 206 226 216 224 215 229 215 203 181 196 217 211 234 233 236 239 285 239 244 231 239 211 194 184 103 196 108 110 201 84 95 110 108 109 116
230 220 212 216 203 203 202 202 208 203 223 206 206 221 218 231 217 205 202 203 214 199 228 259 235 229 279 278 291 241 238 243 89 210 127 95 199 139 208 97 93 102 114 79 83
202 226 219 217 211 206 211 208 199 197 204 210 205 210 217 224 212 204 199 199 210 218 144 169 229 275 267 270 278 281 242 230 122 203 176 189 162 188 111 118 101 101 102 88 82
244 233 223 218 218 222 216 215 216 210 186 211 221 223 210 223 205 205 195 195 196 224 217 226 260 267 263 260 270 274 279 239 223 99 226 178 191 176 183 160 109 106 109 107 111
232 231 223 222 221 223 223 219 216 220 229 221 221 192 218 213 224 201 194 196 197 216 213 234 266 260 253 258 259 259 268 271 218 226 249 207 182 127 102 98 207 110 108 108 111
269 244 227 127 220 213 215 227 214 215 207 213 212 203 215 206 227 200 195 197 212 213 223 257 256 251 241 244 246 252 258 268 263 218 251 238 192 192 191 130 95 89 115 107 106
207 252 271 252 226 233 233 231 223 224 219 195 207 215 219 212 210 191 191 205 211 213 223 250 243 232 229 231 233 242 252 256 259 260 229 258 202 193 189 147 194 102 108 106 115
204 227 212 217 270 251 238 227 223 207 215 215 213 214 217 204 208 201 201 208 208 218 244 244 233 232 236 238 241 248 253 257 262 266 222 253 181 95 175 126 95 170 91 170 108
238 211 213 213 219 198 270 268 231 197 222 204 209 207 224 221 214 198 207 203 216 225 243 239 233 237 241 245 249 206 250 255 261 267 213 234 77 78 191 191 176 193 78 177 184
236 221 197 210 232 233 247 159 264 234 230 205 213 215 207 223 201 204 202 215 225 248 240 237 239 240 241 246 247 245 251 250 261 277 287 152 253 128 135 159 179 189 183 187 189
225 229 231 208 235 232 249 287 270 244 244 221 199 215 214 201 206 205 219 230 252 239 238 232 240 244 249 259 260 272 283 286 286 289 260 163 245 214 192 186 124 110 143 143 109
221 229 233 236 236 239 253 281 193 242 234 208 212 214 191 207 201 221 228 252 234 240 250 251 260 283 314 311 306 310 304 305 297 290 296 312 238 222 197 196 179 184 114 109 108
239 241 193 224 241 241 259 279 190 250 220 219 216 193 204 205 221 231 252 236 233 249 282 297 324 315 308 307 313 317 325 334 358 337 302 284 127 82 199 133 176 186 178 165 176
246 251 259 261 262 248 265 276 256 241 229 223 205 208 212 226 236 238 225 222 271 285 323 325 323 325 326 329 335 348 367 374 366 198 335 284 210 236 154 181 188 190 180 174 179
338 302 290 280 277 272 288 267 245 226 227 207 212 216 228 240 233 222 262 295 350 368 392 377 379 365 357 373 384 399 413 404 372 418 297 290 203 239 114 175 189 189 178 178 178
324 322 305 278 272 269 285 248 231 232 206 212 216 228 240 218 216 277 377 385 400 382 380 373 381 389 367 370 387 387 431 449 413 288 285 262 166 235 215 187 182 189 176 171 180
361 321 296 282 272 290 283 230 228 211 211 209 226 238 210 221 269 392 417 397 331 330 328 331 347 356 309 308 364 335 367 347 274 265 208 219 230 232 210 183 180 188 174 174 183
332 337 299 198 287 217 227 225 223 205 207 226 235 214 219 249 337 371 334 332 324 324 327 343 336 291 157 88 284 298 309 266 259 261 224 168 237 230 199 179 186 180 178 180 197
340 314 277 271 271 195 230 224 206 208 221 236 216 219 233 274 348 315 317 310 320 341 342 330 270 267 266 263 261 99 251 239 172 252 234 195 195 78 111 177 182 180 177 188 209
315 277 297 285 223 198 222 205 210 216 232 210 207 222 248 339 318 317 323 324 296 315 125 269 261 257 261 256 261 244 247 257 255 252 216 224 225 196 187 179 173 174 171 196 205
285 287 288 234 232 217 165 206 208 226 247 207 214 226 259 333 316 319 87 280 282 268 257 239 216 254 240 241 256 255 242 243 233 217 217 195 211 193 179 180 178 172 174 203 193
283 281 234 232 224 208 206 216 218 243 213 207 226 226 257 350 242 286 278 276 278 163 247 171 248 124 247 245 238 249 206 230 222 216 234 187 192 187 186 176 169 181 182 205 185
279 253 235 226 214 212 211 213 231 239 208 208 221 229 251 329 244 272 294 294 206 249 248 243 243 238 232 250 242 253 239 185 239 229 232 204 194 187 179 171 170 165 173 192 171
265 236 230 221 213 212 212 217 241 222 209 213 218 234 245 263 289 259 234 166 249 248 221 222 193 261 225 202 247 236 264 216 259 143 217 192 186 180 171 163 162 180 179 179 180

GFSSW_2pvu_pres_024.txt.gz
Presure
313 287 278 233 215 215 208 211 213 199 190 179 202 183 168 163 178 168 209 221 211 192 206 211 225 207 94 97 187 177 187 220 187 192 115 91 204 181 131 85 85 86 88 91 93
297 275 265 235 223 216 210 205 211 184 202 203 194 201 200 203 179 201 202 221 197 228 202 213 218 205 212 198 142 189 225 198 208 101 190 120 89 207 83 111 131 94 93 87 92
284 267 256 237 222 222 216 209 202 207 195 195 187 188 196 194 174 227 185 221 218 206 222 214 210 196 187 187 218 208 107 107 134 250 91 195 188 89 94 172 222 117 112 113 167
274 264 255 243 231 222 218 209 210 204 208 194 195 190 215 224 207 219 238 219 202 218 218 218 209 186 211 216 240 277 208 238 245 85 236 181 191 189 167 93 92 213 232 118 145
278 256 251 245 230 224 217 211 215 204 204 204 197 201 211 209 219 219 219 220 224 213 222 208 195 184 206 218 217 230 244 231 232 243 235 254 144 131 188 97 91 94 89 110 73
280 262 249 243 233 228 222 217 213 211 195 198 198 206 216 198 198 214 211 222 225 236 221 215 213 208 207 212 221 246 238 276 288 281 243 234 254 145 185 170 95 89 96 95 94
262 243 243 240 231 228 220 218 208 204 209 209 197 197 199 211 196 205 235 215 226 225 223 215 203 204 204 200 230 239 239 282 276 268 295 172 239 258 102 141 187 103 168 77 98
287 260 243 233 239 234 229 224 223 214 212 207 205 203 214 216 218 222 214 223 230 222 233 214 216 198 199 202 218 231 277 277 274 276 280 288 235 236 200 142 139 196 115 196 127
232 281 265 222 241 235 236 127 225 213 211 216 211 212 211 205 215 222 217 230 201 224 219 227 212 207 196 206 216 245 269 261 255 258 268 279 250 226 242 210 109 190 181 192 157
204 217 256 269 257 239 227 201 146 200 225 219 216 215 207 221 227 220 220 223 212 226 226 228 213 201 195 219 218 258 265 260 233 208 264 270 282 226 106 245 210 112 99 193 203
221 209 200 216 297 279 245 234 227 222 222 219 210 212 217 222 230 215 222 216 209 224 219 233 206 200 212 217 228 260 252 246 239 239 250 255 264 230 76 252 240 80 119 201 120
226 226 216 205 161 211 227 288 255 250 248 244 231 228 225 217 221 232 222 217 227 216 236 225 210 207 211 220 227 255 248 239 237 239 242 248 155 269 219 172 105 201 185 154 118
222 233 226 207 209 200 201 209 206 216 215 182 260 258 230 225 221 226 232 217 219 226 219 224 215 209 215 226 240 248 241 237 238 242 248 250 258 272 83 219 254 103 79 114 116
225 207 229 218 193 238 231 207 211 215 231 211 222 252 263 252 231 230 236 235 221 221 221 218 208 216 226 240 254 248 237 238 243 245 250 260 256 271 263 70 248 236 163 79 85
223 225 233 228 211 197 220 215 212 196 225 218 237 278 271 261 244 237 247 223 225 222 209 213 222 194 242 248 239 234 239 240 243 247 249 261 269 82 124 238 232 236 205 181 194
241 228 238 229 220 215 221 222 226 215 224 227 233 280 267 254 238 242 238 227 216 212 223 232 239 240 239 227 221 232 231 245 253 258 274 259 271 278 267 253 169 241 207 189 193
250 241 238 233 224 235 230 231 206 220 238 236 269 282 261 240 240 234 230 220 214 228 241 226 232 229 233 236 244 247 246 260 281 285 197 292 135 166 284 308 215 247 208 188 189
266 249 237 229 233 236 237 235 189 233 245 254 287 259 244 239 230 232 209 219 237 245 225 240 250 337 341 340 330 327 330 337 261 289 337 313 316 348 278 318 211 247 212 137 184
398 350 275 257 241 243 239 241 233 249 270 292 264 243 235 230 218 213 233 243 221 241 286 401 387 366 364 331 335 332 332 311 317 322 318 307 338 270 273 305 83 92 210 136 176
365 370 312 340 280 261 250 242 255 270 305 266 245 233 231 218 225 239 221 233 300 375 367 374 376 372 372 373 364 373 379 351 348 337 354 370 388 323 166 270 209 239 143 187 184
313 309 325 327 339 294 296 289 265 282 270 240 233 229 207 236 223 223 237 352 344 354 353 346 347 343 347 347 349 364 391 411 416 429 447 448 397 76 274 234 206 230 208 183 180
342 311 300 323 357 338 303 266 284 285 238 232 224 212 237 212 225 241 342 352 363 304 291 296 308 308 290 294 294 306 292 283 297 301 288 280 295 265 206 224 231 227 208 181 181
313 299 292 330 336 308 267 286 247 237 232 222 219 237 211 222 271 337 332 301 289 274 272 271 273 273 263 263 262 265 260 270 265 231 271 267 279 257 238 212 228 227 213 184 184
340 258 324 326 295 276 274 246 235 212 217 222 235 216 212 244 353 324 281 278 269 235 259 260 168 195 250 249 240 258 245 247 197 168 255 269 226 254 193 209 232 223 189 184 181
321 320 318 272 270 267 243 237 227 216 221 232 249 213 236 342 305 294 261 256 243 247 242 258 247 247 248 164 240 233 256 243 254 267 250 266 164 195 122 231 228 218 194 189 181
315 306 278 269 256 242 236 225 212 220 229 246 208 221 294 293 317 181 254 241 237 250 237 242 237 232 240 236 231 233 245 255 242 267 284 206 230 180 231 222 223 191 186 181 170
291 284 270 252 242 237 227 207 224 228 240 218 217 238 309 318 259 266 255 256 231 241 235 232 232 233 233 225 235 232 232 231 255 237 189 232 218 193 226 227 196 187 181 175 176

GFSSW_2pvu_pres_027.txt.gz
Presure
226 216 205 214 214 216 209 203 193 219 216 222 222 209 206 187 171 163 212 188 161 172 177 193 202 192 207 194 186 205 205 201 143 182 183 89 84 80 201 220 120 93 177 92 161
255 233 214 215 215 212 213 251 232 224 214 201 216 208 208 205 195 187 161 172 186 182 195 177 205 213 209 106 214 201 216 204 216 201 185 207 93 139 83 82 136 89 195 98 96
260 241 235 231 219 311 299 275 267 254 224 216 218 206 201 190 200 195 209 171 179 184 196 195 177 219 204 234 205 220 112 204 207 226 192 236 227 193 97 176 198 201 87 166 95
257 236 229 224 247 301 276 258 252 247 226 217 211 208 209 193 197 204 180 180 189 166 172 202 207 212 225 220 227 216 215 97 96 216 242 198 88 209 87 141 173 84 100 117 223
246 239 233 216 305 282 267 254 247 239 224 219 212 205 202 198 203 189 202 197 203 227 208 181 221 228 219 220 225 220 208 205 148 108 212 244 234 225 211 167 88 87 147 166 101
241 227 227 308 289 267 255 244 246 234 226 224 216 214 202 197 189 202 186 204 201 226 210 223 224 228 231 213 233 226 211 194 208 102 178 99 100 223 162 201 241 89 125 166 194
240 219 225 256 279 267 254 242 241 235 222 218 219 216 207 198 186 193 203 204 197 215 211 205 232 220 220 224 233 226 212 184 204 221 214 248 244 262 124 79 240 254 96 92 90
238 211 228 250 283 263 252 243 233 233 229 227 218 213 207 205 200 206 201 202 206 205 213 218 230 221 235 231 232 225 221 213 204 219 218 238 245 229 254 244 244 246 226 195 89
232 231 227 214 295 266 236 249 240 235 225 129 216 213 212 210 201 202 206 204 202 203 215 227 225 242 240 237 229 225 221 215 211 214 212 188 249 278 285 298 257 240 253 208 132
241 235 216 222 229 283 251 243 242 235 225 219 220 221 213 211 198 201 203 203 217 220 215 222 229 228 229 219 230 228 223 218 216 201 204 235 282 275 85 223 290 246 237 255 197
243 240 235 222 216 245 273 242 242 245 236 224 221 183 219 215 208 213 204 213 217 220 215 226 241 224 220 236 218 236 229 232 213 212 205 152 279 270 265 286 130 276 236 239 253
265 252 242 232 219 219 228 275 240 243 234 239 236 151 223 225 221 214 221 226 223 223 227 232 236 221 212 221 214 234 230 228 213 201 228 225 266 189 262 262 274 268 241 228 246
288 255 242 245 223 219 208 204 263 271 257 245 233 229 235 233 227 228 223 222 220 218 222 239 227 235 230 225 236 230 237 228 216 215 220 227 272 260 253 252 256 264 259 228 235
238 228 223 247 255 223 216 211 215 215 219 247 250 249 240 240 236 211 249 253 259 238 246 243 232 230 236 235 227 230 223 232 223 220 223 249 278 257 159 174 80 113 262 230 222
228 233 236 217 214 257 219 223 210 200 205 206 216 209 199 223 213 222 225 232 241 254 277 245 234 241 239 239 242 231 221 219 219 227 243 248 277 92 254 249 231 66 254 239 216
256 242 230 247 230 232 213 217 208 201 223 222 203 199 204 206 208 225 223 231 273 290 277 263 262 253 247 250 235 219 217 222 229 238 250 190 264 247 239 243 242 249 114 265 217
271 262 241 228 224 232 235 230 200 218 198 216 211 209 208 204 206 225 231 277 285 272 265 261 258 256 260 243 225 227 231 239 244 250 96 242 250 253 230 237 181 249 256 268 220
369 266 257 231 231 220 218 216 221 205 213 207 206 223 222 214 220 235 276 271 261 258 252 258 250 241 231 236 238 245 238 245 242 246 259 88 96 262 224 235 234 75 134 199 223
372 294 258 264 244 238 222 219 231 213 218 207 209 203 218 211 249 291 263 255 253 254 244 227 233 239 246 255 275 286 280 280 122 275 270 173 95 267 223 248 242 252 259 268 230
349 355 335 306 257 245 225 231 217 218 211 225 222 222 226 253 273 261 256 250 235 228 236 243 284 427 422 408 402 383 365 350 346 344 346 358 311 106 268 182 267 246 183 243 230
341 369 356 331 243 267 245 234 226 222 219 219 220 225 266 265 258 250 241 225 238 231 337 373 348 329 327 354 349 340 350 371 361 352 340 341 365 70 318 242 302 283 267 278 183
342 364 379 311 314 274 242 241 232 187 237 207 236 266 262 257 245 218 238 224 246 311 297 297 293 285 280 283 302 358 351 365 362 361 394 376 357 92 126 273 289 296 291 283 225
324 306 289 303 315 313 321 281 274 257 257 249 263 265 253 237 224 229 227 349 290 279 272 273 269 269 258 263 251 273 283 295 386 395 433 435 490 328 298 286 297 280 285 269 221
321 310 301 324 335 313 343 331 320 297 256 287 261 246 223 234 226 234 277 274 266 265 259 256 249 250 255 264 240 258 263 264 284 289 304 389 437 414 320 274 285 291 253 234 207
317 305 296 306 310 323 313 316 320 304 283 253 241 216 244 219 376 289 259 273 261 253 244 244 255 238 238 224 202 255 262 253 262 262 269 257 136 279 270 282 278 268 245 220 234
299 308 307 296 304 300 293 293 268 175 246 235 219 231 225 309 331 178 258 261 250 252 234 229 236 247 232 242 145 226 253 267 247 249 269 258 266 261 259 254 267 261 225 209 227
317 285 311 301 294 286 268 258 244 239 231 233 220 219 236 340 268 197 257 253 160 237 239 224 155 228 223 236 232 234 240 240 258 247 262 263 261 260 254 272 239 229 217 218 224

GFSSW_2pvu_pres_030.txt.gz
Presure
253 246 257 218 233 229 211 216 211 212 218 228 213 196 221 231 229 221 203 198 197 172 205 196 191 200 216 200 198 202 203 197 200 196 204 151 208 212 182 190 196 163 226 162 229
247 267 240 253 250 242 222 216 216 212 215 204 216 205 194 184 219 219 217 212 207 166 163 188 184 158 204 178 172 177 194 123 106 212 194 211 181 90 195 98 190 189 100 95 95
303 271 263 256 256 249 241 227 213 207 213 196 199 197 200 202 196 202 226 213 209 214 205 175 193 198 209 203 188 180 193 188 190 213 187 193 192 197 120 181 176 204 173 190 93
289 250 247 234 256 258 249 249 210 210 212 213 204 196 214 197 197 214 217 214 206 213 214 165 201 199 179 192 190 194 163 185 225 210 212 222 232 185 181 98 93 91 88 90 199
276 269 276 261 260 247 252 248 243 214 206 212 199 210 216 221 226 218 212 213 203 209 212 196 201 195 210 177 177 233 203 219 176 231 210 202 226 220 206 215 98 95 197 194 131
284 276 265 263 258 255 251 251 242 226 229 205 239 278 264 250 241 238 219 216 207 203 205 209 202 201 214 218 213 220 179 228 223 132 93 216 227 163 201 237 222 154 127 87 206
281 281 275 263 255 249 244 237 236 214 292 292 276 264 248 241 237 232 219 217 211 202 208 201 207 190 182 186 230 201 226 189 229 222 223 228 139 211 96 215 235 250 200 198 91
274 271 261 261 249 234 236 230 222 297 284 268 260 251 239 237 235 229 220 217 205 204 203 201 202 206 205 204 189 208 218 230 229 238 232 236 100 218 215 161 196 238 267 238 253
272 264 252 246 234 232 229 230 226 285 270 258 251 239 234 235 231 222 217 215 205 199 200 200 195 201 210 213 219 219 207 233 224 233 239 237 90 145 191 96 214 98 179 258 250
272 264 258 244 234 231 239 225 216 278 266 253 242 240 235 232 224 222 219 219 208 206 203 197 203 199 206 209 211 213 241 231 244 237 232 241 236 228 187 202 218 187 111 245 114
244 268 258 243 239 232 232 220 221 269 258 254 243 240 231 128 164 214 217 217 213 207 211 208 205 204 210 216 215 226 232 231 219 236 236 236 242 227 227 222 215 199 234 290 290
236 246 264 245 243 234 231 230 223 260 258 234 245 241 235 231 228 135 225 218 213 215 211 212 204 208 210 217 220 226 229 231 247 238 249 220 239 238 230 222 214 201 232 248 276
226 242 247 272 254 240 229 232 225 216 266 250 235 237 236 234 222 214 224 221 225 221 207 210 210 213 215 218 221 233 234 235 240 240 234 232 244 243 233 224 214 189 184 269 92
254 231 237 245 269 248 238 237 233 222 215 261 246 235 241 228 233 231 233 230 226 225 229 227 227 230 229 231 226 228 238 239 243 242 248 241 249 240 233 225 200 212 231 257 258
272 259 237 231 252 265 245 238 236 222 213 215 269 253 248 246 239 237 239 243 236 236 238 232 233 237 250 245 250 264 254 240 243 258 249 254 122 229 231 215 208 209 249 251 225
514 285 258 240 229 248 259 246 241 229 216 214 210 159 250 268 264 259 253 247 246 235 225 221 230 231 229 232 248 278 266 269 263 259 263 253 253 248 204 208 204 245 246 243 150
486 456 282 255 237 238 249 214 245 236 223 209 218 215 211 199 207 216 218 212 207 207 208 217 210 230 245 300 290 286 284 277 276 274 84 282 114 181 169 212 234 235 239 161 216
461 475 340 274 253 230 241 250 215 225 239 210 215 215 207 206 222 219 209 207 209 207 216 211 248 284 279 274 275 272 267 267 271 274 248 258 71 97 206 210 223 240 235 239 235
495 412 378 280 262 237 229 231 225 222 215 237 211 215 214 218 184 216 215 208 210 225 169 275 283 263 247 241 245 247 247 244 243 252 251 258 73 213 207 155 216 222 228 227 235
396 363 342 293 265 262 235 238 232 226 233 210 221 215 214 208 203 207 200 224 210 241 286 269 233 234 243 254 358 357 374 406 426 339 333 209 288 158 94 173 191 210 223 225 236
388 347 344 364 272 270 233 231 230 234 226 226 224 218 213 208 208 214 208 216 245 275 251 228 237 283 263 297 320 348 359 365 360 356 377 385 388 393 202 216 189 157 129 224 231
345 333 323 320 319 306 261 231 233 227 216 227 219 210 214 212 214 223 238 251 267 229 242 285 261 258 248 294 276 288 295 306 377 356 353 357 397 374 356 338 131 204 211 96 227
340 335 323 321 326 320 269 250 225 184 228 221 219 225 215 212 209 237 255 256 227 288 277 264 259 279 265 269 264 278 280 288 295 374 381 368 374 399 337 330 260 260 218 235 235
328 323 326 313 310 307 316 143 175 244 235 222 221 222 219 226 232 261 239 219 263 270 259 257 251 247 258 251 249 265 269 279 285 326 389 392 373 358 322 322 312 284 272 268 252
309 310 296 305 303 310 315 332 324 256 240 236 229 220 226 244 281 226 216 241 260 258 252 244 237 249 245 251 249 241 252 264 272 311 418 435 378 332 321 312 313 313 294 280 299
317 305 308 314 319 322 309 331 334 333 253 250 248 250 259 283 225 206 271 179 166 151 242 234 238 239 232 145 252 253 259 251 271 281 285 355 336 330 321 312 308 314 316 275 255
291 296 290 294 301 317 323 331 315 303 299 293 290 270 264 229 213 280 262 260 192 188 184 243 231 225 240 220 233 229 247 239 261 269 269 275 285 276 271 275 273 261 262 261 256

GFSSW_2pvu_pres_033.txt.gz
Presure
258 269 261 260 269 224 230 247 238 226 221 218 212 215 209 217 206 201 193 188 195 184 189 189 199 203 205 190 208 193 175 179 222 230 200 231 229 86 225 225 224 86 231 221 163
277 270 265 268 273 262 255 253 227 237 237 220 211 217 215 210 230 219 217 214 202 200 201 198 199 190 177 202 185 202 205 222 210 216 218 226 216 84 202 204 185 210 89 139 93
306 275 281 267 242 256 258 251 254 242 222 231 216 207 223 203 219 217 224 222 215 235 238 234 208 210 223 198 168 181 216 203 191 83 214 201 161 207 183 199 200 183 158 155 89
336 321 283 271 287 281 260 252 239 250 241 233 231 215 207 215 203 199 217 211 213 212 202 212 223 219 216 217 218 147 183 199 164 162 105 180 186 188 188 85 99 205 82 105 116
311 307 307 309 314 296 283 268 242 242 246 238 231 226 215 206 210 209 207 206 206 206 190 197 229 215 206 215 212 198 185 184 188 214 213 200 174 177 191 179 163 191 187 83 199
302 319 300 305 284 281 293 264 261 253 245 241 239 237 208 209 211 200 203 197 206 207 207 201 224 212 210 213 217 175 204 201 198 185 215 204 186 169 200 218 203 166 87 188 99
255 294 315 304 288 280 284 266 252 235 246 241 247 237 234 216 213 208 206 209 207 202 204 203 181 222 208 208 213 212 173 195 185 210 213 188 172 176 199 242 231 209 212 228 94
265 276 289 312 282 284 271 256 269 255 260 244 242 245 242 238 216 205 206 210 206 204 214 221 224 238 211 201 208 206 214 195 207 213 229 212 196 113 99 157 221 226 213 110 212
259 242 268 241 296 276 280 259 267 262 258 251 245 247 243 230 226 226 206 205 211 218 231 235 238 241 212 201 206 211 206 213 204 187 189 222 216 229 155 195 230 219 222 220 218
239 252 237 276 285 256 287 274 264 256 244 242 225 230 220 210 211 214 221 224 241 244 241 238 237 234 212 200 202 206 205 207 204 213 195 206 219 203 247 231 241 233 225 218 214
243 242 246 237 242 280 277 258 252 242 238 223 228 211 285 280 275 273 267 257 201 242 238 238 230 219 216 209 205 205 205 207 202 208 220 224 222 230 228 247 235 232 233 103 211
257 256 241 252 238 272 268 257 244 238 230 221 227 222 282 273 264 258 166 244 239 234 231 230 219 212 216 209 199 205 208 203 209 209 219 219 226 227 223 236 232 235 238 232 226
495 273 257 244 241 248 263 255 242 233 232 237 226 203 274 266 255 248 246 239 231 231 231 220 217 220 218 219 213 208 213 213 217 213 216 218 222 225 223 235 236 226 227 233 158
477 525 256 253 237 275 265 257 241 234 232 234 226 218 263 260 251 249 243 240 232 154 228 219 214 215 217 218 221 214 226 228 220 224 226 231 246 223 234 223 231 231 209 223 230
541 502 314 255 239 241 267 247 247 235 224 234 228 220 265 257 245 239 246 235 218 224 224 216 222 225 222 220 228 233 231 230 236 237 246 248 250 252 239 235 225 219 221 231 232
488 475 501 268 247 235 249 237 262 239 236 226 232 221 212 254 241 242 237 237 236 231 229 228 226 226 231 236 240 245 248 254 257 259 271 257 254 253 250 237 232 246 216 223 229
476 468 493 298 256 246 231 271 259 249 224 232 223 223 213 234 253 247 242 240 238 238 236 235 231 232 239 245 232 214 220 219 231 246 265 263 272 267 253 248 168 247 234 228 233
433 509 480 315 263 257 239 239 267 250 236 227 228 222 215 213 208 207 252 253 213 257 259 260 224 221 218 177 212 228 231 238 289 321 323 297 243 75 275 257 241 237 231 240 229
452 519 489 389 273 264 243 226 256 248 244 235 226 226 225 212 216 214 213 204 198 207 218 214 216 196 216 220 222 238 282 276 269 281 282 290 272 290 276 123 127 243 234 233 242
523 454 489 382 289 264 259 234 232 251 251 245 232 235 222 215 216 216 212 207 211 218 210 209 209 223 221 242 264 251 279 302 323 314 347 313 393 223 88 230 256 272 245 248 225
446 449 418 386 347 283 270 239 227 240 249 256 232 229 234 218 209 216 209 218 216 209 215 208 219 259 264 239 277 274 264 310 276 309 331 355 402 383 93 262 262 263 223 240 214
389 398 382 353 366 309 276 260 231 232 242 266 232 215 209 231 215 213 216 211 198 208 219 219 264 240 285 272 259 290 294 290 293 316 338 359 409 352 378 232 124 258 266 236 223
363 347 341 351 347 329 280 271 233 224 231 231 222 245 221 215 215 214 222 207 212 214 216 258 235 273 258 261 243 276 252 258 283 308 307 348 351 351 364 386 406 209 216 240 229
349 344 343 324 319 330 323 280 197 230 230 228 228 219 226 220 219 202 206 219 213 209 254 218 267 268 259 251 254 252 254 260 313 314 313 383 373 419 345 395 392 364 251 243 234
334 327 317 198 313 311 319 288 254 143 213 229 229 229 216 222 197 216 222 220 230 251 220 266 267 245 258 241 247 250 248 249 258 305 319 399 429 403 400 348 348 360 358 251 233
330 317 316 306 308 322 327 321 283 240 236 226 227 224 228 219 218 223 218 229 250 207 161 250 252 231 236 91 91 246 244 237 259 273 301 329 344 335 327 329 330 336 334 180 251
323 314 308 314 310 302 308 312 320 337 243 232 221 221 222 226 226 225 234 258 188 261 198 181 226 262 235 221 234 229 234 257 256 259 268 282 289 297 310 315 310 305 259 320 284

GFSSW_2pvu_pres_036.txt.gz
Presure
309 300 281 280 287 267 244 250 226 250 233 228 216 221 202 200 198 208 217 186 189 199 182 185 187 173 170 168 180 163 155 159 145 188 142 151 169 162 169 143 126 162 117 103 127
320 286 293 266 277 267 257 255 247 258 233 243 229 223 221 206 202 195 197 196 193 187 216 188 186 194 180 176 175 182 192 191 170 176 189 175 205 196 123 210 217 182 209 170 220
364 328 311 279 270 273 245 267 256 253 257 231 243 225 222 226 211 211 206 192 195 192 193 191 200 200 200 189 199 189 190 187 192 178 212 186 212 207 219 206 205 118 224 224 226
318 335 350 311 278 262 266 242 272 250 251 237 224 223 227 227 216 217 213 212 209 195 200 205 203 199 192 181 189 196 193 197 193 205 198 201 220 205 227 211 218 83 210 162 213
289 276 323 333 339 279 265 262 276 259 266 266 241 221 237 202 219 217 209 216 212 215 211 211 224 206 232 226 220 195 199 199 219 227 217 227 199 213 200 181 199 178 185 206 152
272 284 292 312 320 326 286 274 264 261 235 261 264 243 229 218 232 223 228 197 205 211 216 207 215 211 215 228 204 205 220 215 216 218 219 197 217 186 168 164 185 221 182 106 184
275 270 262 286 301 311 324 326 282 275 266 260 249 256 233 224 217 221 213 224 208 205 213 203 199 199 202 216 219 196 201 219 218 212 215 181 209 66 198 195 169 209 212 186 175
284 275 271 254 290 294 302 307 311 300 312 288 263 262 237 228 225 220 225 216 222 209 202 205 213 209 204 203 198 188 199 214 205 213 211 215 211 206 222 219 210 205 169 213 203
281 282 277 270 269 259 280 293 303 287 292 283 267 260 241 233 232 228 228 223 216 214 202 209 207 204 197 206 209 204 194 189 197 210 210 212 210 214 207 177 215 226 179 206 173
258 264 274 271 263 276 284 283 297 286 269 262 274 256 246 239 228 226 224 229 231 215 214 205 205 204 208 207 204 207 185 178 233 204 209 212 213 210 218 211 194 224 220 220 112
319 266 260 261 264 250 279 288 298 282 269 264 251 250 262 233 239 235 235 239 229 230 216 209 209 203 208 204 208 214 222 229 238 210 208 208 208 208 205 144 200 210 228 208 201
552 590 303 265 260 263 251 284 273 278 274 270 257 249 260 247 247 248 242 244 242 239 231 223 214 214 210 207 217 222 227 237 241 233 213 209 209 208 208 213 218 217 194 192 227
534 558 490 289 262 256 265 215 268 274 280 269 258 264 264 259 252 238 233 184 225 222 218 216 216 212 217 220 224 230 240 239 234 232 211 209 211 209 209 205 209 211 217 213 217
483 502 533 449 289 261 257 272 266 275 272 266 260 255 243 237 223 228 214 219 227 228 228 227 227 228 257 241 244 242 239 236 228 227 223 93 182 202 207 209 204 202 211 212 220
431 471 508 474 295 262 252 248 257 271 268 260 253 235 237 217 222 209 237 273 266 264 263 260 257 253 249 248 245 237 235 228 228 229 229 228 235 189 201 208 207 215 223 221 221
454 471 496 479 305 274 250 250 268 257 264 257 243 232 230 223 219 223 270 265 258 254 250 250 247 244 240 238 238 235 224 225 225 230 240 235 241 85 226 223 215 218 224 231 231
426 445 460 471 312 283 252 248 267 245 264 253 238 229 226 227 215 281 266 257 255 249 245 247 240 235 229 229 230 228 226 229 234 237 245 249 261 258 229 233 247 257 201 259 258
429 447 460 473 352 291 254 244 235 272 260 246 226 234 228 222 220 255 269 249 247 241 235 233 240 239 241 239 241 238 239 239 166 172 245 220 230 92 130 91 110 158 237 175 239
444 450 509 506 354 294 257 249 220 258 260 235 235 229 230 227 219 215 266 254 246 243 242 240 240 243 245 244 245 225 218 220 225 233 238 245 262 107 88 109 116 104 131 156 79
452 508 487 429 352 297 262 255 230 228 261 255 233 237 232 227 220 214 208 205 211 237 228 218 209 206 222 220 221 206 220 226 234 321 318 311 321 308 167 93 128 108 296 306 310
446 488 506 380 351 289 264 244 239 235 259 260 246 230 231 225 218 215 212 216 218 214 210 207 209 223 202 210 220 221 238 293 264 267 260 320 298 289 312 158 377 432 212 284 309
432 462 471 379 342 291 257 250 240 245 233 257 241 238 227 221 221 221 213 211 218 214 209 217 216 208 206 218 228 283 267 254 244 288 299 308 299 288 308 200 79 84 306 273 305
409 489 370 356 361 299 266 251 241 242 230 258 248 247 226 226 224 220 218 210 211 211 218 209 209 211 215 290 256 259 269 260 260 259 293 321 334 306 310 318 351 361 84 287 297
401 429 354 340 338 308 271 243 244 237 224 239 227 241 236 211 221 229 220 219 216 217 218 220 207 216 280 261 249 256 245 249 242 260 290 193 330 354 377 357 353 340 338 342 291
369 448 343 332 335 312 288 260 221 154 224 222 239 258 232 228 220 217 237 217 220 207 214 222 243 270 245 228 252 235 254 239 249 258 283 305 317 396 398 374 371 363 360 412 233
367 343 327 363 325 321 310 283 259 234 217 218 233 235 247 233 233 227 229 220 212 220 220 238 197 238 248 239 225 243 228 236 243 250 266 283 300 310 342 353 359 382 388 396 251
334 327 326 337 333 323 319 318 289 254 232 222 224 235 230 228 222 212 211 205 219 224 226 181 198 153 240 246 241 230 230 222 235 238 256 256 280 295 298 309 325 338 157 376 248

GFSSW_2pvu_pres_039.txt.gz
Presure
345 345 304 295 280 274 280 275 267 257 258 237 238 224 226 219 211 205 197 184 186 183 175 182 177 158 160 159 168 166 149 156 153 166 152 158 147 152 160 165 145 160 167 161 94
299 307 347 316 307 278 269 276 284 263 253 257 244 216 224 214 216 205 196 211 171 181 172 191 166 180 179 172 162 169 158 160 170 157 155 167 141 146 120 157 163 165 164 157 170
297 299 294 355 353 303 279 280 274 282 256 251 253 243 222 227 222 202 205 202 198 195 182 183 184 186 203 182 180 178 188 159 157 174 168 162 150 166 155 161 171 165 177 177 172
296 294 288 293 344 348 296 267 287 258 267 253 250 248 249 208 223 219 207 205 201 204 199 173 182 186 176 198 166 179 163 173 182 175 189 171 182 164 198 145 180 165 150 200 196
294 290 283 281 289 332 351 282 280 263 256 256 250 248 245 240 238 223 208 212 197 196 203 193 201 199 190 207 192 207 197 202 197 206 206 200 194 164 146 186 189 203 195 188 196
319 293 287 282 278 289 327 343 281 265 268 269 262 259 235 247 231 235 227 207 193 199 200 202 196 199 194 194 190 180 183 189 191 190 196 198 191 182 198 209 196 216 229 197 214
294 320 294 281 278 281 293 319 321 277 259 268 238 260 249 256 250 231 227 226 216 209 204 201 201 197 194 196 195 195 196 198 191 202 186 188 196 202 204 207 181 225 224 222 220
289 286 303 300 284 276 278 299 315 305 275 258 254 240 256 260 251 244 227 228 226 218 221 215 212 206 207 201 211 220 205 215 216 234 224 225 214 186 226 224 99 216 219 221 212
275 282 287 258 304 283 268 244 300 304 321 272 263 257 258 251 258 247 230 222 215 221 215 214 212 212 207 209 209 207 215 206 214 222 229 215 206 209 207 219 217 217 221 217 206
294 287 272 272 264 285 278 264 281 293 312 313 295 267 252 250 250 257 253 223 223 228 217 220 213 214 222 198 202 208 212 212 200 206 212 206 206 192 203 216 170 211 220 224 210
584 565 561 563 272 259 266 275 259 293 301 290 297 306 279 259 239 241 260 246 215 223 217 219 218 209 214 216 208 203 204 211 205 212 207 199 207 184 185 199 206 206 211 211 152
509 504 533 569 474 276 259 265 273 273 273 280 284 286 291 290 286 269 243 249 228 225 222 212 206 214 210 214 215 207 204 211 211 200 214 210 209 205 188 191 214 201 209 211 212
452 446 471 536 492 290 267 261 261 248 281 289 283 272 277 272 269 274 265 254 240 220 222 220 218 221 219 216 217 215 208 202 210 209 212 212 210 219 223 225 241 226 208 208 210
440 448 437 489 498 395 270 255 248 249 271 282 272 272 263 262 258 267 252 255 239 229 222 222 224 224 224 225 224 218 217 213 211 206 212 214 219 222 220 229 239 226 211 211 215
449 431 436 457 478 462 288 254 250 254 270 283 278 278 262 255 252 256 247 254 231 243 230 233 237 238 242 237 231 231 227 216 214 214 220 220 229 230 224 233 229 228 210 218 221
443 427 443 473 493 495 292 256 251 254 281 272 280 263 262 266 254 248 243 263 264 246 252 241 239 235 236 236 233 228 222 218 220 225 229 226 242 246 63 127 232 217 219 221 221
414 413 430 465 501 435 290 258 247 264 270 270 273 270 272 263 257 257 252 250 245 234 230 226 220 218 217 220 222 222 223 248 249 260 262 259 259 243 200 109 223 185 210 233 229
413 452 439 472 463 322 292 263 252 263 263 270 271 264 265 255 249 237 236 224 226 214 221 231 273 264 262 263 260 257 256 252 256 248 242 246 243 95 76 116 143 142 253 255 253
429 466 447 482 505 312 284 264 255 257 246 230 262 252 254 244 231 232 215 223 207 235 275 270 263 256 251 247 247 247 248 245 247 164 168 245 242 250 204 105 99 232 100 111 247
458 470 471 471 339 307 288 266 246 232 253 269 258 253 248 234 227 232 229 214 283 278 264 250 248 244 243 246 250 243 230 232 225 220 217 227 230 230 155 104 77 212 140 98 130
465 429 474 500 323 305 294 262 249 243 251 268 258 250 239 230 227 232 220 219 282 271 179 167 244 243 227 211 201 220 219 209 213 220 229 273 270 267 274 295 290 280 199 113 303
426 446 487 330 310 308 286 256 251 246 231 266 253 247 234 235 229 222 215 213 210 201 214 220 213 215 206 216 215 214 208 214 224 276 264 270 279 286 297 198 105 82 97 90 82
447 480 374 140 311 306 287 251 245 243 227 266 254 244 232 228 220 225 220 213 211 213 217 218 218 216 216 210 195 217 229 263 264 263 251 250 280 304 336 134 333 339 324 339 308
456 376 341 339 323 321 273 253 249 252 224 264 251 249 229 229 227 222 219 216 213 212 212 211 216 211 210 208 216 247 251 249 249 243 245 248 294 291 319 330 343 371 386 351 344
379 376 331 316 330 306 278 256 221 233 224 261 252 246 242 228 226 222 223 221 218 216 215 216 209 214 212 217 243 259 239 234 228 246 240 245 291 293 310 330 347 382 358 352 364
371 362 361 330 323 300 293 255 250 229 148 227 253 253 239 236 233 224 225 227 227 220 218 216 216 216 215 257 228 239 228 229 246 247 251 241 277 285 292 314 344 371 390 312 385
381 354 337 349 312 304 290 240 243 243 233 230 240 247 233 242 238 232 225 216 212 234 228 216 219 215 195 157 243 228 227 228 230 229 247 237 266 265 272 287 321 353 389 400 401

GFSSW_2pvu_pres_042.txt.gz
Presure
322 328 320 325 371 292 298 292 262 275 279 276 273 246 222 236 223 212 198 210 177 175 178 188 173 173 168 171 171 164 169 163 160 167 168 162 166 149 164 168 160 142 165 162 144
344 322 321 310 312 351 297 307 281 253 265 277 267 251 190 225 235 219 224 216 197 182 178 184 186 170 175 153 166 166 153 153 166 172 160 172 181 158 173 159 149 168 153 145 166
331 331 305 315 306 302 343 301 292 283 266 265 276 258 245 246 220 230 216 215 191 191 187 190 185 194 176 173 142 171 170 177 167 168 181 177 162 171 158 172 158 173 172 148 167
333 311 328 307 305 299 294 331 314 296 273 268 266 267 254 259 241 218 220 216 215 222 211 203 186 180 179 177 177 183 178 172 163 167 175 157 167 159 165 164 157 167 137 164 169
333 326 214 309 307 302 295 292 330 326 293 256 269 269 257 254 257 224 229 225 212 211 205 195 200 196 190 183 176 183 176 173 181 176 175 169 161 179 177 155 174 104 130 167 151
320 329 322 303 298 293 292 290 294 326 319 279 271 277 265 252 252 249 228 239 218 211 197 211 206 197 188 182 177 169 182 200 182 199 190 179 178 188 130 172 179 174 180 176 188
331 301 318 318 301 301 287 291 281 294 328 330 279 270 273 258 242 247 245 233 239 222 207 194 213 200 190 200 207 201 190 177 182 189 192 198 205 202 174 181 180 181 177 197 207
293 277 276 290 313 300 300 277 282 281 310 327 279 267 283 271 248 241 239 242 239 222 228 211 198 192 202 201 196 185 198 194 188 179 186 190 191 195 189 201 208 208 196 205 205
314 375 412 285 280 285 289 293 284 277 284 312 315 264 271 266 259 255 235 236 246 238 229 216 212 193 187 204 205 196 200 205 200 198 203 205 199 197 197 193 183 60 214 206 213
614 593 565 570 617 299 298 301 286 270 278 304 322 279 264 264 266 250 256 232 243 223 234 229 220 213 187 202 200 195 203 203 203 197 201 201 199 202 196 196 205 236 218 224 222
434 445 509 498 548 589 301 271 287 279 281 280 301 325 274 259 253 268 251 243 239 241 224 231 226 220 212 197 201 201 188 198 200 203 205 209 209 206 211 230 210 214 233 219 206
471 471 454 438 495 556 367 280 282 281 263 276 297 308 309 266 258 255 261 251 244 247 234 234 226 227 226 220 211 211 211 212 215 215 215 211 212 212 218 219 213 204 210 204 203
488 432 431 425 457 520 482 292 264 277 268 271 286 294 305 290 262 251 253 243 248 252 259 237 231 224 225 223 225 218 219 214 212 212 216 220 205 209 208 209 202 207 206 202 208
471 439 429 432 437 507 468 298 268 273 261 269 266 298 296 307 293 265 258 249 246 237 247 252 229 224 223 225 218 223 218 217 218 215 213 218 217 211 210 202 206 202 202 211 209
470 449 438 432 431 459 466 294 278 264 263 261 236 290 288 295 294 302 297 265 255 250 244 245 258 227 225 221 225 223 221 219 216 219 222 219 222 204 209 207 203 209 210 209 214
429 407 407 440 456 481 469 303 287 261 265 262 235 282 284 274 274 279 281 286 290 296 268 245 250 251 233 230 227 224 223 220 216 222 228 221 226 76 183 210 169 215 210 219 230
410 414 440 440 460 501 362 321 287 260 259 254 240 285 281 263 261 258 260 264 257 263 268 263 241 247 234 230 226 227 225 227 231 232 229 232 234 225 150 129 152 84 220 174 180
419 428 426 443 467 446 336 319 281 264 256 247 250 238 272 263 258 255 258 255 252 248 248 248 253 246 248 237 233 232 229 237 244 247 243 243 240 230 102 72 132 135 159 210 259
456 466 428 452 478 378 336 306 270 257 246 236 256 262 268 273 257 254 246 246 250 251 255 247 260 261 252 243 253 249 240 229 223 222 224 223 224 259 253 110 91 126 110 126 157
439 444 453 475 489 351 318 291 260 252 243 235 260 281 266 260 256 254 259 256 256 255 252 253 250 246 240 235 228 221 242 265 263 260 255 256 212 249 245 244 238 103 125 127 154
427 442 475 527 343 353 310 288 253 240 244 234 264 272 273 272 267 258 250 242 240 239 234 232 227 215 225 265 269 256 248 250 250 237 234 223 215 220 224 226 259 279 235 105 103
420 471 461 387 299 314 312 288 256 232 245 233 237 270 257 256 248 240 233 230 233 217 225 210 276 274 269 255 247 240 229 216 218 216 217 222 220 261 255 257 315 314 99 88 310
475 504 343 334 330 188 314 254 253 230 241 234 264 259 250 248 236 227 225 230 226 219 279 273 266 267 239 225 218 214 209 216 218 230 256 252 249 256 283 265 317 331 201 219 352
527 335 331 326 324 311 293 251 252 238 238 240 266 253 248 241 231 222 225 225 218 212 236 208 206 219 216 218 215 218 218 216 235 247 266 256 259 265 273 272 213 326 317 337 358
406 332 331 330 319 314 280 260 171 207 226 233 262 255 246 238 227 223 228 219 215 212 209 211 211 215 213 216 223 219 211 243 245 244 257 254 134 255 273 274 311 333 321 368 393
345 334 345 319 327 264 287 259 237 143 146 220 256 250 245 232 226 218 224 224 219 210 209 211 212 220 214 216 220 251 232 235 237 238 242 232 237 248 256 285 297 324 341 395 320
352 341 323 329 318 319 282 253 236 231 221 220 252 247 248 235 227 232 227 225 224 220 216 218 221 229 222 214 245 238 161 232 235 226 233 244 230 245 264 265 256 394 385 389 376

GFSSW_2pvu_pres_045.txt.gz
Presure
320 361 342 326 339 320 317 337 318 294 281 279 281 291 254 219 229 177 212 199 202 181 191 182 180 180 176 177 178 165 175 176 168 168 157 164 164 158 92 123 124 106 134 134 149
283 367 347 336 323 335 319 308 333 292 298 273 273 278 287 248 200 231 204 191 204 202 190 186 184 177 186 175 153 170 176 171 175 177 176 164 164 155 143 158 155 111 89 100 142
280 361 351 334 325 314 320 317 323 326 298 276 269 272 265 285 253 238 237 208 165 198 194 192 197 185 179 175 177 176 167 174 173 175 178 178 173 142 143 158 165 168 141 166 153
280 347 347 347 323 320 332 317 309 308 343 297 281 276 274 258 277 231 247 225 204 219 194 195 193 183 197 186 167 180 182 173 175 175 170 167 170 175 177 177 170 166 165 124 172
330 145 346 342 340 313 310 323 313 302 301 316 289 287 272 272 253 275 230 236 201 192 221 214 196 194 214 183 182 175 172 163 165 164 175 172 173 163 166 170 181 181 166 165 174
268 371 328 329 344 331 315 304 309 305 286 300 316 305 278 259 253 263 269 236 226 223 213 215 219 202 194 201 193 172 175 176 183 186 175 156 174 172 172 164 170 173 172 174 175
370 334 179 283 143 284 323 313 297 306 295 285 312 292 292 271 243 248 268 265 244 214 220 219 211 216 212 202 189 193 190 184 185 176 177 182 168 151 164 169 168 161 161 156 159
352 323 579 585 440 316 290 320 300 292 295 286 294 267 295 280 257 253 262 260 257 242 211 222 218 211 211 219 210 204 193 190 184 188 182 181 179 183 182 183 171 176 178 168 184
325 516 490 470 454 584 334 299 312 295 294 288 288 284 345 288 271 260 255 249 254 256 237 225 217 215 214 211 208 213 211 212 204 207 196 210 187 185 176 185 179 191 200 194 198
552 538 489 474 462 433 565 336 292 285 274 294 283 283 337 312 284 266 257 251 243 253 249 241 231 207 212 205 211 205 214 205 201 194 205 198 188 182 186 189 202 183 181 95 175
472 457 438 455 454 464 518 570 305 290 286 298 281 274 308 319 290 280 255 255 245 246 250 250 241 209 210 209 201 200 208 207 167 209 204 194 202 199 194 190 192 200 204 200 198
561 455 447 435 436 434 483 558 337 277 284 288 283 276 288 321 307 278 260 269 250 240 252 244 240 237 216 236 209 205 210 209 200 212 207 206 206 197 204 199 206 205 206 202 203
507 466 438 428 424 419 447 559 545 276 284 288 283 266 270 315 311 270 270 274 276 245 242 247 244 246 235 230 226 224 203 207 208 205 202 203 202 206 198 197 199 199 198 199 202
434 429 437 448 418 420 523 558 477 275 271 289 282 265 265 307 315 274 257 265 274 261 250 241 243 233 236 238 247 224 226 219 212 211 205 199 192 196 191 192 192 95 212 211 198
429 422 409 419 443 441 506 470 368 280 273 284 274 264 266 297 304 310 257 255 259 258 253 249 250 241 231 238 239 235 239 236 225 223 218 213 209 210 201 203 205 208 208 207 217
440 438 427 449 458 455 507 361 340 276 267 289 274 265 259 289 301 313 264 254 254 251 258 250 244 245 249 248 240 237 239 236 234 234 226 225 228 219 211 214 217 217 217 220 226
482 475 459 441 460 477 388 350 316 282 265 273 270 264 251 284 299 301 288 258 250 250 243 253 255 250 244 250 254 238 237 239 244 231 233 230 222 226 219 215 216 219 223 226 229
445 450 437 449 468 337 346 344 310 281 259 271 251 259 257 293 300 291 294 282 262 255 246 249 244 236 245 247 246 255 238 240 239 229 229 223 225 224 217 218 227 113 213 154 213
429 460 453 464 479 335 349 324 299 259 251 270 262 239 277 287 283 276 281 288 291 294 287 268 257 248 253 254 255 249 256 257 250 235 235 232 230 231 221 103 213 111 243 247 104
439 487 483 487 350 127 335 325 287 254 254 252 252 237 272 276 269 272 265 265 264 267 265 266 272 276 270 271 267 234 240 242 245 241 240 230 225 230 249 249 236 150 226 176 90
473 505 506 346 335 343 327 325 255 253 259 243 238 265 281 268 259 256 255 257 260 257 252 249 249 247 255 251 249 248 250 251 245 244 247 239 228 221 254 266 259 248 248 111 194
497 480 355 352 338 325 328 321 255 245 246 241 245 230 275 264 264 263 254 251 245 244 245 249 252 260 265 257 247 243 242 235 223 220 257 260 247 248 240 235 236 232 272 276 81
513 373 358 357 325 333 328 262 257 247 246 239 264 272 275 266 265 255 261 257 250 244 242 242 243 237 230 227 219 226 267 256 247 241 236 230 226 236 255 264 270 308 283 314 308
443 359 359 343 341 344 302 262 253 249 237 239 265 272 272 272 261 248 240 235 234 233 233 225 221 217 234 261 257 249 239 228 223 221 227 252 252 270 255 258 287 259 191 327 334
369 355 354 350 337 325 267 257 239 200 237 235 220 253 252 241 239 235 231 227 229 228 220 272 259 255 246 239 229 216 220 210 219 245 239 251 243 249 257 279 208 246 350 414 377
359 369 346 362 360 273 269 260 244 239 153 257 260 247 247 239 235 226 222 225 223 220 215 214 211 207 205 221 216 216 218 238 245 228 232 250 244 244 250 252 256 271 271 85 452
362 356 354 344 338 302 252 242 240 237 231 244 259 243 241 238 232 224 220 224 219 216 212 214 208 205 210 215 218 230 245 235 241 166 226 240 235 235 220 254 244 217 281 268 289

GFSSW_2pvu_pres_048.txt.gz
Presure
306 281 315 297 325 363 351 348 331 338 343 290 317 285 291 268 237 249 216 232 175 192 182 182 174 164 164 165 175 180 178 168 162 158 154 167 148 160 124 163 147 146 146 151 156
280 304 323 317 234 333 191 352 331 321 329 316 319 274 271 286 258 214 240 220 209 215 199 184 193 169 163 168 171 164 164 165 168 172 170 157 147 148 152 150 157 90 153 138 143
303 293 321 347 337 178 350 317 347 328 313 324 324 317 280 275 285 239 219 204 183 220 226 213 220 182 177 162 158 156 152 157 181 175 179 176 170 169 132 138 143 152 152 98 137
304 336 334 356 130 357 363 342 329 336 310 301 316 314 282 273 279 270 247 228 198 192 218 225 224 202 182 169 166 161 157 160 162 174 180 179 181 178 169 164 159 168 164 156 156
307 302 398 358 175 285 342 197 340 314 315 317 332 318 286 264 265 270 277 240 215 209 218 192 205 215 196 185 186 183 165 170 185 167 164 166 174 177 170 174 180 181 168 172 160
355 387 349 428 496 369 310 308 184 328 324 310 301 331 304 276 274 260 270 263 241 196 221 218 194 209 212 200 194 175 182 198 168 177 170 168 174 171 169 179 178 179 175 162 171
348 351 481 571 530 562 512 118 116 315 307 311 305 300 300 289 272 256 280 268 243 232 209 225 203 219 175 211 193 198 187 180 184 173 176 174 172 169 177 174 174 156 175 173 160
377 336 497 540 534 541 500 432 310 288 302 316 304 301 302 278 285 267 258 267 268 251 211 220 210 217 216 192 201 203 199 193 184 194 188 177 167 169 179 167 172 170 169 175 173
356 507 509 499 510 502 529 455 345 297 282 307 309 300 283 337 283 264 256 262 259 259 260 234 219 210 218 209 203 184 201 184 196 193 193 185 180 184 171 165 160 163 173 184 170
351 578 505 472 465 460 463 449 559 310 293 298 307 300 294 279 318 277 270 274 265 252 267 249 210 216 217 215 212 191 212 214 196 189 190 190 184 192 174 175 175 178 185 171 181
482 472 484 453 440 431 461 441 462 320 300 293 312 299 287 278 333 296 269 262 262 262 258 270 248 212 222 212 213 211 217 212 215 218 206 202 194 189 194 191 194 184 181 187 191
462 451 441 454 442 433 447 451 571 324 302 289 300 291 286 274 280 318 266 279 263 254 249 252 267 245 239 223 220 214 211 204 215 213 214 211 210 203 200 189 205 209 208 207 197
474 446 430 424 444 426 437 465 571 347 297 294 294 283 286 278 281 287 288 281 271 241 244 242 267 263 249 238 234 212 206 212 214 213 210 209 206 204 211 199 206 201 197 198 196
445 476 443 434 407 449 432 511 578 353 294 291 293 276 286 281 271 307 319 273 286 259 248 242 251 267 264 254 241 233 201 207 204 211 200 218 201 208 203 203 196 206 204 206 203
438 444 471 439 440 452 470 549 540 332 295 280 281 256 283 274 268 320 317 283 268 281 250 245 244 243 245 262 253 239 229 218 205 196 201 205 191 183 198 200 205 204 197 199 209
438 440 465 448 452 460 501 545 426 330 296 273 271 284 281 275 264 314 300 293 268 269 259 253 252 243 241 245 255 252 239 239 219 231 207 206 203 191 199 200 212 210 207 207 205
443 456 455 461 463 489 416 419 376 332 281 272 281 281 270 256 259 310 307 285 274 270 266 253 252 254 239 243 242 253 251 242 238 240 232 232 229 217 207 206 207 208 208 209 211
455 478 470 469 502 365 372 358 355 320 277 264 284 275 263 262 265 292 301 283 268 263 266 268 268 268 256 237 239 241 243 232 239 243 245 250 248 248 146 229 227 211 223 224 222
492 495 450 454 368 354 341 362 355 265 257 271 283 259 266 253 281 289 306 283 261 261 255 256 262 260 260 260 254 249 250 246 243 240 235 242 243 245 246 247 249 243 235 235 239
523 441 385 376 352 349 347 300 262 262 265 271 252 258 246 278 293 286 295 285 277 259 253 252 258 259 256 252 249 248 248 251 256 252 255 253 263 242 238 246 254 247 193 245 244
411 377 378 350 339 345 374 268 263 265 264 248 255 246 271 284 289 285 288 284 281 281 258 257 253 254 251 247 250 252 253 249 256 249 247 243 246 253 257 256 255 247 246 244 203
369 387 347 353 342 351 280 271 263 274 249 258 248 248 281 276 280 273 277 278 284 286 288 264 257 255 254 250 256 249 244 252 277 264 252 242 243 248 245 163 248 237 232 260 258
388 367 330 354 352 319 280 257 256 259 250 243 258 259 273 267 268 269 265 261 257 259 266 269 266 261 259 258 259 262 258 250 247 252 257 249 246 235 225 259 250 242 247 200 286
388 365 365 300 358 296 274 259 260 252 247 250 251 270 275 259 248 250 250 253 256 257 252 250 251 250 250 251 253 251 247 239 234 225 240 255 250 240 231 223 267 227 171 284 305
338 376 367 351 278 269 270 250 256 243 250 265 263 280 265 259 257 256 252 248 249 250 247 244 242 238 236 235 231 223 226 254 248 239 235 226 220 238 250 250 238 254 263 281 281
359 369 403 340 289 265 244 244 249 240 258 265 271 281 259 265 261 248 242 236 235 234 235 230 225 224 227 277 262 250 234 225 218 212 232 260 262 253 251 247 254 248 81 265 282
310 319 365 336 284 276 251 238 250 239 256 266 263 264 262 248 240 237 232 229 229 230 244 289 275 254 246 229 217 211 211 215 241 247 226 237 225 231 237 234 252 246 232 243 257

GFSSW_2pvu_pres_051.txt.gz
Presure
260 301 296 299 349 363 365 344 92 271 365 341 362 338 296 295 298 258 244 225 229 210 201 176 163 179 186 186 178 168 165 164 148 154 165 165 150 143 154 141 83 82 76 140 147
264 297 291 306 381 380 373 256 356 334 346 341 356 360 317 294 287 281 245 234 220 234 196 197 182 162 174 173 186 183 167 164 157 161 164 158 152 155 142 141 143 140 144 83 157
276 295 297 313 370 340 88 312 379 345 350 340 324 332 328 280 284 297 267 241 227 192 230 218 191 183 153 170 167 174 178 163 160 164 172 170 168 161 162 165 163 164 162 161 153
307 296 309 336 361 391 385 355 325 301 342 335 335 338 340 308 292 275 304 255 239 227 210 217 232 203 182 176 170 162 174 180 177 164 166 167 165 164 151 116 149 157 159 160 152
299 304 294 383 480 514 545 471 384 326 295 346 328 312 331 327 313 297 282 274 249 237 227 203 216 208 197 186 175 169 160 162 183 181 180 179 174 174 170 170 168 164 145 153 151
313 311 307 518 521 529 506 580 479 271 284 336 331 331 335 323 309 285 284 283 255 244 232 216 184 193 194 207 175 175 168 175 163 163 160 165 167 172 172 174 173 173 172 166 159
315 303 369 509 530 504 480 538 518 483 324 335 334 324 312 302 310 296 312 277 278 246 233 228 225 201 233 231 202 179 172 172 175 165 166 167 162 149 155 167 95 178 177 174 173
329 335 467 560 530 490 508 512 528 609 335 321 335 318 313 316 304 294 302 269 274 260 236 232 213 231 222 223 231 218 183 177 176 177 160 164 156 156 154 159 154 158 162 170 160
316 422 474 504 481 462 457 462 518 521 341 315 329 321 310 294 322 295 298 269 264 273 250 236 219 231 223 212 177 220 209 203 187 194 198 171 164 162 167 169 162 167 176 161 163
325 448 452 462 453 439 431 458 490 488 336 313 318 321 304 292 309 299 288 286 266 268 270 250 227 218 229 185 194 184 215 217 208 226 71 179 167 175 178 182 175 188 168 176 171
345 445 439 454 440 450 441 444 452 570 349 311 301 317 304 297 294 306 285 289 267 265 260 267 241 229 222 226 205 215 215 212 175 207 207 202 180 175 179 174 175 176 180 170 169
376 442 433 463 433 436 433 433 447 585 338 314 297 307 298 296 288 321 283 275 276 266 256 264 269 268 231 222 224 203 213 208 192 201 207 209 205 193 196 196 196 195 197 190 184
458 446 438 468 436 428 447 443 423 517 334 311 288 292 289 291 282 278 296 274 275 258 266 266 265 261 260 235 224 197 201 220 213 208 210 188 198 195 192 195 201 191 189 184 186
463 440 446 450 441 442 384 450 417 424 324 305 284 286 284 290 288 294 294 278 268 281 262 246 265 262 261 254 249 224 207 214 218 216 214 207 174 176 202 204 209 210 205 205 205
465 446 452 441 437 457 213 504 540 397 192 309 285 272 286 295 280 288 273 348 272 273 271 253 255 268 259 258 265 244 229 214 200 216 218 221 212 209 204 211 212 210 209 206 208
470 477 463 456 461 463 512 582 406 356 303 296 283 265 286 285 282 279 271 296 290 273 266 264 256 260 274 255 251 263 253 243 222 224 205 215 211 206 198 209 210 217 215 211 213
503 486 478 466 491 532 515 411 365 330 186 292 278 208 286 277 278 275 274 264 312 287 265 257 259 253 257 259 258 249 265 263 246 244 226 215 210 92 205 208 208 207 214 211 208
518 504 470 459 496 508 402 371 357 314 297 292 285 286 270 274 274 270 259 310 319 282 280 264 258 252 253 249 254 246 269 273 260 250 240 235 228 222 215 212 211 210 210 211 212
418 394 376 366 390 380 371 356 337 297 277 286 282 277 270 271 265 260 300 303 305 294 274 256 268 256 247 240 243 244 250 249 255 259 258 245 239 238 235 231 226 218 218 220 221
397 386 381 364 372 376 349 370 281 261 270 278 267 215 266 260 256 277 299 300 291 290 273 260 255 265 246 246 251 245 241 239 248 254 247 250 254 246 240 242 247 160 249 250 261
399 373 347 277 330 301 274 260 263 265 278 262 260 262 261 260 269 288 300 293 286 276 273 269 271 257 261 256 257 254 257 245 239 238 254 249 249 252 251 251 250 253 257 266 232
392 402 311 279 299 283 272 264 281 275 270 253 258 256 269 273 291 291 293 285 279 271 266 263 258 256 259 264 267 262 261 264 261 251 246 256 255 258 264 266 262 255 260 254 250
403 371 299 301 281 278 253 281 280 256 259 251 248 265 279 297 291 281 281 278 273 265 263 253 249 249 241 253 254 249 248 250 250 250 252 251 259 251 244 253 262 255 254 251 246
315 390 300 293 284 266 264 279 259 263 255 249 255 268 271 272 269 277 279 279 280 276 269 259 252 247 249 253 255 256 254 249 247 253 254 256 262 259 252 246 239 245 249 246 240
307 379 332 278 276 259 227 262 259 255 253 259 263 271 266 265 261 256 257 260 263 268 268 274 277 279 274 266 267 272 270 268 265 256 258 244 241 231 244 244 240 233 251 269 267
285 309 395 268 292 275 245 256 251 253 258 248 266 279 267 258 253 255 252 250 257 254 252 252 252 253 255 254 248 246 246 248 241 230 226 263 245 237 230 219 221 261 236 267 110
272 294 295 308 280 279 266 241 249 249 260 264 272 281 268 258 253 248 245 246 244 245 247 248 248 246 248 245 232 230 225 239 266 249 234 224 216 224 236 239 239 243 238 262 237

GFSSW_2pvu_pres_054.txt.gz
Presure
238 265 267 304 309 303 282 76 322 340 355 366 339 349 356 351 334 294 253 232 239 196 214 196 204 177 161 188 157 176 179 162 151 147 147 142 157 148 134 83 147 134 120 142 77
243 268 301 317 302 297 202 326 85 347 371 315 352 328 350 355 338 306 265 276 249 228 194 210 191 177 178 173 153 179 170 164 162 156 160 156 145 145 147 136 146 138 84 78 138
253 281 222 313 310 304 295 393 440 406 381 339 331 348 356 355 343 325 306 292 261 241 211 195 181 201 162 178 177 173 181 161 166 89 168 168 156 147 133 147 148 153 149 139 130
258 283 319 305 307 183 395 492 461 462 413 368 314 346 323 345 352 329 320 268 282 247 236 208 238 196 199 198 162 176 169 177 176 174 169 165 166 166 149 140 146 141 150 150 136
283 293 304 321 324 361 511 530 551 514 441 385 333 334 334 350 343 305 310 301 293 259 236 233 208 236 202 197 179 167 169 182 184 173 178 173 165 165 159 154 150 154 155 153 147
329 313 324 316 351 495 544 507 505 521 495 90 349 304 338 336 328 263 328 302 273 286 249 238 227 194 229 203 197 182 144 167 184 190 174 176 151 162 157 162 148 152 157 154 148
325 317 319 339 466 496 494 473 483 485 527 482 372 321 339 334 317 336 318 310 287 287 273 243 236 232 189 225 234 190 178 181 176 183 183 184 177 162 94 158 159 160 104 156 161
314 326 330 451 458 472 468 455 454 458 550 551 390 322 341 329 307 319 315 293 296 273 287 254 239 231 227 204 230 222 196 177 173 164 178 183 182 174 175 180 176 158 159 157 157
320 331 368 449 442 453 448 435 449 466 554 529 406 324 337 322 301 320 327 289 286 274 276 285 245 235 228 198 203 204 191 186 178 178 173 171 169 167 176 178 181 180 173 174 173
331 323 457 442 432 450 433 444 435 464 552 507 389 320 291 316 306 304 317 293 283 267 270 272 277 244 234 225 195 216 221 193 186 180 181 173 170 168 169 173 169 178 179 175 159
339 381 457 431 434 457 429 439 439 455 530 458 367 306 323 312 304 304 319 298 284 283 283 273 278 259 235 225 223 214 214 224 218 202 190 125 164 171 170 169 175 168 163 163 165
340 473 445 439 442 463 426 128 431 472 554 441 341 290 318 303 303 294 309 289 285 294 290 279 271 285 251 236 229 227 224 187 193 216 220 210 185 171 172 174 174 173 173 166 168
437 468 449 450 405 425 450 446 440 550 459 392 316 296 306 289 318 283 305 293 273 277 269 287 275 268 250 252 231 226 225 216 217 171 182 222 224 202 185 186 176 179 179 178 177
503 475 465 446 421 418 454 446 478 525 405 326 301 287 302 292 293 296 288 280 271 281 270 276 267 262 283 249 252 232 226 229 209 223 217 207 171 216 217 210 187 191 190 207 213
511 491 475 470 469 461 469 420 529 414 348 308 277 284 301 299 297 299 276 309 272 275 274 287 266 258 260 273 247 245 231 229 221 218 223 212 213 212 215 211 213 218 216 211 210
542 550 513 492 491 415 422 491 398 384 322 289 257 239 298 297 293 282 281 321 274 269 276 268 282 261 264 276 271 271 238 229 223 220 222 218 206 195 213 217 218 190 188 202 210
424 527 509 543 473 515 416 385 358 329 303 295 282 267 298 287 295 291 292 283 274 267 276 280 279 271 257 259 263 270 272 234 228 223 217 217 222 213 204 210 214 214 208 204 215
410 473 432 438 398 379 373 363 336 314 302 284 274 274 289 289 290 282 266 279 279 264 265 263 266 271 269 262 262 253 275 266 265 231 224 222 216 220 208 202 200 224 220 216 209
394 319 431 399 385 382 383 337 317 310 288 275 277 263 281 290 280 270 283 286 267 286 283 266 265 270 270 263 256 253 259 263 258 263 239 242 232 223 219 208 216 217 217 215 212
342 302 398 372 349 290 302 296 282 279 280 286 257 245 273 277 276 274 273 267 277 266 313 289 260 262 262 265 255 254 251 265 264 254 252 256 261 259 161 232 222 219 219 221 225
345 319 320 290 286 286 284 271 271 268 277 267 269 274 274 272 272 270 269 267 265 300 306 286 279 261 257 260 265 258 257 253 257 259 254 246 265 270 273 212 264 246 241 241 244
370 325 281 295 280 300 297 292 287 278 282 277 269 269 262 262 257 265 294 299 296 297 294 276 270 271 273 242 259 240 247 246 252 247 253 241 249 254 253 264 260 256 259 257 258
286 325 315 291 278 297 300 254 263 262 260 256 262 264 265 261 270 284 300 289 283 286 284 285 263 259 258 253 251 259 254 247 245 249 255 244 250 246 245 244 247 249 248 252 257
293 327 311 288 277 279 257 261 267 267 266 256 267 277 284 291 293 297 293 284 287 273 272 274 268 260 262 263 238 264 264 261 262 270 257 260 265 263 261 260 262 257 251 261 269
288 302 316 305 263 283 272 270 263 261 261 255 274 281 288 294 286 280 283 276 274 275 271 261 259 262 258 256 253 254 250 249 251 250 252 247 245 248 247 246 252 256 251 247 246
298 281 310 302 306 264 270 271 241 262 235 252 273 279 272 270 269 274 279 281 273 265 263 261 262 255 252 249 246 238 239 248 254 253 258 244 253 267 254 248 240 233 245 237 248
282 290 266 286 314 313 272 260 254 251 262 263 263 282 271 270 265 263 262 264 268 272 272 269 265 259 257 255 253 249 252 251 263 271 263 247 242 237 231 247 241 232 215 246 231

GFSSW_2pvu_pres_057.txt.gz
Presure
208 232 263 334 322 307 311 303 298 203 295 310 321 334 356 358 345 403 360 254 258 204 226 212 177 189 176 175 176 181 168 164 147 153 149 155 155 145 146 143 126 133 144 153 140
206 229 278 310 321 301 308 299 265 257 306 319 337 337 355 341 361 382 377 341 244 258 215 219 198 185 184 186 180 165 175 159 156 160 154 156 153 152 144 142 144 139 139 135 147
185 234 297 328 307 312 315 264 295 338 364 95 410 367 368 350 367 351 379 341 285 265 256 195 214 200 205 190 166 147 160 168 165 162 172 160 151 158 135 143 146 139 139 124 142
247 247 326 312 321 324 305 337 372 466 197 491 436 412 380 369 338 330 365 345 328 252 267 246 227 213 197 203 188 161 175 167 171 172 170 172 174 147 143 149 147 140 138 139 141
268 296 338 321 331 305 342 459 461 516 517 536 513 417 375 367 329 331 365 364 331 313 269 258 242 212 212 191 197 182 166 160 167 178 180 172 165 166 158 150 150 143 150 133 154
298 347 337 338 315 387 451 453 493 482 476 488 507 422 381 360 322 331 318 361 324 312 281 281 253 240 204 211 193 201 177 181 159 168 155 180 169 165 155 154 153 145 143 143 142
305 325 345 321 471 461 439 441 460 456 492 467 482 436 387 354 316 329 330 351 322 303 300 250 284 246 240 225 217 181 195 174 179 156 146 173 176 168 178 171 153 153 144 145 146
312 353 326 495 470 436 421 442 447 433 424 442 466 442 387 348 309 313 317 318 318 314 289 293 279 277 237 238 217 212 181 186 181 176 154 178 171 171 176 86 170 169 166 163 154
312 341 515 476 447 427 435 441 430 429 451 439 465 436 379 334 301 310 319 323 327 305 300 288 273 258 253 226 237 215 206 173 181 192 175 176 174 175 176 180 179 174 171 163 158
303 520 490 457 434 413 439 451 435 230 196 485 495 420 370 306 313 304 302 306 331 310 311 305 285 252 275 247 224 217 196 183 192 168 191 183 175 174 174 178 177 182 177 176 175
305 514 391 452 448 404 404 439 438 431 447 512 525 413 342 304 317 306 305 308 304 301 314 307 296 260 267 269 237 184 202 193 191 202 160 192 186 186 154 162 179 184 190 178 176
525 421 364 422 427 405 410 445 449 445 495 496 431 366 320 301 315 307 302 299 302 287 312 290 302 279 278 261 257 236 223 207 194 221 200 185 194 95 195 187 174 176 183 187 185
540 488 482 471 435 414 418 464 451 528 537 428 375 336 308 300 299 334 296 280 289 288 283 302 282 291 256 274 258 241 227 226 208 204 227 219 183 190 188 184 183 173 171 172 169
370 530 505 485 454 437 463 457 553 511 416 374 336 310 298 303 300 297 297 287 288 286 289 279 283 262 271 271 275 252 239 229 195 222 203 185 215 222 191 188 180 174 176 175 170
366 525 580 525 492 480 554 535 433 403 369 343 308 293 299 303 300 311 293 283 273 295 275 271 259 291 270 266 276 275 243 240 234 223 231 194 181 172 217 196 193 189 187 184 180
350 384 432 510 487 465 449 416 401 359 346 309 292 295 295 301 307 308 270 287 270 273 290 263 259 261 280 274 283 281 267 245 233 231 225 223 195 194 221 225 230 207 198 200 198
339 313 312 417 426 426 405 380 356 338 307 305 279 297 313 293 331 296 280 275 277 273 273 284 275 258 263 295 302 274 294 263 250 236 230 221 221 158 218 223 224 198 167 167 163
329 305 300 306 339 361 328 331 330 295 305 313 302 316 313 309 295 305 267 278 265 268 266 276 271 271 272 269 293 279 267 275 260 254 235 229 225 220 223 223 227 218 222 223 221
334 320 301 292 316 324 316 301 289 285 277 263 297 289 303 297 292 283 288 275 267 271 278 272 281 279 276 268 272 277 273 268 274 263 248 247 236 233 227 226 229 224 222 218 226
316 321 293 301 274 304 302 290 276 279 293 281 283 272 285 290 285 283 287 267 289 287 282 273 275 276 268 278 266 252 266 261 261 265 270 260 244 242 230 232 173 228 222 225 224
314 335 316 279 297 314 304 303 303 289 283 289 286 267 288 285 275 276 283 259 276 268 287 270 276 270 276 278 269 270 263 256 252 256 259 263 274 264 224 132 237 234 229 224 223
303 326 324 300 282 267 279 245 295 282 284 287 285 282 279 282 280 277 280 273 279 280 264 272 297 269 273 263 266 274 266 261 257 261 263 261 261 265 266 265 263 266 224 225 226
285 303 319 306 284 281 282 269 252 279 269 273 271 271 265 264 265 269 268 272 268 270 276 268 300 289 273 262 260 256 262 260 263 263 253 254 269 268 269 266 264 255 258 265 244
286 307 294 331 302 276 281 271 256 254 262 268 276 274 272 266 269 278 292 301 301 307 280 298 287 279 275 274 253 254 249 254 255 258 259 255 257 258 253 255 254 251 248 251 253
275 285 283 279 346 306 277 271 273 249 260 266 270 290 293 298 294 298 303 292 290 290 289 287 285 273 268 268 272 275 255 245 255 257 250 246 257 251 249 254 258 258 261 260 265
290 303 292 289 282 301 320 292 267 261 251 247 237 286 287 296 287 291 291 285 285 276 276 274 276 273 257 248 248 247 260 259 254 255 261 270 271 259 253 254 255 254 246 250 264
287 301 288 295 282 280 290 323 297 270 255 255 253 248 279 275 279 282 283 275 270 272 273 261 263 268 269 259 261 247 257 258 256 251 251 244 244 246 249 242 247 260 252 246 248

GFSSW_2pvu_pres_060.txt.gz
Presure
193 209 265 297 296 298 317 314 313 314 307 165 83 307 310 314 317 305 333 353 321 252 231 211 191 193 188 175 158 175 169 162 157 158 161 155 105 147 144 133 111 149 138 96 82
200 268 253 298 291 319 317 301 294 296 307 85 308 310 209 319 302 337 320 311 353 238 249 244 219 187 194 194 172 165 174 160 159 163 164 161 157 148 149 148 152 151 137 142 144
191 310 191 292 331 308 304 320 319 316 312 315 312 132 142 270 323 288 323 335 361 292 262 234 194 210 183 192 191 144 162 152 167 166 161 158 161 155 155 146 146 154 146 146 147
278 310 149 336 319 341 345 348 358 375 374 360 341 228 303 341 329 315 326 327 321 372 244 227 243 228 202 178 189 186 146 169 149 171 168 166 157 161 148 154 144 146 154 155 135
126 240 333 339 367 469 352 391 451 449 445 436 436 437 255 427 419 304 364 330 360 358 393 246 235 232 228 205 183 190 179 156 162 175 174 171 162 154 146 152 155 151 142 144 103
192 156 354 487 358 499 471 449 449 431 437 441 495 517 468 448 412 377 363 333 329 354 389 301 238 240 224 202 206 174 189 177 158 170 173 176 167 160 158 150 138 154 155 154 149
314 229 446 356 498 466 459 431 419 417 445 431 438 453 477 535 429 369 324 354 345 324 377 331 253 237 211 226 198 200 179 190 177 173 62 179 67 78 170 159 153 144 140 147 159
311 391 367 352 476 440 426 415 437 432 430 404 409 436 470 499 422 356 326 330 323 342 356 327 316 259 235 214 223 202 190 196 177 177 165 180 176 178 171 174 157 156 153 151 143
334 378 355 342 446 441 420 409 444 433 441 412 308 448 477 438 375 324 310 312 310 332 344 332 312 266 245 230 215 190 202 192 173 193 183 171 176 178 178 116 161 165 164 160 155
386 366 354 453 413 409 423 409 418 443 431 441 426 462 455 408 345 323 305 309 319 321 335 320 306 311 264 247 231 204 185 200 194 177 166 186 172 183 173 178 180 171 160 169 163
378 361 357 469 399 407 412 412 424 445 434 471 460 487 399 354 332 314 313 292 316 303 326 311 303 301 299 255 233 225 204 211 206 193 185 171 182 173 176 158 174 180 182 181 167
373 356 482 496 443 422 427 418 458 446 501 457 431 406 366 336 313 305 287 278 295 292 318 303 301 304 310 297 249 241 225 213 224 202 190 192 186 66 176 178 179 164 171 167 172
369 352 484 521 471 447 437 468 534 533 482 413 394 372 341 321 304 300 292 272 271 284 310 295 293 299 311 294 264 265 242 229 222 223 201 195 192 190 188 179 172 178 176 176 171
352 345 434 597 545 536 557 550 400 381 392 382 365 340 323 309 293 283 333 283 281 310 294 314 292 299 292 303 286 250 257 228 232 229 228 205 191 199 189 190 181 185 180 173 174
308 339 364 467 490 469 450 409 389 380 376 369 341 320 309 300 300 292 282 302 287 280 306 314 317 289 304 292 295 274 238 265 227 233 221 227 230 201 203 194 170 164 155 165 187
301 337 319 348 337 431 416 397 342 398 351 275 312 301 299 291 307 292 279 285 296 282 281 270 294 311 314 298 295 281 264 244 267 229 233 222 209 232 225 190 198 200 196 192 176
296 327 313 327 316 320 308 357 338 340 326 295 294 306 308 335 299 289 274 279 279 285 270 275 271 285 302 283 313 295 270 266 248 270 227 232 231 207 228 211 216 188 204 206 198
291 336 295 312 301 306 298 307 308 288 320 310 307 317 305 295 328 275 281 273 284 277 270 269 262 268 288 300 287 300 285 268 262 269 232 230 225 234 228 223 204 203 226 192 169
290 279 321 274 284 321 316 296 315 315 306 328 312 285 321 305 293 291 274 277 278 276 286 277 280 278 273 289 289 289 289 281 270 244 258 258 244 226 227 235 230 223 222 222 227
269 280 321 309 295 280 293 295 285 309 297 307 306 296 286 320 302 280 280 275 278 274 272 287 276 278 275 273 293 287 275 273 283 281 281 267 254 258 231 227 228 228 231 228 232
277 293 274 323 297 287 282 277 298 284 301 298 296 306 295 296 292 286 269 262 273 286 278 274 276 268 274 276 279 298 285 263 304 282 270 280 263 254 255 248 236 229 179 227 226
278 300 204 296 312 289 281 275 258 269 290 292 294 300 293 289 286 280 280 278 271 270 282 284 281 270 273 274 264 269 270 271 282 264 261 262 267 265 264 259 250 242 240 239 232
284 278 279 286 315 301 286 276 264 257 273 285 277 284 288 288 281 282 285 283 274 262 260 281 273 267 271 268 285 277 270 293 266 265 268 269 265 265 269 271 275 274 266 253 242
289 274 292 274 305 317 301 282 276 264 271 270 282 271 274 268 267 272 276 282 285 265 293 266 279 282 283 272 271 271 272 257 258 266 254 251 250 256 247 256 269 271 266 268 269
277 280 275 271 304 294 329 306 284 277 265 255 271 285 299 294 288 279 276 272 265 270 270 282 269 259 273 284 259 259 258 260 266 260 258 254 253 255 249 247 244 246 262 260 261
282 289 274 301 308 296 290 306 314 285 277 268 257 270 278 308 296 302 303 307 300 297 306 295 258 264 291 284 283 251 255 249 253 256 254 259 259 257 259 249 254 255 253 258 252
302 284 278 293 299 302 284 286 296 330 288 272 264 255 261 261 283 293 297 293 293 287 288 288 290 294 277 272 270 270 267 242 248 254 254 263 252 247 247 249 258 265 259 254 254

GFSSW_2pvu_pres_063.txt.gz
Presure
121 293 272 308 204 296 318 309 306 306 298 289 109 318 316 309 228 286 320 321 270 314 278 250 232 181 201 187 179 186 168 159 137 155 155 161 121 144 124 155 142 138 136 118 136
128 201 313 331 330 327 334 329 324 315 315 314 311 307 170 88 237 275 329 310 298 318 324 261 238 192 212 198 182 188 163 171 150 157 152 157 147 143 110 158 140 144 151 133 134
108 320 312 327 366 357 354 338 332 327 325 320 319 310 113 286 279 265 285 303 313 276 343 261 259 234 189 207 185 176 148 174 149 171 163 139 148 153 142 147 146 147 143 113 152
128 314 342 374 363 354 348 359 482 463 341 330 330 321 319 321 310 253 103 269 297 326 338 279 253 234 234 206 196 184 170 143 177 163 173 163 150 146 150 144 85 156 143 140 140
327 346 386 369 449 520 501 494 490 475 471 463 319 347 325 321 85 97 253 268 299 298 300 330 263 254 235 201 205 191 187 173 148 174 149 166 162 148 147 147 143 149 146 155 143
315 342 379 472 513 490 468 463 461 451 439 451 452 446 365 340 221 317 297 261 279 311 300 294 287 253 220 239 208 180 183 180 174 142 178 168 175 165 157 150 145 144 150 147 149
337 359 385 504 478 436 471 438 434 421 421 416 423 437 470 473 399 326 310 302 271 316 322 307 330 270 245 224 206 205 176 187 170 173 163 163 176 169 160 153 154 149 151 154 149
336 380 527 479 449 425 412 417 415 435 437 438 418 409 431 411 510 406 342 268 155 233 300 297 304 337 254 243 203 211 194 176 188 175 172 133 135 178 174 162 154 159 155 154 155
225 373 543 477 451 424 418 402 414 422 452 442 401 415 433 464 495 425 397 360 319 278 296 329 313 291 378 247 213 225 214 191 171 185 179 178 171 180 71 75 154 165 151 152 163
150 259 535 513 460 432 415 415 409 444 430 456 404 427 452 464 500 445 347 383 368 278 318 307 318 325 295 293 234 222 226 187 193 168 185 187 155 170 148 181 173 167 153 160 155
290 366 364 510 489 451 425 424 422 431 437 432 426 446 467 440 431 412 347 330 334 288 321 296 325 337 357 329 249 216 229 210 190 194 189 177 185 176 181 171 170 181 170 168 160
281 235 371 492 517 489 475 486 479 478 458 456 464 415 387 366 384 360 326 310 302 327 273 340 308 330 337 331 294 233 230 221 221 188 190 197 165 191 184 175 187 170 168 168 170
282 320 314 333 412 493 506 501 450 432 465 433 406 359 321 304 295 296 304 291 315 320 304 324 306 298 338 323 326 254 221 219 228 203 202 181 126 168 163 186 183 178 177 172 169
292 287 349 329 411 350 395 407 418 414 393 385 371 344 321 306 300 300 310 284 290 321 330 298 300 287 326 316 317 266 240 214 211 221 213 208 185 193 185 167 171 187 185 172 167
290 295 319 326 316 335 333 312 408 385 370 373 354 326 305 288 278 293 287 278 283 296 284 301 294 299 305 330 317 327 237 230 214 216 218 222 203 185 190 192 174 167 152 152 182
149 289 296 323 313 323 323 379 326 389 321 323 319 311 305 286 284 278 275 270 277 274 293 289 288 295 314 304 337 309 309 238 225 218 220 215 220 188 182 190 192 189 180 172 159
265 287 319 288 303 299 324 310 343 349 349 319 303 303 306 306 287 279 271 277 266 295 299 280 311 288 289 306 308 319 305 297 274 226 219 217 217 219 214 206 187 193 189 187 186
270 292 283 291 308 297 329 311 324 310 306 324 317 308 296 283 296 300 271 273 263 263 280 296 288 312 328 291 307 296 314 299 292 281 240 219 207 218 222 220 205 225 198 189 189
139 320 278 276 307 296 285 279 309 332 322 314 303 307 295 290 291 289 295 288 281 272 271 288 286 293 296 305 304 297 300 314 287 295 263 247 246 210 219 220 227 231 209 227 200
317 320 285 278 318 299 288 287 290 298 309 300 319 304 319 292 290 291 289 286 285 274 280 272 280 281 283 296 234 323 322 306 302 287 288 269 249 251 236 227 219 220 226 228 235
307 335 292 281 282 313 291 293 283 278 309 314 307 329 304 297 292 287 276 284 277 283 283 278 273 283 283 283 284 297 299 287 311 298 270 277 277 252 253 234 241 227 220 223 221
325 331 302 294 309 298 306 296 287 276 269 290 309 304 321 299 288 284 278 274 273 271 271 271 275 273 277 282 284 290 297 290 279 299 283 268 266 261 257 252 237 226 248 224 220
325 343 141 311 275 309 320 306 278 279 275 269 279 283 297 308 292 285 279 267 277 263 282 274 268 263 267 276 273 271 280 285 290 275 290 281 272 258 257 257 253 260 261 251 219
274 321 316 328 284 295 308 311 302 287 275 268 269 287 280 272 277 282 277 276 270 270 266 266 277 282 272 263 259 259 267 268 276 293 269 270 274 283 267 255 249 245 254 249 253
335 267 320 315 308 292 300 296 324 295 288 276 265 273 288 289 279 271 274 275 281 283 269 272 267 260 277 281 272 271 270 273 265 275 276 280 276 279 270 270 266 252 259 253 259
193 342 357 333 317 311 298 295 295 332 297 282 276 268 271 283 309 299 284 273 271 270 287 274 260 283 267 278 281 278 270 289 267 260 287 266 269 251 245 247 247 249 251 254 265
305 359 344 315 322 317 286 296 287 291 326 298 284 273 266 256 281 287 306 306 298 295 288 270 269 278 272 260 261 277 268 270 267 270 250 260 255 247 246 249 250 249 252 252 253

GFSSW_2pvu_pres_066.txt.gz
Presure
241 195 119 358 370 363 361 355 343 339 341 338 312 318 326 318 188 158 289 158 322 331 278 250 255 254 193 182 176 181 164 173 166 165 159 156 148 160 131 150 138 145 148 137 103
244 182 149 120 386 386 396 363 337 335 328 331 334 311 317 321 294 298 298 299 306 329 319 299 253 248 230 197 167 162 186 174 150 157 163 167 155 150 160 147 123 147 165 147 157
241 189 146 375 372 541 550 528 528 397 322 322 327 328 310 300 302 234 308 256 129 317 269 254 242 253 249 238 168 155 164 180 175 153 175 169 138 133 147 113 153 147 121 155 126
244 192 387 366 418 519 511 499 485 520 508 323 310 321 329 308 301 284 299 155 291 296 316 281 279 249 242 241 225 192 169 185 177 154 167 167 155 148 146 156 158 157 157 148 143
270 185 385 377 498 500 482 479 461 467 475 500 368 310 309 322 296 151 171 154 288 293 310 311 293 262 253 240 201 162 197 187 191 174 154 164 155 157 152 156 160 149 145 148 149
328 150 381 370 488 469 437 472 442 440 446 450 467 443 341 308 322 292 159 280 294 199 169 321 332 266 258 249 242 227 198 186 186 181 183 172 161 157 162 158 149 152 158 148 144
107 247 292 359 492 458 436 422 414 431 436 443 423 452 461 336 318 323 288 301 276 231 274 302 301 261 278 257 245 223 187 212 184 186 144 184 181 182 164 151 148 150 161 156 147
200 115 289 355 498 463 434 418 416 428 422 456 413 426 436 466 333 294 282 290 144 231 278 281 304 305 258 251 262 245 206 210 172 185 182 73 184 180 169 161 156 153 148 146 144
182 127 262 355 512 438 425 419 418 421 451 460 445 423 433 444 479 322 316 283 286 267 270 287 303 292 281 300 258 258 209 200 196 177 187 179 139 173 140 159 148 158 153 152 148
193 256 351 357 541 487 459 441 434 446 443 463 432 411 422 432 467 481 326 305 286 270 258 273 283 305 299 267 188 274 250 188 186 193 153 187 180 192 103 159 157 168 159 159 150
201 269 348 355 376 465 464 492 450 443 445 428 431 430 432 467 484 460 322 319 273 267 290 256 301 281 313 280 340 273 257 232 188 178 193 196 184 185 176 192 120 168 168 157 159
222 145 331 348 356 428 464 462 486 363 376 380 455 455 449 455 460 393 388 381 303 271 287 285 258 287 286 305 299 382 275 245 218 190 204 191 193 183 188 180 195 183 146 164 161
265 256 272 330 341 332 384 442 389 375 358 352 346 361 432 360 349 336 363 379 370 270 256 279 254 255 290 293 331 357 318 260 254 207 189 201 193 178 182 185 174 179 183 177 169
339 298 201 335 341 345 353 392 378 363 352 346 349 342 347 331 318 317 317 354 345 329 282 251 294 252 303 309 309 339 363 263 260 224 203 195 191 196 184 178 180 197 180 173 175
205 338 203 331 302 317 321 387 361 343 359 333 312 317 340 324 308 312 320 322 317 311 309 312 308 309 260 293 348 343 344 358 241 242 230 213 202 190 195 184 169 162 193 187 184
233 300 335 301 310 304 321 312 328 361 325 302 299 298 298 300 286 283 298 288 308 285 288 283 300 327 286 294 319 300 346 278 307 246 220 217 226 199 195 193 186 184 183 160 161
227 293 327 265 299 291 292 310 306 322 314 316 306 296 288 284 292 297 274 292 293 330 314 297 291 305 292 288 283 328 344 336 336 274 240 227 220 215 208 196 184 186 186 188 189
233 280 317 334 312 300 298 320 308 343 308 328 304 298 299 284 280 273 276 273 280 291 288 290 294 292 296 300 266 299 351 325 337 326 301 234 231 209 210 217 204 189 185 185 179
200 243 304 140 321 301 306 307 302 315 316 312 315 307 298 295 288 291 289 282 280 292 296 288 297 280 288 309 309 311 311 339 319 326 261 293 230 230 205 215 226 220 194 190 187
224 238 266 337 334 316 309 308 300 298 315 305 307 310 300 308 295 285 292 286 276 281 282 286 295 305 312 308 305 295 300 316 327 326 302 292 272 239 223 215 216 223 227 216 205
176 200 214 266 334 259 299 312 301 297 295 320 326 297 296 302 303 297 277 276 275 270 273 274 289 289 293 297 294 306 331 306 304 318 306 301 290 262 236 229 221 219 217 218 220
237 250 152 264 338 326 316 307 307 297 288 288 297 326 306 300 298 297 296 289 285 276 270 265 275 278 283 281 281 282 306 323 314 292 316 298 297 298 266 230 222 220 218 219 220
168 201 166 252 289 328 320 313 304 304 296 288 287 289 316 295 294 293 301 291 283 286 272 280 276 277 272 275 273 265 270 286 284 300 312 306 303 285 298 284 261 224 217 215 213
179 180 231 237 243 332 326 310 234 299 300 296 286 283 290 281 288 286 283 274 277 269 276 267 266 267 265 262 275 277 288 283 270 286 275 291 304 300 279 283 275 262 262 252 246
154 194 169 249 259 348 330 321 299 292 301 293 293 281 275 288 286 278 269 278 275 273 267 269 273 285 275 267 259 264 268 275 276 277 279 283 268 284 291 267 269 276 276 261 249
256 244 266 191 291 331 325 312 309 292 299 298 298 294 285 276 280 300 283 274 271 265 278 273 271 267 270 285 268 264 260 259 259 266 271 278 285 261 276 289 263 261 259 257 262
241 161 241 256 278 363 329 320 317 302 288 293 294 299 291 284 276 285 295 299 293 280 272 267 273 281 270 272 266 270 273 262 262 266 264 261 277 273 280 279 281 286 268 262 256

GFSSW_2pvu_pres_069.txt.gz
Presure
145 197 190 187 379 389 378 573 565 447 336 357 358 330 343 291 284 317 290 297 298 298 335 382 322 244 223 221 202 209 192 200 144 176 166 61 146 163 146 154 168 163 152 127 83
171 207 159 379 378 386 530 524 513 523 304 353 352 351 324 332 280 287 301 175 290 304 304 351 313 264 270 209 197 198 207 184 176 177 165 170 161 148 159 145 147 157 146 136 141
127 205 169 374 335 520 509 499 482 477 504 481 347 345 331 332 296 281 306 266 286 300 296 336 316 315 289 262 181 211 220 171 186 184 146 170 169 161 152 165 160 149 158 142 135
109 207 356 379 190 455 478 453 470 452 472 494 438 342 340 308 304 217 285 291 289 225 297 316 324 303 297 267 251 223 217 195 184 147 182 151 168 141 160 160 155 152 153 159 142
231 251 119 381 502 420 463 444 458 444 455 470 476 344 337 326 309 310 283 269 284 291 298 303 313 306 344 271 248 218 226 183 181 192 191 184 170 154 159 143 162 154 141 148 152
213 333 201 376 487 488 458 438 424 420 426 441 457 473 329 328 317 302 299 296 284 279 294 201 321 301 321 244 250 244 224 214 161 198 185 189 167 160 168 160 159 158 158 78 160
217 308 208 368 472 490 445 433 425 422 429 428 449 449 358 325 327 297 299 288 289 277 291 292 312 282 297 245 251 235 241 238 199 171 146 188 165 179 167 158 164 160 151 149 153
270 223 265 366 442 485 465 438 433 431 437 450 439 432 454 339 327 309 290 287 295 268 275 281 286 315 288 268 241 255 240 256 208 192 143 173 177 182 170 154 157 162 158 147 143
174 287 279 365 387 509 506 473 457 445 446 465 448 427 438 459 320 329 290 287 277 274 281 277 292 307 294 316 255 260 262 264 229 223 193 186 129 189 180 165 141 163 167 158 155
227 300 268 360 351 376 401 420 462 460 453 457 467 418 434 445 449 305 301 270 231 271 270 276 95 281 312 297 253 248 250 266 209 186 193 183 185 176 190 175 165 159 164 163 152
226 200 338 309 342 353 403 386 409 415 452 443 429 421 432 440 452 378 309 283 278 299 280 280 279 274 284 284 291 244 247 141 251 236 198 182 192 189 189 170 184 169 160 155 157
233 169 295 331 338 327 405 336 411 416 402 433 454 457 461 458 474 468 309 303 281 279 287 269 279 275 269 306 256 265 244 244 253 246 236 193 184 181 159 192 167 184 168 161 152
200 235 260 146 327 332 318 341 327 380 376 374 373 382 375 398 433 456 356 308 289 270 290 275 286 276 272 275 310 282 273 245 252 247 229 226 185 200 183 185 193 168 182 173 169
253 256 240 266 342 329 313 336 326 331 366 340 328 339 372 371 364 417 423 296 298 265 288 273 270 267 281 270 276 299 306 273 249 248 237 240 197 187 200 191 173 188 176 184 175
245 145 197 248 274 325 316 307 318 330 330 331 316 317 345 370 353 387 404 310 298 276 264 287 284 271 265 266 276 296 317 314 323 248 256 241 236 194 195 197 194 178 178 179 168
247 175 203 238 292 330 320 309 326 320 317 329 303 302 309 325 348 343 320 331 293 290 276 264 266 274 266 264 267 290 291 311 302 328 262 255 247 213 221 194 191 197 186 184 183
202 216 171 272 273 306 315 306 311 312 305 300 324 308 311 298 313 330 330 364 350 286 292 292 296 252 284 280 267 266 276 308 300 312 325 257 260 247 220 212 188 188 195 188 188
153 185 218 174 254 270 326 317 312 312 315 311 307 306 294 312 312 299 317 314 322 311 303 286 304 275 254 248 252 288 277 293 281 338 346 304 251 253 248 227 203 185 185 190 187
172 193 163 205 257 236 257 317 315 309 300 312 309 308 305 307 302 313 302 315 322 312 318 308 302 318 319 319 305 257 307 315 258 306 354 356 363 251 252 234 224 208 199 188 187
264 141 161 149 232 275 276 323 313 303 305 296 319 308 303 315 295 290 298 296 314 312 309 312 306 297 286 298 299 292 302 300 320 267 278 348 308 351 251 248 240 228 224 208 194
144 138 153 180 228 245 257 333 318 311 308 303 296 327 304 309 293 297 288 292 300 302 295 296 293 292 298 293 290 289 311 303 301 332 334 333 343 307 302 243 240 241 242 229 218
161 127 240 167 208 261 252 289 330 314 301 303 299 295 315 323 301 293 298 292 285 277 276 278 272 296 300 302 304 302 312 316 302 306 323 325 316 322 319 286 250 235 239 238 229
150 163 126 240 157 170 278 229 295 318 308 300 302 297 295 314 307 300 298 296 279 285 272 271 284 273 275 274 275 286 284 297 304 298 295 314 309 310 299 303 276 263 254 238 234
163 130 176 147 134 167 257 197 310 321 306 302 301 295 296 292 290 294 292 289 299 276 280 269 274 269 268 264 268 276 271 269 291 309 312 296 308 300 296 295 288 282 268 261 256
188 194 175 148 145 159 217 301 278 326 312 303 296 303 287 290 283 295 284 279 280 272 277 279 271 266 267 273 268 262 262 272 267 273 274 297 304 299 301 296 283 286 290 280 264
150 156 127 252 199 161 171 276 336 338 321 306 304 296 294 280 272 286 296 292 286 279 276 274 273 267 267 264 267 268 272 276 278 279 273 282 266 279 291 306 306 288 292 278 272
144 164 147 211 243 140 139 283 136 328 318 308 302 302 296 296 284 283 273 294 298 287 282 275 273 274 271 269 277 272 277 262 268 278 274 276 277 272 261 274 280 300 280 270 287

GFSSW_2pvu_pres_072.txt.gz
Presure
196 129 167 385 374 133 472 518 501 512 506 530 353 357 359 343 297 287 302 296 284 283 279 278 262 300 269 232 215 154 212 192 169 184 116 167 165 170 159 159 158 114 155 133 89
113 147 295 303 357 496 444 491 483 484 485 244 524 348 354 338 342 288 289 292 289 279 277 277 256 332 148 182 206 206 172 223 186 163 202 126 174 160 160 166 166 141 150 158 84
115 158 111 362 509 502 491 465 458 451 455 411 486 520 339 353 319 326 282 275 282 276 281 278 319 324 409 249 200 192 190 183 182 209 151 199 180 159 165 168 152 152 119 163 160
138 108 398 375 425 509 476 457 462 445 444 459 468 503 397 342 317 288 282 271 276 89 284 283 316 321 367 389 216 210 194 175 194 197 191 207 192 142 157 165 158 162 142 147 166
188 231 304 360 231 394 474 453 439 430 429 451 474 465 507 325 327 315 177 280 279 291 302 288 310 311 347 317 229 204 203 197 223 197 183 192 191 186 159 146 156 167 159 146 156
257 134 253 403 387 388 491 460 447 433 437 433 445 459 496 340 336 307 307 282 272 277 300 286 305 306 328 390 203 212 207 201 103 200 207 199 194 187 146 158 169 158 160 151 150
92 107 275 377 321 407 444 484 460 436 442 429 442 459 473 359 329 315 299 310 268 274 304 283 297 305 316 406 337 227 212 217 207 242 195 201 166 147 183 178 167 162 159 152 152
251 156 180 339 374 366 466 450 472 479 473 460 448 450 455 456 329 317 295 309 281 267 268 273 290 302 310 364 304 250 230 232 156 208 200 208 173 162 169 179 166 159 168 163 159
248 176 219 159 358 353 399 412 483 472 468 488 465 445 449 465 329 315 298 293 297 278 266 271 289 303 298 340 303 282 234 236 207 212 219 204 176 203 206 172 174 154 159 166 160
212 222 216 237 282 355 350 362 361 404 443 464 484 443 442 473 334 319 303 291 302 285 267 276 288 291 288 329 307 287 262 239 222 212 182 217 198 177 153 185 179 166 161 158 162
181 182 234 229 318 354 340 361 344 357 395 406 474 459 456 458 347 320 310 288 295 286 267 289 292 287 285 298 336 337 291 267 242 220 228 214 204 213 166 132 192 175 158 164 149
182 232 197 241 268 250 349 328 339 326 349 392 395 468 468 466 447 316 310 291 293 294 292 285 280 282 300 283 319 322 275 267 253 252 250 245 241 209 204 196 181 190 180 167 167
169 164 181 174 189 240 301 330 335 329 332 367 380 401 412 480 493 307 311 294 285 282 292 288 275 280 276 283 297 266 269 253 260 262 252 250 243 143 228 152 199 185 175 178 169
128 132 223 184 243 268 275 325 346 343 329 326 368 362 410 471 472 359 302 298 288 285 301 281 285 270 279 286 290 302 329 266 251 255 264 248 211 225 210 229 175 197 188 178 175
130 152 191 141 213 269 263 263 336 315 326 328 348 366 368 457 442 448 279 293 287 281 285 288 270 282 269 274 285 284 304 285 261 251 250 246 249 246 247 207 201 171 190 186 173
216 156 165 234 175 204 273 242 245 324 344 333 323 333 348 360 398 395 283 296 286 281 279 284 294 274 273 278 277 288 277 270 311 269 255 250 247 262 228 245 204 208 189 167 184
157 155 129 133 217 159 231 245 288 330 325 317 327 327 354 335 343 358 373 274 286 286 287 278 281 284 274 276 285 288 289 283 270 324 263 252 258 247 254 257 250 215 216 195 171
145 161 211 160 153 188 190 270 320 334 317 319 319 315 328 306 340 347 273 289 272 270 280 283 275 263 286 282 278 284 283 291 289 267 314 269 256 248 256 243 252 240 225 191 189
145 148 152 156 169 230 215 149 236 161 324 309 311 324 330 306 329 336 342 365 275 278 279 282 282 277 268 266 286 280 278 281 293 304 305 289 266 241 243 244 237 245 237 233 190
148 142 147 209 165 141 224 179 229 266 322 314 305 325 318 331 304 324 330 342 345 286 284 294 289 289 278 273 280 276 281 278 296 291 283 301 319 294 247 241 231 235 231 229 230
146 214 143 155 234 143 251 184 197 303 242 323 308 303 310 315 313 299 300 300 337 338 338 313 295 286 290 296 295 310 273 260 253 259 285 292 374 275 312 354 269 236 231 234 231
216 110 150 159 147 155 157 96 141 158 251 328 311 303 300 314 304 300 302 310 307 302 311 314 312 305 298 285 291 284 308 307 307 302 301 253 357 346 268 326 345 260 260 248 253
158 145 188 157 175 156 152 155 142 157 207 339 321 305 301 293 306 308 311 304 278 284 283 291 293 291 288 288 287 285 284 290 301 308 309 314 329 318 263 275 332 323 240 297 251
136 156 166 133 193 163 153 165 143 222 198 353 331 314 299 293 287 301 296 288 298 275 291 279 278 282 290 280 292 282 297 291 281 289 300 295 297 325 302 325 322 328 302 292 285
158 121 151 168 154 152 210 253 230 237 148 175 341 322 305 297 291 281 295 289 287 287 274 276 277 276 274 265 269 271 268 275 274 285 294 312 291 296 307 299 313 303 305 288 278
202 133 162 161 144 199 255 261 132 263 259 320 346 326 308 293 296 290 283 278 293 283 278 279 275 270 273 267 267 271 275 262 263 267 279 289 299 273 290 302 298 303 281 295 275
178 140 146 242 225 164 251 186 183 272 273 124 355 332 315 301 290 289 286 279 281 298 288 279 281 282 275 268 268 270 269 266 268 274 268 272 268 280 287 298 300 298 289 283 293

GFSSW_2pvu_pres_075.txt.gz
Presure
174 129 144 336 389 559 525 494 482 479 493 470 507 383 346 355 349 305 307 301 300 289 270 231 218 201 214 199 203 216 270 192 161 200 186 163 197 160 160 164 170 86 105 88 78
140 121 126 137 284 406 445 479 468 455 458 472 420 519 366 340 354 332 294 301 300 296 283 268 229 215 215 229 200 211 215 165 193 176 187 131 196 190 169 165 162 161 131 103 157
129 84 145 181 287 377 419 491 463 467 457 456 465 324 524 356 339 340 325 290 299 288 289 280 258 230 227 225 208 197 213 212 207 197 198 191 164 192 190 173 166 169 167 119 89
137 201 268 230 352 399 325 369 468 300 443 451 470 458 511 361 324 336 326 258 290 294 287 290 280 254 223 225 228 201 229 212 224 213 167 192 187 171 193 186 177 153 165 157 165
80 181 166 201 341 358 397 373 486 467 452 456 453 478 481 493 338 327 330 320 287 288 285 158 285 278 270 232 230 212 260 220 232 203 188 178 199 172 180 181 167 174 162 159 156
109 198 149 164 224 337 392 380 382 491 478 469 448 460 474 501 399 321 328 318 312 276 284 284 277 277 272 263 259 249 276 229 227 224 192 166 193 203 154 155 188 189 162 168 153
151 154 150 175 220 284 360 375 361 424 503 489 474 467 476 497 457 320 325 320 319 279 273 280 288 280 276 268 262 294 120 296 220 220 200 185 199 174 166 192 193 141 168 166 171
161 160 133 140 240 292 328 384 357 357 442 514 470 471 473 510 448 322 315 315 308 302 272 273 281 289 271 263 265 326 362 280 225 221 207 192 194 234 190 169 194 192 181 157 168
139 147 152 138 217 192 351 354 368 345 390 467 468 467 467 482 434 327 312 307 299 319 271 274 267 283 266 260 303 333 387 298 225 217 218 202 179 199 205 189 176 194 179 168 165
149 151 146 195 189 137 215 322 373 346 362 409 446 461 475 481 423 324 311 305 299 321 297 268 268 279 272 273 313 305 431 331 231 215 213 189 194 175 231 201 181 152 171 187 137
134 148 156 165 199 203 301 293 352 346 343 391 418 474 476 469 412 322 303 309 319 321 304 291 304 266 307 286 302 287 359 346 257 219 215 211 198 198 180 195 175 214 161 192 179
172 142 155 157 244 185 273 187 317 357 339 381 400 472 482 496 391 322 313 313 315 303 299 292 268 267 303 291 286 274 349 343 306 229 222 215 208 201 195 172 214 176 169 150 184
109 144 154 150 150 235 198 189 291 346 345 355 389 491 484 490 360 316 317 308 304 319 308 295 265 291 290 309 290 296 316 338 276 270 227 223 213 211 197 213 198 191 180 195 189
118 151 153 129 172 243 218 186 272 293 343 347 367 406 522 513 358 319 309 305 307 292 302 291 294 281 279 298 292 287 299 324 295 275 245 232 220 216 213 203 214 203 198 178 184
153 162 157 128 136 158 157 170 276 284 340 354 349 357 426 513 426 311 304 299 304 298 305 297 293 280 290 306 289 301 297 305 337 278 253 237 241 223 233 221 183 202 203 200 207
153 182 126 150 140 139 155 267 252 257 211 343 330 353 368 480 422 303 302 303 301 295 286 292 291 282 285 283 291 293 301 308 268 274 271 256 248 234 230 228 233 202 207 196 216
137 155 162 244 191 148 153 146 196 188 216 323 329 341 329 379 461 308 290 298 308 304 296 293 290 287 285 286 282 285 282 280 300 318 271 267 249 247 231 234 237 232 202 225 233
143 147 182 183 222 160 139 241 250 199 259 186 309 324 338 336 389 305 294 295 296 295 285 288 289 284 288 290 290 281 290 288 272 312 267 256 254 118 275 252 237 248 246 221 246
166 118 153 164 177 162 160 157 222 215 181 341 323 329 325 322 349 381 294 287 277 294 295 293 289 285 290 291 295 279 288 286 286 306 278 292 264 267 254 269 267 247 244 248 261
155 136 135 136 225 210 230 150 174 207 128 191 317 338 322 327 311 341 368 295 280 284 259 272 287 278 277 281 274 293 278 280 288 291 296 304 314 276 260 257 262 273 273 265 258
140 149 138 137 178 150 173 148 190 178 201 270 336 334 321 310 327 309 304 346 299 283 276 286 286 276 290 290 278 267 281 278 279 284 286 298 313 306 251 248 250 256 247 248 267
140 159 171 164 221 152 132 225 206 208 245 201 201 318 327 314 303 313 301 303 329 342 292 284 276 291 284 271 280 280 272 270 270 291 294 291 293 288 299 275 272 250 248 245 246
120 138 152 183 166 150 167 218 235 207 240 253 290 349 325 317 308 303 310 297 304 312 324 324 327 295 280 278 274 274 277 275 296 310 282 280 278 273 276 286 346 279 255 276 246
124 145 159 151 164 167 141 235 168 241 256 264 271 296 332 322 308 301 303 304 293 288 296 301 302 304 309 308 306 302 301 290 299 308 298 295 289 297 308 292 271 277 349 287 334
147 179 143 185 150 143 229 153 237 234 252 269 275 340 352 325 311 303 294 307 298 292 284 281 275 283 298 299 301 293 292 290 292 289 292 284 291 311 299 321 315 313 309 294 276
153 146 142 152 146 135 171 161 195 259 274 160 174 358 344 214 314 301 296 290 292 297 288 279 284 293 270 285 281 285 286 282 284 278 277 277 281 298 305 289 313 303 323 320 275
144 148 139 147 179 151 216 157 241 212 183 155 275 399 318 350 317 299 296 295 285 280 295 286 288 279 278 280 279 267 270 275 273 272 274 272 266 288 296 284 292 307 284 311 281

GFSSW_2pvu_pres_078.txt.gz
Presure
141 121 139 164 116 121 389 393 516 497 477 470 279 491 408 276 348 362 311 303 308 309 290 273 243 225 246 196 191 195 192 184 143 171 190 186 193 164 189 144 188 164 95 163 85
140 153 106 132 133 150 329 413 383 508 488 476 477 458 250 344 351 345 325 308 312 312 298 277 261 237 241 211 186 166 158 166 141 209 173 181 148 186 167 188 194 164 173 115 114
142 121 144 152 124 130 200 390 377 482 492 480 466 474 481 398 339 342 353 316 301 311 313 286 267 252 229 241 199 110 176 176 165 220 211 186 152 179 171 163 192 171 166 165 139
143 116 118 194 125 140 178 367 390 373 510 483 470 470 474 473 365 338 333 338 300 296 303 300 276 262 242 229 211 188 180 182 221 171 223 205 190 191 173 163 167 183 163 158 165
177 146 148 123 212 222 273 359 377 363 433 518 488 461 497 494 452 332 330 338 321 288 301 294 286 268 252 233 220 207 187 181 139 181 183 226 195 173 186 170 158 182 180 162 155
145 146 145 147 135 152 210 326 360 377 396 523 508 466 479 480 500 350 326 323 329 308 278 297 291 279 260 244 228 214 197 187 155 193 184 188 180 218 176 190 163 176 189 176 162
130 135 138 142 124 164 176 324 331 379 369 464 489 487 472 479 499 404 324 320 325 318 299 284 292 289 272 255 237 221 213 197 132 201 191 226 188 216 196 190 188 168 189 143 164
144 183 130 147 203 164 263 176 306 363 353 400 472 470 477 485 476 473 340 310 315 329 312 235 288 285 283 271 245 231 223 198 196 194 191 185 234 199 193 192 189 170 102 176 177
151 135 138 128 137 130 208 164 316 279 366 377 475 472 474 499 476 459 346 320 317 323 317 322 273 288 280 279 265 235 227 223 206 195 195 201 202 237 212 192 192 188 171 185 187
159 167 123 118 139 153 172 255 192 317 369 365 493 472 473 493 461 441 336 319 313 316 318 361 275 280 282 274 278 250 229 222 223 202 197 193 201 211 225 207 191 186 185 177 178
134 142 141 197 146 135 193 279 281 317 334 365 405 485 485 484 462 385 337 318 304 314 312 305 339 259 275 271 265 271 261 235 225 222 207 212 199 225 216 228 204 196 178 189 161
125 150 181 128 142 170 136 183 241 285 318 368 371 499 505 486 431 367 336 319 311 313 313 330 323 270 265 275 277 269 260 252 254 232 229 218 219 241 221 211 229 201 191 179 209
129 148 175 142 182 157 162 182 256 216 303 331 365 479 509 455 405 349 328 309 301 307 328 324 321 280 263 266 297 285 269 261 262 268 258 241 226 284 227 219 237 228 189 188 172
131 137 157 143 131 147 123 229 237 203 306 309 357 388 505 471 365 341 319 309 310 302 316 299 317 314 265 279 267 272 263 260 258 261 257 321 320 271 235 225 222 243 198 187 188
92 126 138 159 168 202 231 178 261 186 181 148 319 357 519 421 331 301 317 299 300 306 308 301 309 301 287 286 275 258 302 263 286 301 292 295 302 263 242 227 220 248 252 195 169
117 133 150 123 122 166 223 168 222 170 209 235 320 345 469 403 345 306 316 308 312 330 319 316 313 297 290 275 270 258 305 292 302 307 280 346 291 281 247 231 228 222 219 224 198
124 123 139 161 122 153 169 162 169 205 257 230 270 324 331 489 337 317 309 303 324 311 303 298 304 307 290 290 252 284 294 309 288 297 316 312 297 268 264 236 234 229 225 229 216
141 152 144 158 187 139 179 184 154 178 240 154 280 303 343 370 346 316 310 301 296 304 313 302 308 305 293 278 275 270 280 299 295 281 294 281 317 268 266 256 241 235 225 226 230
163 135 162 131 162 158 236 167 163 125 261 157 269 293 312 333 401 332 314 305 296 296 300 309 306 295 292 288 285 285 290 281 290 294 285 313 339 280 263 260 262 243 235 231 231
129 116 147 146 161 157 203 204 212 172 181 177 226 276 326 340 327 393 325 305 303 294 285 286 291 300 292 287 284 286 281 282 287 292 283 292 310 270 275 272 265 251 243 239 239
151 133 117 146 162 163 183 164 191 233 177 240 160 257 268 342 333 313 332 354 301 297 290 276 287 287 290 289 280 278 282 284 281 273 287 275 290 291 260 259 263 263 260 252 246
127 140 123 131 140 148 145 207 153 166 231 191 185 250 164 369 343 322 304 317 349 311 292 293 283 279 287 284 283 290 284 277 165 279 291 286 283 250 292 308 285 267 267 268 255
141 150 142 143 162 145 150 231 225 184 150 228 260 251 288 288 293 335 314 299 311 313 331 316 286 287 286 268 288 279 263 268 283 287 281 240 281 265 272 288 308 258 256 254 262
141 142 136 152 168 163 185 205 137 205 145 229 186 172 260 281 315 322 329 301 301 305 299 312 331 316 296 286 282 277 277 281 281 290 284 287 279 263 272 280 294 304 307 275 260
135 121 119 147 156 168 148 215 168 150 207 178 225 223 157 202 182 360 336 315 291 295 302 295 299 311 308 314 310 313 313 306 284 270 277 284 305 300 297 297 300 279 306 307 303
139 126 114 157 128 138 141 165 218 163 186 197 171 221 210 152 144 373 356 324 299 285 305 297 287 286 289 286 295 296 303 305 297 293 293 295 283 278 287 294 293 317 311 308 332
144 130 110 156 138 128 159 171 209 193 154 168 193 270 273 141 216 369 356 331 305 285 285 303 296 285 285 274 283 284 288 287 289 284 289 287 277 281 280 282 300 306 300 314 310

GFSSW_2pvu_pres_081.txt.gz
Presure
111 100 163 118 142 142 152 102 337 397 404 507 489 490 491 533 363 352 352 319 314 283 334 291 209 204 203 213 241 204 257 180 216 126 213 208 186 177 175 168 163 157 83 83 77
124 113 121 132 135 164 224 226 227 329 387 471 496 490 475 71 378 356 335 353 315 292 330 316 296 225 234 212 212 213 223 264 196 241 216 202 191 189 168 169 163 180 191 140 93
121 146 168 148 134 144 134 167 299 276 389 419 502 487 459 486 406 361 341 337 326 310 282 317 301 282 260 224 212 263 185 216 181 205 181 214 187 133 188 162 174 178 184 191 167
140 121 128 139 157 190 149 186 152 348 381 378 519 496 492 468 419 381 338 329 344 299 294 313 302 286 268 239 218 222 216 187 190 179 241 136 210 213 134 193 189 162 179 196 172
158 171 135 146 145 128 121 284 283 339 356 385 521 506 470 484 440 403 345 335 339 310 303 303 307 289 272 258 228 218 251 195 185 186 186 180 166 215 178 206 181 156 173 149 197
135 131 131 128 144 168 120 183 211 331 358 380 485 499 489 498 438 415 360 327 325 323 304 294 305 293 285 267 248 223 248 206 190 188 164 213 194 220 192 196 204 184 155 168 146
103 111 124 124 145 139 150 190 158 264 370 373 419 479 489 494 464 424 380 331 325 329 314 297 303 297 288 273 257 230 226 234 195 184 191 174 197 229 216 185 190 177 71 160 172
127 169 148 128 184 141 174 177 156 193 352 369 384 473 482 496 505 431 427 335 320 327 355 306 285 299 290 278 262 244 228 230 215 192 108 191 184 166 213 211 177 190 177 178 169
115 121 147 124 139 184 171 161 170 165 329 367 382 477 495 493 495 451 429 335 316 317 332 316 284 288 301 283 267 255 235 229 236 204 187 184 189 163 212 211 216 180 191 178 171
133 108 107 176 118 134 212 168 155 162 310 370 390 490 494 470 452 493 384 336 314 312 324 343 313 278 297 297 225 253 245 235 232 238 197 190 183 187 164 239 231 211 186 189 178
110 103 145 178 162 142 166 142 128 290 282 335 384 503 483 464 465 523 370 336 320 316 312 348 336 289 276 290 284 267 249 237 232 234 205 197 189 185 180 187 184 223 196 197 186
134 145 170 123 109 125 123 186 136 171 297 257 363 502 497 471 468 440 371 344 328 301 315 342 322 324 274 280 280 278 260 248 238 236 235 200 194 195 191 182 195 232 217 195 206
127 114 134 144 130 121 154 156 196 174 266 234 307 488 471 468 453 406 369 343 323 304 303 319 318 308 293 272 284 276 274 261 250 238 241 226 199 189 196 198 198 189 211 214 202
143 119 112 110 171 135 157 133 127 156 201 196 182 388 450 453 411 385 336 324 310 305 301 312 322 341 343 273 273 279 274 273 265 245 240 240 223 187 195 199 198 195 181 210 224
124 110 120 102 122 145 184 145 153 175 212 176 127 292 379 371 376 344 324 315 310 315 322 313 311 347 294 276 264 279 276 272 273 260 244 241 232 223 201 194 200 205 192 198 225
145 125 148 156 122 144 141 197 164 188 194 273 241 273 290 356 357 340 333 322 315 313 315 325 336 320 314 310 268 264 272 272 267 264 263 254 243 234 220 217 205 206 207 204 191
120 152 160 133 142 132 137 175 170 199 159 237 182 179 205 293 359 344 332 323 314 312 305 309 329 317 314 312 273 261 259 264 272 311 262 261 259 249 248 244 219 216 213 208 219
153 123 125 154 140 123 160 148 160 194 241 200 213 168 245 265 291 352 336 325 315 316 327 326 313 308 311 304 304 264 256 260 260 256 304 268 263 257 262 258 250 239 235 234 230
137 131 141 119 167 109 132 146 149 206 188 213 164 244 270 273 283 274 359 341 322 320 337 325 313 317 301 295 282 285 282 250 281 257 307 284 257 263 267 276 291 319 289 266 254
131 160 124 149 153 140 114 174 171 220 169 162 204 172 289 268 275 304 278 341 330 319 302 299 295 313 308 297 293 278 280 287 251 294 261 296 273 284 266 291 281 285 284 290 269
115 140 132 136 155 162 136 177 175 154 176 237 183 149 225 196 261 270 299 337 326 324 312 302 298 298 297 286 295 291 285 281 277 270 280 281 282 271 283 312 272 277 271 285 264
221 154 141 151 157 161 138 135 157 160 193 224 241 251 164 266 149 299 289 341 330 309 321 311 302 292 308 295 296 284 284 284 282 279 275 275 277 277 275 308 316 288 274 267 272
156 125 135 150 126 134 150 170 157 149 163 151 162 190 199 205 273 260 198 346 331 315 308 326 306 296 292 294 292 294 296 284 279 281 283 275 269 270 273 272 281 305 304 269 266
119 144 143 151 141 143 167 133 139 171 195 221 220 161 235 256 260 163 221 357 337 317 303 302 346 316 302 291 292 283 279 289 294 292 286 286 274 244 271 280 281 261 303 289 270
126 142 121 139 129 147 120 160 142 202 217 179 168 214 225 174 269 272 423 374 345 319 304 295 301 316 330 319 314 307 280 280 276 273 281 259 268 262 267 274 286 291 274 281 311
151 154 150 110 151 152 151 142 210 117 151 150 205 212 245 197 264 322 266 400 365 328 303 298 295 302 302 323 330 321 315 314 312 312 282 276 270 279 278 276 273 281 293 292 289
151 152 148 139 139 157 122 124 163 176 205 134 198 163 197 241 288 316 437 398 367 337 310 297 288 295 297 295 295 304 291 302 311 313 317 318 280 278 280 281 296 296 301 307 320

GFSSW_2pvu_pres_084.txt.gz
Presure
133 117 118 125 155 119 150 135 176 145 190 395 452 505 498 481 478 375 353 355 355 355 297 297 321 244 222 258 229 223 177 182 190 221 155 211 200 132 160 157 125 182 105 115 143
118 117 113 158 129 137 140 142 176 198 250 382 439 504 489 475 507 336 364 348 356 337 294 299 325 252 238 246 269 222 180 168 215 108 211 191 208 201 186 173 172 156 80 75 78
132 134 130 150 157 116 145 95 168 117 370 390 456 508 486 468 483 422 367 342 340 338 318 302 294 320 290 228 203 253 172 183 175 213 109 191 142 209 200 165 167 163 144 119 86
121 118 137 113 143 121 141 132 141 226 343 394 459 512 491 464 491 413 371 349 334 338 323 289 308 334 303 229 243 221 189 174 179 191 213 191 169 215 197 133 178 169 158 144 170
135 127 115 122 132 150 137 141 143 334 154 284 502 499 480 467 459 407 374 351 336 340 304 306 298 300 334 268 228 219 218 188 182 199 212 236 185 170 218 192 130 177 167 155 140
105 120 102 158 121 124 129 177 193 182 249 402 502 491 500 480 443 405 379 360 335 329 317 308 287 297 324 293 230 204 206 184 188 225 219 200 223 206 203 214 194 179 170 164 167
120 132 114 120 128 137 133 159 133 124 278 414 501 491 498 500 459 422 399 372 326 318 325 303 299 271 329 301 278 215 197 220 194 189 229 199 244 176 148 228 207 201 181 171 164
105 124 109 129 111 113 125 137 140 223 152 211 510 499 509 509 507 419 411 364 325 315 323 314 301 277 312 307 282 268 215 201 204 203 230 217 176 206 199 233 210 203 136 137 170
129 144 104 124 120 140 143 123 144 131 148 245 523 435 506 515 423 420 400 356 324 315 319 333 302 290 275 307 289 277 267 238 211 204 211 229 190 232 180 175 156 220 199 178 141
162 137 160 147 151 120 175 148 160 168 310 181 384 474 478 512 424 408 419 346 322 309 324 322 301 296 275 302 294 128 273 253 227 220 207 235 213 182 184 176 211 233 219 203 201
140 154 123 151 123 114 150 206 167 155 242 297 193 370 488 489 433 426 429 346 320 307 315 340 333 300 283 279 301 290 278 259 239 226 215 207 225 193 185 164 185 170 233 219 196
154 157 152 139 124 154 125 109 174 113 150 264 309 296 487 513 477 422 430 354 323 307 319 331 333 339 287 281 292 288 278 264 250 237 230 215 248 212 188 178 167 188 155 230 215
141 143 138 102 134 129 109 141 135 181 173 199 288 287 299 527 507 464 394 347 323 314 314 336 338 333 290 287 290 313 277 272 261 248 233 224 211 235 221 187 178 184 192 155 224
149 154 140 126 130 117 134 135 115 182 161 160 146 297 280 292 386 375 348 344 318 307 315 304 325 322 329 291 279 276 286 276 270 257 242 235 222 239 210 233 182 181 174 234 168
134 143 166 178 170 134 149 109 168 113 156 168 283 224 294 278 299 348 348 337 321 314 306 295 311 341 336 323 282 270 277 292 272 264 251 242 234 216 242 214 196 181 182 178 157
144 122 128 164 168 160 171 159 141 181 167 199 174 274 247 277 270 270 314 355 321 307 325 318 305 323 330 312 296 278 278 276 280 269 260 245 240 232 223 231 204 201 191 184 182
138 146 148 131 214 153 135 168 152 167 201 181 208 249 185 263 270 283 290 360 339 331 313 315 315 311 322 314 308 295 271 278 278 280 272 260 247 241 247 243 219 205 196 191 191
133 190 154 135 152 135 162 140 139 159 177 219 175 223 237 264 266 264 298 296 352 329 326 303 299 307 304 338 335 321 277 266 272 276 268 270 264 246 253 248 239 220 204 198 197
127 140 150 159 156 151 124 101 148 152 213 167 176 246 241 182 255 236 272 307 335 341 332 324 328 335 317 309 306 328 306 267 258 266 269 265 263 262 266 262 245 245 225 206 201
136 144 150 163 156 124 149 172 140 183 165 147 187 173 160 162 232 262 224 266 358 349 341 323 315 303 317 294 302 308 310 282 260 261 264 263 261 261 264 271 265 253 241 232 220
152 144 123 157 131 136 162 124 156 153 172 152 176 207 208 184 229 181 142 168 309 339 340 324 309 309 300 299 298 296 291 293 279 255 252 253 259 261 291 302 302 265 260 256 231
134 163 135 144 102 164 161 137 160 160 146 180 179 180 225 132 256 258 141 133 315 349 331 331 317 303 302 304 305 294 289 282 280 273 257 275 279 251 283 295 301 273 302 264 264
148 138 145 143 139 159 132 111 144 156 176 129 162 191 175 230 220 205 171 201 333 357 332 319 310 312 300 298 293 297 295 283 278 278 273 253 240 274 253 273 296 294 268 264 260
143 147 143 150 155 150 119 124 142 149 170 143 169 186 172 232 239 221 271 386 395 358 339 315 310 312 307 298 294 292 291 302 297 286 274 274 264 244 259 267 271 290 289 278 309
149 147 155 149 155 144 128 133 152 146 160 140 163 198 159 225 182 195 214 456 422 372 342 327 307 300 320 311 301 285 292 296 290 281 280 262 268 255 257 269 278 271 287 289 276
139 147 151 154 145 143 137 117 114 166 151 118 134 202 186 232 160 176 198 320 445 137 158 320 309 300 297 328 315 314 275 294 295 289 290 287 274 267 274 271 268 285 288 288 291
232 151 153 111 152 146 129 154 129 163 173 184 169 134 182 224 176 234 281 325 421 425 373 308 314 302 295 299 309 338 327 316 299 286 287 287 277 289 285 282 278 277 280 282 282

GFSSW_2pvu_pres_087.txt.gz
Presure
161 139 131 129 123 123 141 135 135 145 127 330 148 500 385 492 485 455 376 365 352 327 308 322 322 300 243 238 207 184 183 195 216 200 190 175 199 206 196 180 161 184 109 177 167
165 150 164 111 122 129 128 123 132 159 180 150 158 529 500 489 452 451 400 357 289 326 322 313 319 300 281 254 225 182 183 192 194 205 201 192 202 195 120 199 187 167 156 179 71
131 167 130 114 138 112 152 154 100 122 141 128 103 269 506 474 449 471 399 353 350 340 342 313 322 302 291 288 219 203 164 192 202 202 208 196 203 203 182 193 194 184 168 158 174
160 165 134 122 133 127 134 127 127 120 239 84 251 376 508 464 432 456 394 355 347 340 340 333 309 306 292 284 262 237 208 196 208 203 204 190 190 208 202 186 191 199 179 159 176
155 136 185 113 108 130 140 132 144 130 212 134 209 500 497 468 454 442 391 363 351 338 342 321 296 299 285 282 249 229 214 225 211 222 196 198 191 195 211 187 199 190 193 151 151
147 146 152 147 123 115 120 118 157 131 140 148 314 507 506 477 440 436 400 376 351 332 338 326 307 295 281 273 273 262 222 212 211 197 231 169 204 162 143 205 208 193 196 179 165
197 131 159 130 173 132 119 111 118 171 180 142 153 520 517 408 418 404 435 380 346 327 330 327 321 286 289 279 291 269 245 228 209 86 173 213 170 202 194 112 218 209 183 186 179
166 126 162 141 143 184 145 139 115 151 122 145 229 514 528 534 424 386 389 412 349 323 326 322 323 298 279 278 281 281 271 222 219 215 237 176 161 91 197 204 210 204 188 196 182
150 146 139 172 127 154 134 116 165 131 105 126 273 352 533 544 408 390 386 404 347 322 318 319 318 309 278 275 293 301 270 247 227 225 267 246 172 173 158 211 209 212 209 209 200
146 119 146 157 175 161 124 191 118 186 151 137 263 287 479 426 426 410 410 416 337 316 313 322 303 316 290 279 281 315 295 284 224 228 189 253 191 181 168 207 197 218 161 211 167
147 135 150 159 171 122 136 108 134 135 150 134 291 296 303 440 447 422 448 363 329 323 311 330 309 296 346 276 291 114 333 290 265 235 216 235 217 192 179 188 219 192 226 176 198
161 137 144 153 149 154 174 99 158 119 151 200 268 272 200 307 433 439 401 367 334 328 321 334 323 294 299 280 274 293 331 367 273 239 210 262 197 223 191 184 213 184 201 173 195
134 131 141 152 146 124 172 102 180 147 136 173 271 225 242 294 267 390 401 354 338 328 320 326 319 308 293 295 266 275 314 311 285 262 234 208 221 195 203 192 185 224 175 225 178
123 130 143 136 142 168 136 179 146 154 156 158 181 235 185 277 274 290 289 349 341 324 335 333 319 320 343 288 283 270 293 305 289 278 269 233 208 245 206 202 190 190 209 201 188
134 144 144 152 171 153 133 129 148 161 161 206 225 187 186 262 197 280 310 274 326 328 325 311 347 345 340 284 288 280 272 303 290 285 282 269 244 224 229 210 205 200 230 175 256
148 153 130 143 124 165 141 154 160 128 157 158 168 156 203 224 183 272 271 292 299 330 313 310 311 324 323 325 322 277 281 293 313 289 292 275 267 249 236 218 217 212 204 218 193
152 157 132 139 134 153 231 137 133 144 175 139 185 174 200 255 270 266 273 274 361 346 335 319 294 299 312 307 330 293 276 279 279 288 285 280 277 259 245 238 232 225 209 241 199
127 179 133 153 143 143 148 211 120 157 150 181 201 174 231 241 169 251 157 186 219 341 338 318 317 310 302 315 330 324 315 274 272 281 321 281 277 267 252 249 243 235 219 210 231
146 160 128 125 150 131 158 167 171 145 154 192 183 182 192 178 236 194 193 268 141 362 351 324 312 312 311 310 299 317 306 312 281 278 280 277 281 266 260 256 252 245 233 216 230
174 152 133 128 152 138 149 145 146 138 154 144 158 156 148 174 166 150 234 272 257 298 362 330 322 309 306 301 303 304 320 326 311 274 270 276 278 275 264 260 257 250 249 238 215
170 152 131 145 149 156 165 148 118 157 170 149 157 155 164 152 165 230 265 274 293 332 362 342 335 303 346 339 312 308 304 312 324 285 270 260 271 267 269 267 266 260 251 250 242
138 137 153 143 151 159 161 157 160 143 124 164 154 176 166 167 180 206 199 262 285 312 371 345 320 314 301 289 305 296 295 298 306 302 313 262 257 257 265 265 271 270 270 269 256
156 129 168 150 151 157 155 135 156 111 159 137 145 130 130 183 219 218 236 215 272 310 380 352 325 314 301 300 290 299 287 291 294 288 291 263 254 252 274 270 268 273 271 271 275
148 132 149 143 151 156 160 160 120 135 154 148 121 146 179 223 169 204 228 175 278 424 393 145 170 320 303 299 295 291 284 285 290 300 280 270 257 255 253 266 267 269 270 270 269
191 133 156 148 177 154 157 122 111 134 148 118 150 140 175 157 235 180 229 218 286 317 393 358 346 295 316 298 289 288 284 299 286 284 282 280 263 263 263 265 272 269 259 263 287
194 179 235 142 212 146 156 133 122 135 162 120 130 157 147 187 238 198 171 185 289 455 414 217 168 176 316 314 297 289 289 288 289 289 281 279 274 272 266 257 265 262 262 286 272
195 137 155 137 150 153 149 152 152 124 112 158 138 164 138 165 229 177 228 226 288 468 446 366 151 160 166 308 309 307 290 292 288 288 296 284 267 272 271 274 266 265 275 259 252

GFSSW_2pvu_pres_090.txt.gz
Presure
143 143 159 147 156 122 199 173 154 130 131 164 127 138 149 119 494 488 445 434 358 353 404 348 343 331 308 269 254 258 216 220 210 186 156 159 165 164 193 188 209 162 168 84 82
148 153 155 146 109 149 126 137 149 133 135 144 132 140 162 503 350 466 433 431 355 351 346 340 324 336 310 268 259 260 237 214 197 214 198 175 177 178 178 192 187 189 161 177 81
118 173 150 168 180 118 161 128 152 127 124 165 128 157 142 445 443 455 425 421 356 347 329 329 415 339 304 277 254 264 211 204 235 205 213 207 176 180 172 185 201 181 169 170 184
115 122 128 129 129 191 176 162 144 142 123 136 138 136 190 460 427 447 430 405 353 339 328 331 324 343 309 292 265 270 248 205 205 223 200 213 186 179 178 174 188 202 186 176 159
111 155 136 115 145 120 181 100 158 131 151 160 127 241 143 480 434 453 438 403 349 330 326 318 340 314 318 293 271 252 248 244 203 194 186 191 144 193 128 175 181 190 190 105 169
113 138 168 151 147 139 168 133 235 132 121 128 157 138 495 486 457 454 409 386 346 328 324 320 315 328 317 291 281 273 246 248 211 189 175 189 204 156 188 177 185 188 207 206 189
142 190 155 151 157 138 120 134 141 152 166 176 128 153 549 444 476 437 405 380 348 327 324 325 339 315 307 299 293 278 288 249 225 207 180 187 187 197 172 167 186 181 204 205 207
147 150 145 121 147 156 188 155 159 151 131 149 202 303 344 474 476 414 400 378 361 324 322 331 332 307 294 307 282 281 276 273 219 222 176 183 191 183 193 166 190 184 179 201 175
138 101 151 151 128 163 163 202 149 161 148 127 189 138 328 383 445 437 402 384 373 309 325 324 328 342 289 288 278 280 277 274 249 247 207 186 193 195 186 193 182 196 185 182 208
124 136 142 149 137 152 182 172 159 133 161 165 164 244 308 307 423 371 404 400 387 330 328 320 327 329 291 278 280 273 281 276 278 241 255 205 216 197 206 218 188 206 187 185 192
126 147 169 146 149 126 176 170 177 120 146 119 150 137 274 303 304 317 421 441 367 336 324 322 328 330 319 287 281 279 280 284 284 283 248 253 216 203 210 207 221 197 197 182 184
132 171 145 135 139 144 168 203 131 151 173 133 142 171 255 208 298 303 304 405 381 343 335 335 328 333 325 287 286 282 276 277 284 291 290 267 236 214 206 185 165 162 180 192 185
112 187 173 131 143 146 153 169 129 139 140 182 132 144 177 251 285 287 315 353 338 361 353 337 337 333 327 328 273 274 271 271 276 272 275 283 272 234 223 200 164 189 189 166 188
123 141 151 131 148 148 194 134 154 165 122 172 132 172 178 179 181 190 281 288 370 330 317 340 342 332 319 314 358 270 270 269 271 267 276 281 282 294 222 226 202 170 168 169 171
217 148 198 200 199 134 150 115 176 132 124 130 163 177 185 164 238 216 274 176 279 361 329 334 336 328 322 298 329 281 271 268 269 271 302 298 294 268 264 226 198 213 260 174 171
197 202 141 194 137 121 182 152 139 135 178 159 130 150 164 144 245 259 264 268 238 144 356 327 313 322 331 311 289 308 286 264 284 279 298 337 300 293 283 230 232 218 262 178 182
144 170 161 130 192 144 154 128 191 142 121 137 125 174 162 160 179 151 209 250 271 301 141 349 320 308 312 355 339 287 284 301 270 272 275 320 355 287 275 259 240 207 225 191 198
136 223 140 158 201 123 134 137 226 176 146 120 180 145 156 158 142 235 264 199 273 304 368 355 337 318 301 315 321 323 323 316 289 271 258 310 337 322 278 276 256 242 204 210 186
142 143 139 154 203 132 150 149 163 177 178 130 182 133 137 168 180 218 251 181 265 309 329 363 340 323 313 298 309 315 290 322 293 313 274 277 290 332 299 275 274 256 238 222 211
148 189 126 167 213 136 150 157 161 128 134 130 151 151 175 159 168 169 243 196 234 279 358 371 344 326 318 313 299 297 304 315 323 317 279 269 271 298 308 280 278 273 264 261 232
150 181 217 148 144 136 149 157 151 164 138 146 147 142 140 153 200 217 258 171 262 284 421 391 364 329 318 310 302 296 292 310 315 307 314 274 282 289 312 287 282 278 272 265 259
151 158 220 123 151 146 138 160 153 189 157 173 152 154 117 154 179 162 239 252 211 249 349 404 147 301 325 311 310 298 295 292 302 322 323 319 280 263 257 307 305 279 279 271 267
148 214 151 122 147 176 147 159 209 146 142 109 177 130 141 119 144 154 192 239 245 230 296 364 380 351 200 315 306 313 293 289 302 293 315 310 313 292 263 263 276 292 280 279 271
149 224 191 221 134 147 156 131 181 157 145 106 142 138 138 140 160 199 196 215 251 178 239 363 406 200 172 308 306 315 303 297 294 294 295 310 298 319 303 277 259 270 273 276 277
176 150 138 204 154 152 224 151 150 175 151 148 129 121 145 157 167 159 156 194 255 156 299 302 393 379 152 159 262 302 296 289 287 285 285 286 291 305 281 285 280 256 285 267 262
153 184 196 146 158 223 139 150 204 177 174 133 170 120 149 113 122 167 173 158 252 182 287 472 385 139 149 156 310 303 296 291 287 283 284 279 282 273 288 286 282 266 275 257 258
236 193 169 202 194 174 169 144 150 141 107 151 165 137 113 139 127 131 144 191 249 274 190 464 411 354 284 142 178 149 301 297 292 290 281 280 278 279 275 278 276 274 270 266 265

GFSSW_2pvu_pres_093.txt.gz
Presure
113 115 138 113 122 97 153 112 133 143 119 127 131 120 161 168 120 345 452 422 411 357 385 362 357 369 350 268 254 246 258 194 236 214 185 85 174 166 161 163 108 190 162 73 81
127 123 125 112 163 140 126 141 168 130 115 167 141 124 125 231 147 476 288 421 394 360 380 376 353 357 330 308 254 248 241 228 194 189 199 179 177 175 168 172 171 110 117 161 92
116 122 117 153 121 117 148 135 142 98 170 170 152 132 143 138 473 467 438 420 391 357 388 342 351 348 341 309 288 247 233 243 169 194 198 188 180 181 178 170 178 176 198 183 194
136 117 133 158 156 95 134 146 120 184 107 166 107 170 166 328 439 483 460 421 379 356 336 354 335 339 351 307 297 282 244 235 126 183 220 193 190 177 190 175 176 170 194 192 170
122 124 118 132 135 151 158 134 143 134 137 155 154 153 159 490 452 478 453 410 361 342 333 357 340 334 319 305 293 295 252 233 268 143 197 187 199 179 184 183 175 143 174 196 189
134 116 139 149 148 158 161 147 158 200 136 167 156 154 152 293 486 458 454 380 348 335 338 319 337 321 327 308 296 291 289 246 232 257 248 197 215 187 185 184 173 179 154 185 190
129 132 133 131 158 128 170 119 163 219 130 92 158 167 149 181 490 425 445 378 349 330 318 321 301 389 336 311 290 291 252 263 241 237 255 209 217 211 101 186 178 182 178 165 177
113 136 126 123 153 121 153 148 152 176 169 125 183 152 242 156 263 423 439 369 349 333 331 333 310 360 326 315 294 281 287 279 243 256 243 250 227 203 195 187 192 176 174 162 167
131 137 131 147 135 165 134 188 112 199 132 160 168 137 135 167 325 433 444 374 336 332 322 327 326 333 383 302 293 287 278 294 266 249 248 252 252 214 212 190 201 189 177 177 177
126 132 131 129 125 163 127 131 136 137 149 137 172 163 147 247 240 323 430 352 323 339 334 333 330 338 427 319 304 291 278 281 268 251 249 248 212 214 189 186 200 203 179 185 181
127 137 135 124 146 133 126 160 127 152 153 132 151 135 139 233 154 306 310 331 354 331 341 336 337 328 319 314 301 282 282 277 283 280 252 251 258 172 217 187 197 206 196 187 186
136 138 119 140 187 155 164 135 159 166 138 152 165 147 128 141 201 280 295 318 368 359 352 326 347 345 314 336 317 293 290 227 278 281 264 258 261 261 206 170 176 188 208 143 189
133 139 118 138 142 139 199 192 141 185 234 186 137 139 164 143 224 155 244 292 336 209 332 342 335 342 349 326 316 278 281 287 298 284 276 280 271 264 251 186 161 168 184 185 186
141 125 129 145 128 150 155 135 178 161 222 163 150 125 133 153 188 232 268 282 283 328 181 326 321 335 337 342 303 273 277 290 283 287 304 299 285 274 275 238 173 160 171 186 176
137 132 119 129 138 150 220 140 157 130 175 176 150 144 129 132 206 218 137 186 285 293 362 194 314 309 326 336 341 281 274 282 289 297 296 294 309 277 283 285 269 166 182 186 187
119 128 142 125 178 160 128 151 184 161 168 152 150 171 140 148 153 148 200 244 266 285 386 279 353 324 326 332 327 339 274 286 276 274 294 293 293 288 297 282 289 283 200 188 190
142 122 127 132 138 152 129 191 152 165 241 172 176 142 126 134 138 163 236 195 267 278 298 380 375 339 324 320 324 319 330 265 264 283 291 281 290 276 239 264 288 283 271 227 208
140 175 137 139 136 155 126 132 142 152 164 179 171 132 142 126 137 142 232 250 255 235 297 350 379 361 334 318 318 313 306 313 268 275 269 257 271 265 246 274 275 281 279 269 266
142 113 138 137 149 183 199 142 161 139 161 171 146 179 129 129 153 184 166 232 239 268 281 332 382 362 347 323 309 319 338 335 349 309 303 272 258 257 256 268 266 269 286 287 281
133 137 131 152 229 127 203 150 160 159 157 167 174 169 119 137 148 156 159 159 151 182 231 328 385 363 265 340 318 302 320 326 338 334 318 300 262 256 261 271 278 298 358 291 281
150 193 201 149 197 126 172 196 142 148 155 188 149 132 165 157 142 159 156 200 240 230 203 338 392 380 280 257 322 310 296 312 302 302 320 299 305 269 258 262 272 305 329 316 311
115 171 133 157 129 192 131 207 145 229 177 161 160 136 111 143 124 197 157 156 172 254 272 303 443 389 377 340 318 309 309 296 318 311 304 328 311 304 311 258 255 259 325 316 294
197 161 189 144 134 226 147 205 158 147 155 146 149 142 135 125 153 124 129 181 140 246 269 293 376 414 389 180 171 314 304 303 301 296 314 290 318 313 290 282 274 261 264 286 328
174 127 178 217 159 169 157 196 141 194 133 157 151 151 159 146 138 143 154 135 165 228 144 229 408 376 371 286 155 173 247 301 294 299 293 298 316 316 308 302 282 290 258 281 278
204 141 226 172 223 206 194 207 227 194 136 198 157 128 175 177 142 140 144 166 173 233 139 168 368 383 365 126 233 152 313 305 302 292 289 291 287 297 322 318 332 319 267 280 264
137 186 140 231 144 160 173 158 141 231 133 140 176 138 120 159 171 117 131 141 147 199 136 275 316 425 372 375 152 169 170 149 160 311 299 283 290 287 292 313 308 304 323 292 269
214 187 179 232 142 205 219 141 134 208 143 194 154 137 177 146 167 158 117 126 137 163 129 196 174 456 372 358 354 333 147 306 154 311 304 297 287 280 285 292 295 301 301 301 292

GFSSW_2pvu_pres_096.txt.gz
Presure
123 117 121 94 127 126 117 101 133 151 118 130 124 114 120 169 163 171 425 432 392 370 397 472 297 351 302 291 300 207 275 255 200 247 172 168 190 138 173 154 161 126 135 180 192
130 112 116 128 130 113 135 140 127 153 133 150 179 173 149 138 158 172 447 380 391 377 465 408 373 350 299 282 316 298 272 242 236 259 154 224 204 186 171 165 143 158 165 134 185
115 116 120 110 129 143 125 128 141 162 151 173 134 122 126 150 150 173 450 399 349 386 398 391 364 326 309 343 288 288 309 245 178 213 225 215 212 216 144 174 158 170 170 146 175
124 125 126 121 132 119 123 155 159 145 145 137 140 167 201 145 171 215 447 399 368 379 354 370 356 317 293 282 306 276 271 272 230 199 247 230 209 180 179 163 166 158 167 165 143
120 125 119 120 133 135 127 117 160 158 107 221 115 86 149 201 168 497 449 388 367 351 364 392 355 332 296 283 312 271 276 266 255 126 262 227 228 215 204 170 172 161 166 163 167
128 116 115 143 128 133 132 131 158 129 141 219 163 156 141 165 160 477 407 383 361 350 373 388 368 324 306 291 270 318 268 271 260 244 149 243 211 182 190 185 174 172 167 167 165
130 129 113 150 133 141 126 125 131 231 143 93 126 150 158 156 153 296 388 360 345 360 342 378 376 351 332 294 287 277 283 277 244 255 243 251 222 173 217 180 174 170 171 169 162
124 128 121 167 137 146 136 134 132 177 194 155 146 154 175 135 202 308 171 366 337 341 333 359 364 343 326 298 288 309 265 260 260 235 246 241 245 217 218 206 170 173 177 174 170
126 126 156 174 149 143 127 128 149 146 145 147 156 161 142 173 150 177 357 369 346 321 325 339 348 344 334 307 290 281 308 270 293 235 223 244 237 177 206 184 178 176 176 173 180
128 128 144 141 135 137 133 119 169 190 127 173 153 163 177 133 148 181 305 341 354 350 336 341 342 383 340 323 290 283 301 278 270 252 242 236 235 237 173 167 205 175 184 176 188
120 130 141 208 140 148 132 125 143 193 126 183 159 169 167 149 126 170 154 169 353 375 355 341 340 320 421 355 310 289 287 301 286 274 253 256 235 231 245 188 183 191 191 176 172
130 141 142 150 143 137 136 106 152 147 167 165 174 160 161 150 177 165 121 285 297 362 343 364 342 239 293 358 367 309 298 291 291 283 277 267 266 250 234 234 235 201 202 188 175
121 134 139 149 139 134 137 146 154 149 163 118 211 159 149 148 135 136 142 278 282 300 362 310 333 349 350 326 353 314 291 306 294 232 289 279 267 269 245 237 196 182 201 206 185
126 135 134 147 147 124 136 132 158 179 152 139 168 149 153 142 136 134 141 247 170 254 322 369 351 334 340 292 347 297 292 286 286 297 296 293 274 270 267 255 258 211 236 143 211
134 124 136 160 190 122 143 146 150 176 135 153 197 157 146 134 163 141 141 238 269 264 278 318 354 344 335 338 307 294 294 282 284 286 285 287 305 287 273 269 254 260 288 239 186
133 155 158 164 125 131 136 134 155 193 133 156 204 164 136 155 136 127 176 144 231 166 278 317 344 357 340 333 336 331 303 301 283 283 283 285 304 292 299 300 268 254 259 244 240
183 136 202 135 140 125 128 144 159 143 132 144 170 149 200 137 123 148 145 186 141 237 168 294 408 385 354 330 327 307 316 338 278 281 295 281 288 280 299 309 282 277 268 248 189
193 135 133 129 141 141 142 132 127 225 129 155 168 214 147 163 141 142 159 162 220 255 159 284 325 404 376 342 326 327 327 288 279 292 285 280 275 274 278 284 286 286 278 273 262
150 135 135 142 112 125 135 235 216 223 165 147 165 213 163 150 133 150 160 161 140 192 222 213 336 387 383 196 331 322 324 330 349 275 274 291 298 284 263 301 283 282 290 317 313
196 128 135 134 124 128 149 237 116 184 120 156 236 194 178 187 148 139 124 117 174 187 272 249 315 395 389 239 227 325 304 322 325 310 293 277 271 273 265 278 283 274 276 281 282
198 157 170 127 138 201 153 154 169 166 135 148 153 162 172 190 184 155 150 168 162 185 209 268 317 363 398 371 345 329 315 301 312 315 335 295 284 273 268 269 282 274 278 281 277
202 196 205 114 154 126 214 230 211 141 199 148 203 199 153 173 154 136 125 146 131 137 188 145 153 437 439 387 361 324 324 310 301 327 316 334 296 346 286 277 269 271 274 282 272
205 208 123 216 141 130 221 214 158 210 152 165 211 199 157 169 168 143 140 146 159 180 223 206 294 416 412 392 382 171 159 296 305 291 322 307 324 327 323 322 298 271 273 274 273
202 146 141 207 196 169 239 141 192 212 137 159 151 167 173 141 178 142 167 153 145 160 193 123 204 393 416 378 388 212 155 235 235 305 281 306 310 311 313 316 311 312 316 320 297
206 209 216 204 131 218 192 141 148 187 147 142 162 165 155 195 178 190 168 142 144 136 122 133 229 336 353 372 363 341 156 143 144 149 300 283 299 306 306 305 323 292 293 312 281
208 171 149 200 134 236 152 148 144 153 139 140 209 154 128 180 202 155 151 166 147 136 146 133 135 178 176 388 352 370 329 330 142 150 158 296 299 281 290 317 297 319 316 312 302
209 212 161 202 198 238 173 232 154 211 139 227 169 151 151 187 141 169 176 169 143 151 160 182 121 138 116 394 379 357 353 334 237 307 143 222 287 284 291 294 290 295 324 323 319

GFSSW_2pvu_pres_099.txt.gz
Presure
121 121 122 126 117 119 123 131 137 113 114 132 120 132 161 107 162 139 189 102 171 209 304 415 419 232 392 345 294 299 281 270 166 299 238 194 161 199 149 176 169 125 153 116 163
123 124 115 119 136 122 122 120 106 119 137 163 111 147 122 175 121 124 163 153 278 287 208 405 457 256 350 314 282 290 276 305 315 234 285 198 178 216 182 175 151 134 140 154 67
124 126 121 125 128 127 125 114 138 127 131 145 126 110 151 139 156 135 151 218 388 386 381 381 388 377 322 296 283 276 278 279 269 233 282 221 231 188 193 168 169 149 135 148 156
175 162 129 130 129 132 116 118 141 131 122 140 112 141 126 162 182 140 165 402 391 401 410 476 404 341 302 287 278 294 261 274 281 297 284 221 196 184 194 189 177 168 139 165 146
154 126 186 130 136 123 120 129 152 130 135 125 137 128 174 193 149 148 154 165 392 404 389 408 386 321 297 290 273 288 273 262 292 62 218 243 197 223 204 191 177 181 157 148 160
208 126 126 130 130 122 124 132 149 136 116 131 149 120 171 136 164 160 165 198 324 416 458 392 329 305 292 275 268 275 269 274 264 268 217 264 227 172 148 203 187 171 177 164 147
148 138 136 122 130 135 125 132 152 130 132 118 153 135 159 169 168 128 169 197 366 412 380 323 319 305 286 270 269 253 295 266 270 271 266 250 258 195 221 213 196 182 166 166 163
139 159 190 134 134 136 124 139 140 132 119 131 144 177 131 169 155 215 152 384 372 422 349 321 312 300 285 293 271 260 249 275 285 281 264 247 262 178 190 211 202 194 180 175 159
151 159 136 130 132 129 127 142 144 130 147 131 206 129 207 146 161 155 133 157 366 371 329 333 314 299 307 287 294 267 256 253 284 280 254 266 292 249 192 202 215 209 189 172 165
131 130 154 125 140 136 133 141 142 135 128 136 216 142 166 172 148 124 141 134 376 167 353 309 321 310 290 283 281 300 271 269 265 296 291 262 232 271 190 224 209 215 205 179 167
294 209 143 168 136 134 131 150 194 144 112 149 151 142 161 179 171 178 143 182 301 345 383 304 315 308 298 283 309 280 274 264 275 286 285 275 268 224 276 219 230 215 222 188 175
293 131 135 182 139 133 144 154 133 142 118 159 182 144 141 178 158 152 162 169 146 177 370 395 361 334 254 282 282 324 304 281 269 267 312 277 260 256 232 257 204 225 211 153 181
223 175 126 142 126 137 141 214 117 141 142 139 184 144 214 154 153 130 152 198 152 266 230 409 329 330 333 289 291 283 290 278 284 272 270 271 276 266 245 300 227 242 225 220 183
193 254 135 134 138 133 139 162 142 128 136 135 136 129 173 223 160 154 144 168 161 279 272 262 388 378 353 378 293 297 293 280 277 290 299 294 293 273 276 244 250 201 235 206 211
180 221 250 133 126 135 156 214 121 110 125 150 203 136 179 219 127 150 159 193 166 237 270 167 262 376 372 323 342 303 286 288 295 286 281 273 296 270 283 227 232 244 240 243 208
251 258 196 236 136 144 135 107 127 121 134 146 160 133 182 201 166 168 136 143 152 159 258 269 243 337 373 361 322 339 303 292 288 285 279 281 280 271 296 285 266 219 226 235 233
182 242 229 130 167 156 142 109 130 147 142 138 151 144 162 197 183 151 168 155 146 140 142 270 280 255 388 377 352 322 361 302 296 295 293 288 286 290 286 280 277 300 269 245 212
185 250 238 134 176 134 140 117 142 129 143 168 197 146 228 167 206 167 128 147 142 149 200 225 312 334 369 391 164 333 313 355 307 295 292 275 286 248 275 287 284 273 275 277 266
179 226 224 203 151 141 145 137 127 139 144 230 193 149 115 208 205 158 162 148 167 128 139 149 242 268 332 386 378 345 326 308 346 303 302 290 300 298 294 292 289 283 277 267 265
184 215 205 209 200 184 135 130 143 134 146 226 137 153 183 144 205 192 157 164 142 160 138 219 237 230 225 404 394 358 334 310 304 314 328 300 291 276 270 273 270 282 278 278 285
171 185 160 195 148 155 195 133 132 199 127 165 134 157 152 180 208 174 158 148 165 141 120 193 180 285 360 431 395 377 341 324 315 308 307 313 295 290 280 273 272 272 281 297 298
143 185 217 194 198 126 136 144 131 238 232 164 139 119 165 199 170 194 191 123 134 151 194 151 150 132 510 441 388 385 350 329 313 310 310 307 309 284 279 274 283 281 267 272 278
178 188 210 191 189 133 218 130 140 235 228 154 146 180 196 200 156 183 202 160 157 165 134 144 184 139 137 423 380 387 360 326 162 165 304 319 303 278 316 281 277 292 274 275 274
209 205 206 194 163 169 128 132 137 233 175 209 140 225 141 152 151 174 199 184 149 157 159 164 191 132 142 139 402 391 375 351 183 143 143 227 304 305 309 331 286 276 273 269 288
231 185 155 191 204 209 209 131 168 230 148 159 136 142 190 149 191 173 210 165 165 202 131 149 173 127 158 127 398 380 393 361 335 155 144 222 190 298 295 317 329 290 274 273 274
219 160 185 198 130 162 203 136 235 186 207 215 148 143 140 147 151 175 193 135 166 129 147 143 185 210 136 262 260 343 396 374 332 329 282 143 297 147 297 313 317 308 339 300 290
215 175 180 218 199 208 192 216 224 161 149 149 206 141 155 200 161 203 138 180 173 179 150 132 165 202 133 212 237 202 314 356 347 329 341 314 302 258 208 280 301 310 310 316 310

GFSSW_2pvu_pres_102.txt.gz
Presure
130 136 124 128 128 125 132 136 129 141 126 113 133 112 136 115 146 147 93 126 137 132 154 201 110 121 126 301 133 199 194 153 179 158 116 128 114 142 151 151 199 141 143 160 148
145 147 160 128 127 127 108 122 139 124 132 127 116 131 125 156 132 140 166 137 151 121 112 272 315 419 396 381 194 322 319 246 262 169 167 152 141 142 148 152 180 188 122 162 157
199 144 165 202 140 163 117 135 121 122 136 127 132 132 112 99 200 173 178 150 170 159 171 373 424 406 405 273 376 305 285 295 272 262 88 195 228 153 159 154 160 195 178 150 165
155 186 195 148 137 184 151 132 133 130 131 125 152 117 136 105 174 113 137 181 122 168 379 407 403 416 399 384 316 302 275 301 284 277 310 280 331 192 164 155 199 213 190 155 166
190 271 193 195 139 150 122 180 134 130 138 127 162 133 142 157 135 174 101 162 152 158 406 408 401 433 347 322 306 289 273 287 289 262 283 297 335 270 241 214 182 197 161 179 163
237 274 259 132 165 264 142 147 144 135 133 126 146 116 138 182 147 139 192 163 147 349 188 406 385 322 304 296 287 301 305 253 187 295 265 253 306 272 253 203 167 191 197 195 161
299 129 237 139 148 149 146 129 142 139 128 138 108 119 143 127 172 126 178 145 144 342 435 394 338 320 298 299 280 303 284 272 266 256 288 250 287 314 260 228 168 161 187 210 148
174 185 123 236 238 139 143 219 130 135 133 137 108 126 145 164 133 145 96 137 145 425 373 333 312 304 310 300 293 274 278 269 263 263 281 297 241 319 186 156 211 203 160 186 191
244 242 254 125 135 133 136 134 174 130 129 175 127 122 122 186 182 125 160 165 133 225 227 324 307 256 304 283 272 270 262 274 261 263 253 296 274 308 244 222 209 205 171 169 173
242 215 261 241 169 132 137 203 134 134 140 205 143 126 120 175 123 150 148 135 152 191 295 319 303 309 298 288 279 301 262 252 265 268 274 254 285 261 293 256 227 209 204 189 189
276 236 213 242 247 193 134 130 152 139 143 208 143 130 114 136 142 156 174 172 167 166 334 319 289 313 309 287 283 276 293 262 252 250 269 281 295 285 256 277 233 209 158 184 234
159 261 249 251 184 161 124 139 171 138 148 129 134 137 158 152 129 159 152 155 153 189 157 342 248 299 317 306 288 276 275 288 258 273 300 265 279 277 290 287 254 189 159 164 202
252 253 234 237 254 224 125 139 132 141 149 126 135 137 149 140 142 131 177 137 156 152 273 302 312 328 302 303 270 275 220 276 263 271 272 276 273 289 301 278 247 240 207 166 206
256 228 250 259 254 246 134 135 131 134 156 154 136 126 129 203 138 158 148 168 154 144 148 237 275 339 317 311 296 298 289 284 268 267 262 259 262 307 279 287 197 250 188 175 169
202 251 255 257 252 191 161 226 138 137 130 127 126 137 122 146 119 146 174 159 148 135 156 242 261 290 350 321 301 304 284 289 236 265 274 271 305 283 303 273 303 209 242 243 196
256 217 253 222 260 162 231 164 138 138 127 129 138 121 154 152 159 152 128 138 149 133 157 143 261 276 324 367 327 309 296 295 291 278 278 274 266 278 294 298 268 299 257 244 243
257 254 259 260 250 223 237 178 131 111 130 131 139 137 148 145 144 173 163 136 160 166 197 162 172 273 251 325 378 327 309 301 290 280 275 272 273 289 275 273 289 301 260 260 249
297 268 255 263 127 186 223 229 154 129 134 137 141 194 159 165 143 213 171 165 130 156 139 150 143 259 149 396 382 352 317 170 304 291 289 273 274 272 251 275 270 278 273 291 206
248 262 246 249 256 183 199 141 193 180 128 137 139 197 157 147 172 221 149 205 143 160 153 152 196 143 302 323 391 418 361 358 185 302 302 285 276 271 268 261 262 268 273 277 259
272 251 257 259 190 215 177 209 203 138 127 139 138 230 192 154 137 146 215 173 159 165 149 148 157 222 165 346 146 395 396 331 350 339 312 297 287 271 277 275 269 269 284 283 281
267 285 256 254 245 194 194 138 199 132 136 141 138 205 125 141 164 153 148 170 159 145 149 152 172 138 135 147 143 148 389 369 324 343 307 299 311 291 279 274 270 263 265 274 273
282 268 261 244 219 193 202 208 181 134 130 199 225 156 178 137 175 178 138 149 123 167 160 184 150 168 158 257 154 449 152 383 273 320 327 303 286 296 290 277 280 274 268 259 264
267 242 245 245 197 178 202 147 134 139 182 148 229 181 155 145 138 177 163 195 153 175 120 164 158 165 148 204 361 363 341 383 360 346 152 301 280 331 282 288 279 293 277 275 276
264 260 241 241 231 138 205 134 139 157 134 157 228 135 158 189 147 168 152 165 203 133 187 143 173 148 148 178 300 311 415 383 371 353 338 229 144 151 272 302 284 281 278 276 275
265 243 244 215 151 220 186 189 139 137 137 209 209 189 167 141 167 194 163 159 151 172 168 161 172 137 150 281 324 110 124 155 376 362 353 346 282 144 299 243 315 319 289 289 284
247 245 244 176 206 163 153 122 133 134 142 226 150 152 148 216 148 161 151 195 139 187 170 179 151 151 126 110 275 134 207 143 236 385 364 346 329 138 261 227 151 319 340 294 277
240 250 238 236 207 187 171 213 176 198 163 225 186 228 145 212 171 143 151 150 148 191 152 141 140 144 148 243 170 334 172 184 142 391 370 362 323 325 172 254 272 294 286 309 290

GFSSW_2pvu_pres_105.txt.gz
Presure
251 225 244 125 136 129 130 137 124 152 124 121 125 121 133 119 126 162 143 159 169 109 206 113 190 142 159 161 151 122 123 117 133 79 158 163 131 139 136 132 150 145 145 138 151
204 239 210 277 283 163 138 123 127 123 126 142 129 135 140 133 94 159 170 145 135 149 149 147 161 129 165 173 142 135 130 128 129 134 110 167 118 155 77 104 127 132 139 178 123
228 254 252 233 168 256 156 128 114 125 122 106 147 146 132 115 144 154 127 147 156 166 189 141 144 352 387 400 342 155 146 139 120 261 295 85 144 82 127 128 133 127 139 139 153
270 213 268 140 175 248 213 143 138 153 120 138 119 137 139 128 146 149 156 153 143 140 192 156 397 408 367 403 374 370 312 312 319 268 123 302 69 132 126 131 135 140 128 141 144
244 229 250 277 220 168 225 251 246 144 151 186 126 138 134 165 140 143 168 147 108 177 147 183 261 400 406 388 416 326 309 291 283 287 191 194 266 111 134 137 143 124 141 142 128
287 216 243 263 204 238 251 243 193 269 132 250 147 136 138 135 109 165 141 165 93 174 147 201 303 406 395 384 328 316 287 288 276 282 201 123 297 289 186 145 147 129 140 134 139
296 275 277 260 256 214 173 241 139 145 143 138 184 140 123 135 154 145 162 155 126 170 159 176 402 407 364 338 304 291 309 282 269 267 279 299 285 295 83 254 201 152 146 138 146
290 259 150 252 262 178 241 249 126 146 149 133 123 131 147 146 149 126 143 152 168 200 156 166 328 339 344 307 295 305 300 286 279 291 284 270 176 313 289 267 241 244 163 157 143
283 216 225 252 258 259 262 240 157 164 174 134 152 145 158 130 140 125 179 152 123 183 162 214 337 322 331 308 295 273 294 285 294 259 283 271 296 304 283 271 229 208 228 208 155
280 324 236 252 248 255 245 239 156 172 132 171 140 142 116 131 140 169 136 144 196 188 149 201 300 295 310 299 295 280 283 272 286 275 262 282 283 303 287 266 227 220 199 223 189
233 342 293 248 224 234 210 253 132 131 140 150 142 149 133 133 150 131 128 152 140 175 148 153 305 293 308 301 319 316 291 275 266 261 284 275 272 307 318 270 231 214 205 194 218
365 255 260 252 246 229 249 119 233 192 165 147 142 198 118 133 144 157 167 140 159 198 154 153 270 300 301 299 278 277 295 282 297 277 282 287 264 309 316 276 239 225 218 204 190
398 264 282 272 230 242 250 258 133 216 170 147 145 187 137 142 137 137 123 153 168 141 159 144 241 270 306 302 274 284 261 286 270 262 265 286 320 273 299 267 264 230 216 206 203
404 304 282 246 267 149 264 224 243 238 142 139 148 131 136 139 145 142 149 167 141 140 163 149 149 253 270 317 294 293 271 260 289 266 272 268 257 248 329 251 266 257 228 208 211
398 257 267 277 263 248 262 256 128 240 117 140 195 127 138 141 143 207 145 153 147 145 184 174 148 237 284 337 329 297 294 283 268 281 268 269 265 264 317 305 208 255 237 217 207
402 253 268 261 254 184 247 250 129 196 148 141 171 133 136 136 180 140 160 148 169 169 166 175 181 143 156 373 343 320 294 281 274 269 271 272 268 268 304 286 281 273 255 207 217
386 268 275 263 262 243 266 220 248 168 139 147 133 130 140 141 144 164 197 152 173 145 169 171 154 140 149 240 149 266 305 289 274 275 266 271 269 259 268 287 279 294 283 241 237
365 263 269 260 249 257 252 249 240 177 158 155 126 135 140 132 158 151 151 162 159 165 165 160 170 139 142 147 147 153 351 322 290 281 274 264 266 272 268 260 256 319 302 270 227
371 268 259 273 240 265 250 250 234 137 205 196 132 137 141 138 158 136 142 146 172 170 169 164 158 162 141 183 146 198 173 348 324 297 280 271 258 268 267 264 266 306 303 297 252
266 271 258 278 234 245 251 249 236 141 201 140 135 136 134 219 168 137 160 167 185 194 150 174 154 158 213 138 135 156 322 354 385 320 309 278 268 257 263 268 261 279 278 288 297
261 286 254 250 268 235 215 185 139 182 200 133 136 140 138 159 154 135 145 198 204 167 160 146 154 179 178 156 220 188 459 392 150 356 315 306 280 267 259 264 270 263 240 262 270
274 264 238 246 245 247 249 239 178 189 153 134 133 154 142 121 201 192 215 206 156 191 114 152 145 135 173 130 260 146 440 418 388 369 352 336 295 294 279 265 263 270 254 257 260
295 285 269 255 250 249 250 140 174 182 131 138 135 228 161 213 179 142 151 156 187 152 217 179 165 158 166 136 158 212 206 356 144 151 388 345 333 260 282 274 263 267 273 261 262
306 267 266 241 246 219 244 176 185 143 133 135 216 188 220 189 153 151 183 142 150 166 134 146 152 153 177 146 153 178 151 462 207 149 348 376 347 327 138 151 220 267 270 269 266
272 268 255 253 254 247 236 232 190 162 140 144 142 223 217 148 205 145 205 128 165 142 183 136 169 192 156 142 165 216 389 416 371 178 351 351 387 337 313 140 145 192 284 268 266
274 262 261 244 255 238 167 196 147 134 212 143 134 226 169 164 159 148 149 153 149 198 146 181 212 166 146 145 159 144 147 136 245 395 371 373 349 370 329 317 322 139 151 285 262
242 262 256 251 243 235 216 185 136 138 141 231 138 223 145 150 155 143 141 152 157 185 189 176 193 169 153 164 150 248 145 274 183 212 283 159 255 352 310 323 308 194 301 139 178

GFSSW_2pvu_pres_108.txt.gz
Presure
222 219 277 251 220 226 264 127 197 131 113 135 131 120 132 123 134 120 145 131 152 152 152 163 143 179 100 121 152 125 160 139 123 94 123 115 135 130 138 98 127 126 146 119 144
204 266 266 285 246 158 216 126 166 209 115 122 149 125 139 137 138 120 124 149 170 168 140 100 142 139 144 120 136 175 151 169 126 119 106 128 103 110 85 96 127 124 146 123 147
255 253 231 284 139 253 264 149 263 175 147 121 145 126 140 132 138 119 114 203 160 142 236 99 154 124 191 176 151 189 154 265 175 154 149 112 124 102 125 108 120 146 110 130 116
278 254 250 238 242 221 145 178 258 193 264 123 138 103 118 133 123 126 133 145 135 149 132 165 177 96 170 179 124 390 356 261 179 139 128 127 110 117 111 139 108 82 106 120 148
277 294 241 260 233 296 274 159 256 148 204 131 194 111 124 135 130 131 178 141 136 84 128 286 124 147 151 142 144 360 345 346 230 295 140 131 116 81 127 145 83 136 145 132 122
296 271 246 257 275 267 180 249 143 247 146 118 262 167 133 193 132 137 150 137 127 98 140 184 285 172 413 205 395 368 327 315 302 302 298 315 237 237 145 152 152 87 134 144 152
328 303 236 234 265 235 288 230 263 250 224 242 223 203 247 141 139 152 149 95 159 137 130 219 150 141 383 306 367 319 308 303 313 307 285 290 313 325 166 147 135 107 136 145 131
275 253 262 233 282 276 249 258 250 263 268 145 225 133 124 145 132 123 168 122 133 170 155 196 158 156 370 217 338 308 310 299 291 285 293 301 292 120 296 110 162 142 142 137 132
330 333 278 275 278 325 249 191 275 241 230 245 123 207 133 147 163 174 129 157 99 172 175 174 154 342 325 323 322 296 281 279 286 283 291 295 295 290 320 313 156 208 141 134 135
376 374 382 357 295 272 259 270 255 249 157 226 177 131 135 149 190 167 102 162 142 131 170 209 157 325 307 297 312 273 286 286 294 286 288 274 285 301 292 304 279 278 143 143 136
384 382 377 365 385 256 264 134 260 247 133 141 126 141 230 148 192 134 164 171 134 142 176 154 167 166 331 291 342 303 292 291 279 264 268 306 281 302 302 310 273 279 180 143 141
407 395 417 337 365 272 245 263 244 199 251 135 239 138 150 193 146 214 167 161 132 171 211 154 160 170 310 305 294 296 297 295 284 270 279 286 293 270 323 307 272 280 252 226 179
390 384 389 416 308 282 266 249 175 240 249 134 166 135 150 198 142 149 157 162 121 178 180 166 150 231 276 308 301 295 279 279 307 282 282 287 265 329 319 306 274 265 263 229 202
376 386 414 406 319 281 255 252 222 174 162 240 139 138 203 148 147 152 139 166 133 160 184 154 150 157 162 268 312 302 282 307 278 282 290 286 274 262 334 290 279 263 256 217 229
373 385 415 397 215 278 266 255 239 244 156 236 133 148 148 139 142 111 160 167 131 178 186 189 149 139 182 165 149 160 295 284 297 267 298 301 284 287 273 301 243 244 228 247 239
392 397 398 318 289 264 265 229 228 190 241 148 147 176 142 135 142 153 137 164 162 133 174 184 164 165 155 149 151 159 164 288 291 275 271 282 280 272 286 289 260 228 224 219 221
401 403 314 296 276 263 255 243 244 251 249 148 144 204 145 141 147 152 132 165 122 157 186 182 156 141 137 142 308 182 155 311 299 284 275 264 269 281 274 296 274 242 238 233 224
392 396 368 296 273 264 268 249 242 180 243 139 205 205 144 141 143 146 216 157 136 158 185 172 174 152 142 228 372 139 148 185 307 301 284 276 262 280 269 287 300 232 230 219 219
405 314 289 268 229 273 259 251 251 246 218 139 216 145 139 140 147 149 215 157 169 151 122 161 185 173 169 158 142 165 146 262 295 194 298 285 268 260 272 272 311 234 222 218 219
393 300 286 248 261 235 254 250 240 225 156 136 204 142 137 142 146 146 220 149 151 170 177 163 174 171 129 137 218 300 330 227 266 366 315 302 278 272 269 285 277 314 231 221 219
370 383 260 267 259 259 251 244 239 188 141 141 175 140 144 142 135 178 146 159 159 176 114 158 137 168 178 171 160 140 165 162 231 358 330 300 283 287 274 272 279 284 304 233 215
377 310 260 208 261 249 248 247 244 237 136 140 149 142 147 139 139 158 210 162 145 148 196 185 137 135 185 214 162 148 177 146 401 376 158 241 288 278 281 277 272 267 284 319 237
320 288 253 273 248 252 238 246 233 186 208 150 145 143 159 216 140 175 160 202 149 154 156 147 175 163 124 162 141 195 166 142 299 396 378 285 311 289 280 204 269 270 260 282 292
289 273 284 269 255 239 224 249 232 171 217 145 143 140 146 218 149 200 188 155 151 143 177 147 164 157 147 174 189 176 164 146 157 284 249 384 352 309 286 276 212 275 274 269 278
254 265 245 249 253 245 180 237 224 189 194 147 142 142 142 232 170 181 156 146 188 203 147 180 151 170 137 189 120 187 150 370 182 319 151 379 164 156 322 291 281 252 144 178 277
272 270 265 258 257 254 244 237 140 148 147 148 141 227 149 232 218 140 212 150 143 185 202 193 192 189 199 223 181 249 145 152 122 411 339 134 313 374 384 354 186 290 282 212 144
259 270 273 231 251 251 236 181 133 174 157 144 189 140 146 226 160 158 159 140 174 202 164 195 208 170 172 164 200 169 160 162 258 189 446 155 122 357 355 361 361 349 313 302 279

GFSSW_2pvu_pres_111.txt.gz
Presure
252 218 254 254 259 225 279 237 242 248 155 124 145 117 123 129 140 134 112 129 127 116 187 129 142 120 133 145 146 138 135 162 170 153 236 141 180 159 131 111 115 113 116 120 146
221 244 217 258 265 267 251 262 286 260 212 192 120 144 134 112 127 118 145 115 125 99 141 142 199 149 165 141 138 141 158 161 103 101 179 155 173 96 141 126 119 130 134 144 123
224 260 263 257 299 203 298 288 164 236 255 256 127 136 120 136 127 127 140 132 131 147 141 183 171 140 161 137 107 104 87 180 169 124 159 152 119 114 102 109 132 104 120 123 127
249 250 277 290 297 325 289 314 277 305 266 241 251 140 137 128 104 148 125 128 113 93 122 158 145 142 166 92 185 184 188 136 148 165 163 147 161 143 132 70 127 109 96 119 117
254 272 285 301 297 342 274 269 274 301 190 208 126 133 124 129 127 133 126 133 141 106 127 233 102 139 157 166 151 179 171 174 199 119 175 149 137 101 161 117 132 138 116 115 111
264 292 320 336 271 345 288 267 287 284 233 251 219 269 171 139 140 109 128 133 135 151 141 139 134 130 119 201 169 163 285 118 270 157 148 144 139 134 103 132 103 138 181 120 88
280 344 323 360 269 289 275 274 168 226 251 242 141 189 147 137 204 142 134 140 135 178 144 135 111 161 138 160 309 177 174 322 214 312 313 240 260 164 157 127 133 131 132 128 91
299 349 301 346 309 335 268 244 306 257 265 247 149 133 134 152 202 118 136 140 196 136 165 101 149 182 164 247 342 147 169 325 316 300 307 312 303 282 146 175 91 90 96 108 142
311 338 330 307 396 385 275 296 291 197 240 209 245 193 236 195 219 132 140 134 151 142 134 124 134 210 155 209 336 326 321 301 292 289 311 309 314 311 319 160 137 135 100 90 115
316 337 350 390 392 401 278 321 280 267 256 244 248 134 214 153 118 149 130 136 89 135 153 137 196 135 147 295 321 291 311 297 290 297 288 285 309 313 277 233 141 152 131 140 153
328 375 390 395 389 418 304 293 267 202 249 237 209 235 243 247 117 141 123 131 137 117 153 160 166 162 193 133 302 302 291 309 298 289 300 305 305 304 324 315 148 153 144 148 143
351 365 375 386 400 434 278 285 262 233 250 235 207 235 156 146 134 147 138 223 130 148 147 171 196 162 186 249 294 303 293 277 268 289 286 296 295 294 311 315 323 147 141 134 136
363 367 376 379 388 418 299 261 277 229 245 200 236 163 229 134 143 143 159 161 159 146 166 156 139 154 168 297 257 297 288 298 275 269 294 292 298 303 297 324 309 303 228 140 139
381 376 369 385 359 413 289 267 273 243 238 160 209 183 234 133 135 199 241 147 153 162 160 145 175 139 182 167 300 166 204 282 284 274 288 280 279 311 298 323 300 273 266 200 164
442 375 382 379 392 360 242 271 209 246 246 154 155 203 139 136 201 243 159 158 151 169 158 185 178 150 129 151 142 164 199 303 285 282 276 267 278 286 292 320 288 284 276 221 199
490 379 391 380 393 296 257 284 243 246 245 235 151 137 134 163 173 175 157 155 152 169 148 132 213 126 153 151 153 150 190 216 293 288 290 277 273 277 297 309 297 298 271 268 217
437 396 392 396 391 238 264 260 200 241 142 230 199 231 132 173 156 155 143 155 210 194 146 172 173 198 140 144 194 160 284 271 332 313 287 292 273 272 286 297 312 294 270 275 218
405 394 388 399 297 260 263 262 262 238 165 139 232 148 138 160 234 146 151 145 215 160 147 123 188 178 186 149 148 146 141 192 165 321 303 297 282 282 239 284 311 287 306 271 222
389 387 399 400 273 255 266 261 256 242 142 236 195 136 151 194 149 149 151 158 155 180 133 162 150 115 209 152 131 150 148 308 205 338 302 294 303 288 300 300 283 284 279 285 246
393 397 332 305 269 269 250 188 253 244 236 232 145 159 199 193 147 146 151 157 158 154 162 116 121 136 184 179 172 133 152 164 272 326 325 231 293 320 289 276 264 306 284 264 255
394 380 287 262 264 268 237 256 237 225 232 169 145 165 156 149 145 150 148 186 159 160 152 200 124 106 119 174 177 145 141 453 147 404 356 304 199 308 293 287 261 300 264 236 217
382 313 285 267 263 261 258 248 250 247 230 136 141 153 160 146 146 145 139 208 159 160 156 162 158 162 146 255 153 149 148 176 151 358 340 346 312 300 299 283 299 276 303 265 248
301 295 261 256 271 258 256 243 242 232 235 142 165 191 151 144 147 138 120 146 185 210 168 149 159 155 135 160 258 124 148 155 173 123 357 253 351 319 308 298 297 178 277 253 221
316 273 280 274 233 253 249 247 237 232 227 138 140 180 152 144 197 185 131 218 169 152 176 189 195 156 153 165 150 176 217 141 187 167 160 166 378 385 241 278 304 288 282 207 259
306 248 261 272 239 252 247 243 226 239 190 136 200 143 148 138 166 216 147 208 154 183 165 152 194 197 157 218 174 209 248 152 152 137 412 143 258 208 376 333 314 298 278 285 180
286 282 275 231 249 246 241 238 230 216 216 211 149 150 146 138 216 163 211 147 159 166 144 146 151 207 179 185 172 149 266 177 168 174 375 407 124 118 398 370 350 314 307 304 278
263 261 246 250 248 239 247 166 226 192 137 188 143 148 192 167 150 201 212 215 210 147 141 141 152 218 190 192 162 164 178 178 160 192 253 183 272 124 146 238 152 320 309 307 309

GFSSW_2pvu_pres_114.txt.gz
Presure
221 221 233 241 242 256 257 277 285 238 284 300 182 133 205 128 126 120 122 117 133 135 91 127 126 114 128 133 128 143 165 150 179 147 132 76 125 138 129 115 125 158 146 141 158
215 234 231 246 249 256 267 268 295 302 291 322 249 285 207 139 122 131 123 121 147 130 120 126 108 140 135 140 132 95 152 169 162 147 141 130 126 115 82 157 109 110 164 137 127
224 218 233 243 253 266 268 287 326 322 338 314 290 262 298 154 206 117 137 122 157 132 103 106 117 139 133 143 138 156 158 143 179 188 195 155 140 138 152 128 102 107 143 69 87
231 228 233 262 254 274 285 351 340 314 347 322 288 264 285 132 136 119 137 118 127 133 141 96 146 133 129 125 151 156 144 164 134 137 184 114 139 148 173 149 152 174 165 110 111
240 245 267 262 274 282 308 330 360 341 314 297 310 291 289 234 126 137 160 115 131 122 131 144 114 140 142 141 128 124 145 166 145 164 150 178 233 156 149 155 166 99 177 127 165
271 270 287 262 267 331 332 321 369 354 311 277 303 274 260 258 126 139 126 129 111 118 134 134 103 141 128 141 146 151 140 150 122 158 152 195 157 161 156 150 110 171 163 163 116
272 280 269 271 296 346 342 321 268 297 277 150 292 270 266 259 189 135 141 129 148 120 147 126 133 136 151 123 93 93 138 140 179 189 180 170 190 193 194 162 155 161 142 174 159
256 293 265 288 286 312 343 342 272 286 268 288 270 255 259 131 172 142 137 164 142 145 136 128 127 143 106 153 152 160 197 324 199 200 174 171 172 287 192 161 161 156 155 105 148
266 269 290 302 338 354 368 412 292 279 294 268 249 254 204 183 123 156 141 139 175 130 152 135 139 155 96 139 139 182 169 238 325 307 328 261 245 327 138 156 149 130 174 139 156
277 291 338 361 384 362 378 403 292 268 237 262 226 250 203 233 140 140 231 169 190 122 134 124 128 107 182 190 178 266 142 199 315 299 303 315 323 337 352 150 174 155 143 140 102
308 349 380 358 359 364 377 409 278 273 266 250 249 128 243 233 135 129 136 159 187 119 134 165 148 159 180 250 151 143 175 279 282 295 307 323 328 324 281 289 305 251 159 111 148
371 326 373 364 366 369 387 413 277 279 268 255 248 246 178 152 142 146 233 220 212 98 122 162 138 156 191 138 194 301 305 291 263 269 293 298 322 322 277 291 294 284 158 162 158
431 437 411 373 373 370 387 353 259 275 261 252 193 221 232 158 137 202 150 225 132 135 132 141 139 173 183 151 186 185 175 240 287 305 270 297 310 303 269 277 281 275 185 178 156
488 471 475 400 364 371 388 305 279 265 258 129 240 233 236 218 220 197 153 148 141 146 149 150 128 192 145 155 159 150 135 312 297 293 289 282 283 307 316 264 270 270 208 152 147
475 464 424 373 371 371 304 274 267 266 245 149 236 198 233 226 225 186 233 143 143 156 127 134 145 182 143 149 168 156 133 186 244 283 290 276 287 287 295 324 259 259 259 262 149
451 416 381 368 368 353 292 276 262 252 242 236 232 159 224 228 154 217 144 131 184 142 152 160 187 137 148 146 154 138 153 181 180 310 294 284 281 274 285 297 337 257 257 264 160
417 376 379 366 384 294 271 262 249 257 238 233 234 203 229 156 196 148 128 142 150 148 163 156 195 176 130 121 166 191 144 195 138 273 304 295 290 283 279 299 304 314 292 264 220
382 374 379 373 322 285 274 252 258 246 243 230 229 219 149 204 149 143 140 160 134 152 186 170 163 232 211 117 138 478 188 173 164 319 314 302 294 277 276 297 292 302 300 289 219
389 401 381 388 303 266 256 265 242 255 161 234 222 175 157 157 173 226 153 140 140 206 167 193 165 198 179 155 129 148 229 146 156 177 176 319 298 274 282 285 286 304 285 287 240
388 385 393 314 275 262 256 239 252 204 237 229 201 219 154 191 168 135 157 133 150 169 144 169 138 179 171 195 149 142 146 142 175 126 185 327 318 236 289 279 287 297 297 290 230
394 400 312 270 247 268 235 255 247 236 188 224 216 162 151 147 144 204 148 137 154 219 199 151 173 179 146 134 189 220 194 180 142 159 155 236 282 307 259 271 298 299 289 294 245
403 433 311 239 272 253 257 253 241 238 230 217 221 151 145 222 178 184 139 142 196 175 166 176 179 159 155 132 227 202 185 143 152 183 155 162 188 131 308 282 287 300 296 282 296
410 310 240 265 264 243 253 238 239 238 161 211 201 135 177 149 209 148 147 142 135 210 189 159 204 188 192 146 172 175 219 196 239 340 164 151 289 119 316 315 289 287 293 281 294
308 292 281 251 263 226 251 244 243 170 206 178 149 129 140 136 176 139 144 147 141 211 209 160 149 197 152 150 196 150 178 205 250 136 172 169 229 384 241 230 234 215 305 286 303
283 265 236 258 254 238 242 247 229 232 206 196 223 133 216 134 162 142 190 217 160 210 155 170 148 185 182 173 156 166 242 213 159 183 166 143 308 337 136 314 303 176 298 302 292
283 282 274 263 241 248 239 230 226 230 210 227 192 134 133 150 145 137 150 151 211 173 160 152 144 142 149 154 220 194 139 160 193 170 167 160 156 134 341 141 126 151 119 294 290
257 268 254 229 249 235 240 220 228 195 223 206 185 145 161 144 142 129 208 214 209 206 209 146 182 211 149 190 183 172 199 203 169 156 167 151 152 146 285 135 356 145 129 179 305

GFSSW_2pvu_pres_117.txt.gz
Presure
222 228 225 228 237 239 243 264 250 266 258 270 275 290 303 250 289 173 121 140 122 135 127 147 165 133 136 122 144 126 158 152 167 207 148 157 154 107 154 140 108 88 132 130 149
206 221 232 234 235 241 254 271 280 274 265 276 302 337 332 324 244 269 141 117 125 125 136 135 132 135 118 101 128 145 127 133 141 142 147 151 159 81 158 143 126 130 118 130 160
226 222 229 227 243 245 264 280 275 264 273 303 349 348 326 313 299 261 151 136 134 124 134 126 157 138 107 112 118 118 131 149 128 134 133 156 145 158 117 150 145 120 140 162 116
228 235 228 231 240 254 263 256 263 288 286 336 336 339 324 318 302 137 144 146 144 124 132 126 135 113 121 117 127 126 140 142 134 140 148 257 209 145 155 169 145 168 108 144 172
228 224 230 234 246 250 252 263 270 281 302 328 377 347 320 297 291 295 144 239 130 194 133 133 119 120 97 120 143 137 127 133 137 161 192 175 160 140 141 160 104 165 136 152 123
242 232 241 241 249 259 266 292 306 321 363 342 370 339 297 295 258 271 256 145 190 125 148 117 111 161 135 148 137 141 147 131 147 160 146 157 172 344 145 156 137 146 161 152 163
230 245 243 249 257 267 279 298 326 327 335 347 324 293 291 278 275 240 260 130 201 134 156 137 124 135 131 128 143 148 136 129 141 166 151 134 148 165 101 161 94 106 128 166 167
246 252 255 267 275 284 305 326 346 353 337 340 297 266 277 260 262 254 254 161 126 147 109 101 141 136 141 149 138 132 143 148 124 150 145 157 143 161 169 160 151 152 103 115 127
262 240 296 339 338 333 325 338 355 370 315 293 257 275 259 252 249 244 246 227 138 190 250 132 148 145 198 144 138 122 151 164 98 136 126 236 202 208 210 241 158 164 164 153 150
315 372 381 375 368 352 354 372 363 380 293 265 274 264 249 249 245 186 246 130 136 141 152 135 151 124 118 140 124 94 153 155 157 300 177 157 211 285 194 200 183 186 198 153 110
438 434 417 401 382 376 371 370 371 305 274 277 273 250 244 239 243 243 141 149 197 148 150 132 147 148 154 95 149 133 149 316 252 157 273 223 317 316 320 236 151 170 184 163 195
475 469 446 456 419 379 369 369 379 275 274 271 250 248 239 235 221 221 135 189 159 132 149 135 232 144 135 138 154 181 160 183 180 148 303 309 308 319 316 333 354 158 149 176 183
458 466 437 440 418 375 370 377 282 265 272 260 254 245 236 189 230 218 141 222 206 180 130 193 139 124 140 147 151 157 159 164 234 166 289 303 310 332 309 306 334 326 159 169 176
445 453 441 421 391 376 380 391 274 254 274 263 247 238 235 233 219 185 225 218 141 149 138 148 158 125 137 146 133 175 147 169 168 279 305 307 310 301 308 334 313 272 268 256 176
439 432 419 386 377 378 394 283 275 261 259 250 243 241 233 221 232 156 164 225 225 163 161 147 121 143 159 189 191 121 139 150 153 145 287 304 304 316 319 302 274 266 261 258 242
407 392 377 375 378 386 386 268 271 254 250 248 236 231 221 142 224 196 222 140 175 154 150 129 153 143 164 203 327 155 134 172 148 145 306 286 310 302 334 289 275 264 254 256 240
379 373 371 375 377 298 273 273 265 258 252 238 210 226 220 184 212 171 174 205 144 140 138 188 147 157 180 169 184 153 142 146 167 172 257 314 215 274 274 285 277 265 266 248 251
375 370 381 397 297 271 276 259 264 252 238 232 227 220 223 219 222 209 206 143 157 125 145 141 163 194 123 181 272 260 180 157 159 176 144 145 267 184 265 252 252 280 264 252 242
374 381 393 296 287 282 275 263 248 236 232 227 224 225 151 205 221 188 153 151 129 157 148 156 167 151 170 179 176 178 167 177 174 148 177 121 132 147 309 266 279 266 269 269 242
393 405 307 292 287 285 267 244 221 234 228 182 223 204 230 225 143 151 147 144 159 140 171 163 176 168 174 203 176 176 415 189 165 141 211 166 131 129 301 146 264 233 262 272 258
425 313 295 291 264 274 247 240 234 163 212 225 216 200 219 179 138 149 125 151 140 131 176 163 177 172 148 166 206 289 189 320 274 185 180 171 240 222 304 140 268 254 263 277 274
318 300 298 291 277 251 248 237 234 223 222 225 226 204 151 225 141 149 149 153 134 140 200 160 190 244 171 186 145 165 138 173 336 395 167 176 170 314 306 134 300 309 279 256 246
286 269 234 260 254 241 225 237 228 219 126 226 205 204 188 139 148 148 214 138 139 177 199 214 168 161 198 160 194 255 243 283 237 343 182 155 174 142 323 232 296 300 293 277 268
275 239 306 251 258 236 234 234 226 217 219 126 197 190 191 140 136 152 184 137 138 136 130 169 157 204 212 184 147 224 187 261 188 167 156 175 171 298 358 284 295 295 290 296 293
222 239 214 265 219 239 236 230 213 210 205 197 192 209 129 137 146 148 149 143 138 155 204 182 171 163 151 153 146 272 247 180 177 262 170 211 173 149 165 411 264 188 154 284 303
222 267 247 233 244 241 232 225 214 199 201 222 204 168 137 137 170 146 142 136 214 197 215 219 177 148 230 187 216 260 149 162 244 174 277 175 170 367 144 164 201 127 261 142 153
188 207 233 186 249 247 228 218 187 178 218 210 174 196 153 136 140 180 128 140 215 215 211 215 172 160 205 171 200 191 222 212 217 236 265 176 203 112 166 265 227 155 213 129 256